[[{"header":{"parameterUnit":"m.s-1","parameterCategory":1,"la1":31.0,"la2":29.5877,"lo1":-88.7671,"lo2":-86.6584,"dy":0.0162,"dx":0.0185,"nx":115,"ny":88,"refTime":"2024-08-31T06:00:00:Z","depth":0,"parameterNumber":2,"parameterNumberName":"U-component_of_WINDS"},"data":[0.0,0.0,0.0,0.0,0.0,0.0,0.0,0.0,0.0,0.0,0.0,0.0,0.0,0.0,0.0,0.0,0.0,0.0,0.0,0.0,0.0,0.0,0.0,0.0,0.0,0.0,0.0,0.0,0.0,0.0,0.0,0.0,0.0,0.0,0.0,0.0,0.0,0.0,0.0,0.0,0.0,0.0,0.0,0.0,0.0,0.0,0.0,0.0,0.0,0.0,0.0,0.0,0.0,0.0,0.0,0.0,0.0,0.0,0.0,0.0,0.0,0.0,0.0,0.0,0.0,0.0,0.0,0.0,0.0,0.0,0.0,0.0,0.0,0.0,0.0,0.0,0.0,0.0,0.0,0.0,0.0,0.0,0.0,0.0,0.0,0.0,0.0,0.0,0.0,0.0,0.0,0.0,0.0,0.0,0.0,0.0,0.0,0.0,0.0,0.0,0.0,0.0,0.0,0.0,0.0,0.0,0.0,0.0,0.0,0.0,0.0,0.0,0.0,0.0,0.0,0.0,0.0,0.0,0.0,0.0,0.0,0.0,0.0,0.0,0.0,0.0,0.0,0.0,0.0,0.0,0.0,0.0,0.0,0.0,0.0,0.0,0.0,0.0,0.0,0.0,0.0,0.0,0.0,0.0,0.0,0.0,0.0,0.0,0.0,0.0,0.0,0.0,0.0,0.0,0.0,0.0,0.0,0.0,0.0,0.0,0.0,0.0,0.0,0.0,0.0,0.0,0.0,0.0,0.0,0.0,0.0,0.0,0.0,0.0,0.0,0.0,0.0,0.0,0.0,0.0,0.0,0.0,0.0,0.0,0.0,0.0,0.0,0.0,0.0,0.0,0.0,0.0,0.0,0.0,0.0,0.0,0.0,0.0,0.0,0.0,0.0,0.0,0.0,0.0,0.0,0.0,0.0,0.0,0.0,0.0,0.0,0.0,0.0,0.0,0.0,0.0,0.0,0.0,0.0,0.0,0.0,0.0,0.0,0.0,0.0,0.0,0.0,0.0,0.0,0.0,0.0,0.0,0.0,0.0,0.0,0.0,0.0,0.0,0.0,0.0,0.0,0.0,0.0,0.0,0.0,0.0,0.0,0.0,0.0,0.0,0.0,0.0,0.0,0.0,0.0,0.0,0.0,0.0,0.0,0.0,0.0,0.0,0.0,0.0,0.0,0.0,0.0,0.0,0.0,0.0,0.0,0.0,0.0,0.0,0.0,0.0,0.0,0.0,0.0,0.0,0.0,0.0,0.0,0.0,0.0,0.0,0.0,0.0,0.0,0.0,0.0,0.0,0.0,0.0,0.0,0.0,0.0,0.0,0.0,0.0,0.0,0.0,0.0,0.0,0.0,0.0,0.0,0.0,0.0,0.0,0.0,0.0,0.0,0.0,0.0,0.0,0.0,0.0,0.0,0.0,0.0,0.0,0.0,0.0,0.0,0.0,0.0,0.0,0.0,0.0,0.0,0.0,0.0,0.0,0.0,0.0,0.0,0.0,0.0,0.0,0.0,0.0,0.0,0.0,0.0,0.0,0.0,0.0,0.0,0.0,0.0,0.0,0.0,0.0,0.0,0.0,0.0,0.0,0.0,0.0,0.0,0.0,0.0,0.0,0.0,0.0,0.0,0.0,0.0,0.0,0.0,0.0,0.0,0.0,0.0,0.0,0.0,0.0,0.0,0.0,0.0,0.0,0.0,0.0,0.0,0.0,0.0,0.0,0.0,0.0,0.0,0.0,0.0,0.0,0.0,0.0,0.0,0.0,0.0,0.0,0.0,0.0,0.0,0.0,0.0,0.0,0.0,0.0,0.0,0.0,0.0,0.0,0.0,0.0,0.0,0.0,0.0,0.0,0.0,0.0,0.0,0.0,0.0,0.0,0.0,0.0,0.0,0.0,0.0,0.0,0.0,0.0,0.0,0.0,0.0,0.0,0.0,0.0,0.0,0.0,0.0,0.0,0.0,0.0,0.0,0.0,0.0,0.0,0.0,0.0,0.0,0.0,0.0,0.0,0.0,0.0,0.0,0.0,0.0,0.0,0.0,0.0,0.0,0.0,0.0,0.0,0.0,0.0,0.0,0.0,0.0,0.0,0.0,0.0,0.0,0.0,0.0,0.0,0.0,0.0,0.0,0.0,0.0,0.0,0.0,0.0,0.0,0.0,0.0,0.0,0.0,0.0,0.0,0.0,0.0,0.0,0.0,0.0,0.0,0.0,0.0,0.0,0.0,0.0,0.0,0.0,0.0,0.0,0.0,0.0,0.0,0.0,0.0,0.0,0.0,0.0,0.0,0.0,0.0,0.0,0.0,0.0,0.0,0.0,0.0,0.0,0.0,0.0,0.0,0.0,0.0,0.0,0.0,0.0,0.0,0.0,0.0,0.0,0.0,0.0,0.0,0.0,0.0,0.0,0.0,0.0,0.0,0.0,0.0,0.0,0.0,0.0,0.0,0.0,0.0,0.0,0.0,0.0,0.0,0.0,0.0,0.0,0.0,0.0,0.0,0.0,0.0,0.0,0.0,0.0,0.0,0.0,0.0,0.0,0.0,0.0,0.0,0.0,0.0,0.0,0.0,0.0,0.0,0.0,0.0,0.0,0.0,0.0,0.0,0.0,0.0,0.0,0.0,0.0,0.0,0.0,0.0,0.0,0.0,0.0,0.0,0.0,0.0,0.0,0.0,0.0,0.0,0.0,0.0,0.0,0.0,0.0,0.0,0.0,0.0,0.0,0.0,0.0,0.0,0.0,0.0,0.0,0.0,0.0,0.0,0.0,0.0,0.0,0.0,0.0,0.0,0.0,0.0,0.0,0.0,0.0,0.0,0.0,0.0,0.0,0.0,0.0,0.0,0.0,0.0,0.0,0.0,0.0,0.0,0.0,0.0,0.0,0.0,0.0,0.0,0.0,0.0,0.0,0.0,0.0,0.0,0.0,0.0,0.0,0.0,0.0,0.0,0.0,0.0,0.0,0.0,0.0,0.0,0.0,0.0,0.0,0.0,0.0,0.0,0.0,0.0,0.0,0.0,0.0,0.0,0.0,0.0,0.0,0.0,0.0,0.0,0.0,0.0,0.0,0.0,0.0,0.0,0.0,0.0,0.0,0.0,0.0,0.0,0.0,0.0,0.0,0.0,0.0,0.0,0.0,0.0,0.0,0.0,0.0,0.0,0.0,0.0,0.0,0.0,0.0,0.0,0.0,0.0,0.0,0.0,0.0,0.0,0.0,0.0,0.0,0.0,0.0,0.0,0.0,0.0,0.0,0.0,0.0,0.0,0.0,0.0,0.0,0.0,0.0,0.0,0.0,0.0,0.0,0.0,0.0,0.0,0.0,0.0,0.0,0.0,0.0,0.0,0.0,0.0,0.0,0.0,0.0,0.0,0.0,0.0,0.0,0.0,0.0,0.0,0.0,0.0,0.0,0.0,0.0,0.0,0.0,0.0,0.0,0.0,0.0,0.0,0.0,0.0,0.0,0.0,0.0,0.0,0.0,0.0,0.0,0.0,0.0,0.0,0.0,0.0,0.0,0.0,0.0,0.0,0.0,0.0,0.0,0.0,0.0,0.0,0.0,0.0,0.0,0.0,0.0,0.0,0.0,0.0,0.0,0.0,0.0,0.0,0.0,0.0,0.0,0.0,0.0,0.0,0.0,0.0,0.0,0.0,0.0,0.0,0.0,0.0,0.0,0.0,0.0,0.0,0.0,0.0,0.0,0.0,0.0,0.0,0.0,0.0,0.0,0.0,0.0,0.0,0.0,0.0,0.0,0.0,0.0,0.0,0.0,0.0,0.0,0.0,0.0,0.0,0.0,0.0,0.0,0.0,0.0,0.0,0.0,0.0,0.0,0.0,0.0,0.0,0.0,0.0,0.0,0.0,0.0,0.0,0.0,0.0,0.0,0.0,0.0,0.0,0.0,0.0,0.0,0.0,0.0,0.0,0.0,0.0,0.0,0.0,0.0,0.0,0.0,0.0,0.0,0.0,0.0,0.0,0.0,0.0,0.0,0.0,0.0,0.0,0.0,0.0,0.0,0.0,0.0,0.0,0.0,0.0,0.0,0.0,0.0,0.0,0.0,0.0,0.0,0.0,0.0,0.0,0.0,0.0,0.0,0.0,0.0,0.0,0.0,0.0,0.0,0.0,0.0,0.0,0.0,0.0,0.0,0.0,0.0,0.0,0.0,0.0,0.0,0.0,0.0,0.0,0.0,0.0,0.0,0.0,0.0,0.0,0.0,0.0,0.0,0.0,0.0,0.0,0.0,0.0,0.0,0.0,0.0,1.0288,0.0,0.0,0.0,0.0,0.0,0.0,0.0,0.0,0.0,0.0,0.0,0.0,0.0,0.0,0.0,0.0,0.0,0.0,0.0,0.0,0.0,0.0,0.0,0.0,0.0,0.0,0.0,0.0,0.0,0.0,0.0,0.0,0.0,0.0,0.0,0.0,0.0,0.0,0.0,0.0,0.0,0.0,0.0,0.0,0.0,0.0,0.0,0.0,0.0,0.0,0.0,0.0,0.0,0.0,0.0,0.0,0.0,0.0,0.0,0.0,0.0,0.0,0.0,0.0,0.0,0.0,0.0,0.0,0.0,0.0,0.0,0.0,0.0,0.0,0.0,0.0,0.0,0.0,0.0,0.0,0.0,0.0,0.0,0.0,0.0,0.0,0.0,0.0,0.0,0.0,0.0,0.0,0.0,0.0,0.0,0.0,0.0,0.0,0.0,0.0,0.0,0.0,0.0,0.0,0.0,0.0,0.0,0.0,0.0,0.0,1.0174,1.0188,1.0155,1.0164,1.0187,0.0,0.0,0.0,0.0,0.0,0.0,0.0,0.0,0.0,0.0,0.0,0.0,0.0,0.0,0.0,0.0,0.0,0.0,0.0,0.0,0.0,0.0,0.0,0.0,0.0,0.0,0.0,0.0,0.0,0.0,0.0,0.0,0.0,0.0,0.0,0.0,0.0,0.0,0.0,0.0,0.0,0.0,0.0,0.0,0.0,0.0,0.0,0.0,0.0,0.0,0.0,0.0,0.0,0.0,0.0,0.0,0.0,0.0,0.0,0.0,0.0,0.0,0.0,0.0,0.0,0.0,0.0,0.0,0.0,0.0,0.0,0.0,0.0,0.0,0.0,0.0,0.0,0.0,0.0,0.0,0.0,0.0,0.0,0.0,0.0,0.0,0.0,0.0,0.0,0.0,0.0,0.0,0.0,0.0,0.0,0.0,0.0,0.0,0.0,0.0,0.0,0.0,0.0,0.0,0.0,0.0,0.0,0.0,0.0,0.0,0.0,0.0,1.0343,1.0346,1.0368,0.0,0.0,0.0,0.0,0.0,0.0,0.0,0.0,0.0,0.0,0.0,0.0,0.0,0.0,0.0,0.0,0.0,0.0,0.0,0.0,0.0,0.0,0.0,0.0,0.0,0.0,0.0,0.0,0.0,0.0,0.0,0.0,0.0,0.0,0.0,0.0,0.0,0.0,0.0,0.0,0.0,0.0,0.0,0.0,0.0,0.0,0.0,0.0,0.0,0.0,0.0,0.0,0.0,0.0,0.0,0.0,0.0,0.0,0.0,0.0,0.0,0.0,0.0,0.0,0.0,0.0,0.0,0.0,0.0,0.0,0.0,0.0,0.0,0.0,0.0,0.0,0.0,0.0,0.0,0.0,0.0,0.0,0.0,0.0,0.0,0.0,0.0,0.0,0.0,0.0,0.0,0.0,0.0,0.0,0.0,0.0,0.0,0.0,0.0,0.0,0.0,0.0,0.0,0.0,0.0,0.0,0.0,0.0,0.0,0.0,1.0457,1.1172,1.1066,0.0,1.1097,0.0,0.0,0.0,0.0,0.0,0.0,0.0,0.0,0.0,0.0,0.0,0.0,0.0,0.0,0.0,0.0,0.0,0.0,0.0,0.0,0.0,0.0,0.0,0.0,0.0,0.0,0.0,0.0,0.0,0.0,0.0,0.0,0.0,0.0,0.0,0.0,0.0,0.0,0.0,0.0,0.0,0.0,0.0,0.0,0.0,0.0,0.0,0.0,0.0,0.0,0.0,0.0,0.0,0.0,0.0,0.0,0.0,0.0,0.0,0.0,0.0,0.0,0.0,0.0,0.0,0.0,0.0,0.0,0.0,0.0,0.0,0.0,0.0,0.0,0.0,0.0,0.0,0.0,0.0,0.0,0.0,0.0,0.0,0.0,0.0,0.0,0.0,0.0,0.0,0.0,0.0,0.0,0.0,0.0,0.0,0.0,0.0,0.0,0.0,0.0,0.0,0.0,0.0,0.0,0.0,0.0,0.0,0.0,0.0,0.0,0.0,1.1126,1.0985,1.0946,0.0,0.0,0.0,0.0,0.0,0.0,0.0,0.0,0.0,0.0,0.0,0.0,0.0,0.0,0.0,0.0,0.0,0.0,0.0,0.0,0.0,0.0,0.0,0.0,0.0,0.0,0.0,0.0,0.0,0.0,0.0,0.0,0.0,0.0,0.0,0.0,0.0,0.0,0.0,0.0,0.0,0.0,0.0,0.0,0.0,0.0,0.0,0.0,0.0,0.0,0.0,0.0,0.0,0.0,0.0,0.0,0.0,0.0,0.0,0.0,0.0,0.0,0.0,0.0,0.0,0.0,0.0,0.0,0.0,0.0,0.0,0.0,0.0,0.0,0.0,0.0,0.0,0.0,0.0,0.0,0.0,0.0,0.0,0.0,0.0,0.0,0.0,0.0,0.0,0.0,0.0,0.0,0.0,0.0,0.0,0.0,0.0,0.0,0.0,0.0,0.0,0.0,0.0,0.0,0.0,0.0,0.0,0.0,0.0,0.0,1.088,0.0,1.1269,1.1155,1.0902,1.0462,0.0,0.0,0.0,0.0,0.0,0.0,0.0,0.0,0.0,0.0,0.0,0.0,0.0,0.0,0.0,0.0,0.0,0.0,0.0,0.0,0.0,0.0,0.0,0.0,0.0,0.0,0.0,0.0,0.0,0.0,0.0,0.0,0.0,0.0,0.0,0.0,0.0,0.0,0.0,0.0,0.0,0.0,0.0,0.0,0.0,0.0,0.0,0.0,0.0,0.0,0.0,0.0,0.0,0.0,0.0,0.0,0.0,0.0,0.0,0.0,0.0,0.0,0.0,0.0,0.0,0.0,0.0,0.0,0.0,0.0,0.0,0.0,0.0,0.0,0.0,0.0,0.0,0.0,0.0,0.0,0.0,0.0,0.0,0.0,0.0,0.0,0.0,0.0,0.0,0.0,0.0,0.0,0.0,0.0,0.0,0.0,0.0,0.0,0.0,0.0,0.0,0.0,0.0,0.0,0.0,0.0,0.0,0.0,0.0,1.1267,1.1238,1.194,1.1879,1.1112,0.0,0.0,0.0,0.0,0.0,0.0,0.0,0.0,0.0,0.0,0.0,0.0,0.0,0.0,0.0,0.0,0.0,0.0,0.0,0.0,0.0,0.0,0.0,0.0,0.0,0.0,0.0,0.0,0.0,0.0,0.0,0.0,0.0,0.0,0.0,0.0,0.0,0.0,0.0,0.0,0.0,0.0,0.0,0.0,0.0,0.0,0.0,0.0,0.0,0.0,0.0,0.0,0.0,0.0,0.0,0.0,0.0,0.0,0.0,0.0,0.0,0.0,0.0,0.0,0.0,0.0,0.0,0.0,0.0,0.0,0.0,0.0,0.0,0.0,0.0,0.0,0.0,0.0,0.0,0.0,0.0,0.0,0.0,0.0,0.0,0.0,0.0,0.0,0.0,0.0,0.0,0.0,0.0,0.0,0.0,0.0,0.0,0.0,0.0,0.0,0.0,0.0,0.0,0.0,0.0,0.0,0.0,0.0,0.0,1.0526,1.0733,1.1382,0.0,1.1503,1.0596,0.0,0.0,0.0,0.0,0.0,0.0,0.0,0.0,0.0,0.0,0.0,0.0,0.0,0.0,0.0,0.0,0.0,0.0,0.0,0.0,0.0,0.0,0.0,0.0,0.0,0.0,0.0,0.0,0.0,0.0,0.0,0.0,0.0,0.0,0.0,0.0,0.0,0.0,0.0,0.0,0.0,0.0,0.0,0.0,0.0,0.0,0.0,0.0,0.0,0.0,0.0,0.0,0.0,0.0,0.0,0.0,0.0,0.0,0.0,0.0,0.0,0.0,0.0,0.0,0.0,0.0,0.0,0.0,0.0,0.0,0.0,0.0,0.0,0.0,0.0,0.0,0.0,0.0,0.0,0.0,0.0,0.0,0.0,0.0,0.0,0.0,0.0,0.0,0.0,0.0,0.0,0.0,0.0,0.0,0.0,0.0,0.0,0.0,0.0,0.0,0.0,0.0,0.0,0.0,0.0,0.0,0.0,0.0,0.0,1.0285,0.0,1.1588,0.0,1.1164,1.0059,0.0,0.0,0.0,0.0,0.0,0.0,0.0,0.0,0.0,0.0,0.0,0.0,0.0,0.0,0.0,0.0,0.0,0.0,0.0,0.0,0.0,0.0,0.0,0.0,0.0,0.0,0.0,0.0,0.0,0.0,0.0,0.0,0.0,0.0,0.0,0.0,0.0,0.0,0.0,0.0,0.0,0.0,0.0,0.0,0.0,0.0,0.0,0.0,0.0,0.0,0.0,0.0,0.0,0.0,0.0,0.0,0.0,0.0,0.0,0.0,0.0,0.0,0.0,0.0,0.0,0.0,0.0,0.0,0.0,0.0,0.0,0.0,0.0,0.0,0.0,0.0,0.0,0.0,0.0,0.0,0.0,0.0,0.0,0.0,0.0,0.0,0.0,0.0,0.0,0.0,0.0,0.0,0.0,0.0,0.0,0.0,0.0,0.0,0.0,0.0,0.0,0.0,0.0,0.0,0.0,0.0,0.0,0.0,1.021,1.1402,1.1892,1.1841,1.1254,1.1006,0.9606,0.0,0.0,0.0,0.0,0.0,0.0,0.0,0.0,0.0,0.0,0.0,0.0,0.0,0.0,0.0,0.0,0.0,0.0,0.0,0.0,0.0,0.0,0.0,0.0,0.0,0.0,0.0,0.0,0.0,0.0,0.0,0.0,0.0,0.0,0.0,0.0,0.0,0.0,0.0,0.0,0.0,0.0,0.0,0.0,0.0,0.0,0.0,0.0,0.0,0.0,0.0,0.0,0.0,0.0,0.0,0.0,0.0,0.0,0.0,0.0,0.0,0.0,0.0,0.0,0.0,0.0,0.0,0.0,0.0,0.0,0.0,0.0,0.0,0.0,0.0,0.0,0.0,0.0,0.0,0.0,0.0,0.0,0.0,0.0,0.0,0.0,0.0,0.0,0.0,0.0,0.0,0.0,0.0,0.0,0.0,0.0,0.0,0.0,0.0,0.0,0.0,0.0,0.0,0.0,0.0,0.0,0.0,0.0,0.0,1.0473,1.1148,1.1829,1.2418,1.1046,1.0038,0.0,0.0,0.0,0.0,0.0,0.0,0.0,0.0,0.0,0.0,0.0,0.0,0.0,0.0,0.0,0.0,0.0,0.0,0.0,0.0,0.0,0.0,0.0,0.0,0.0,0.0,0.0,0.0,0.0,0.0,0.0,0.0,0.0,0.0,0.0,0.0,0.0,0.0,0.0,0.0,0.0,0.0,0.0,0.0,0.0,0.0,0.0,0.0,0.0,0.0,0.0,0.0,0.0,0.0,0.0,0.0,0.0,0.0,0.0,0.0,0.0,0.0,0.0,0.0,0.0,0.0,0.0,0.0,0.0,0.0,0.0,0.0,0.0,0.0,0.0,0.0,0.0,0.0,0.0,0.0,0.0,0.0,0.0,0.0,0.0,0.0,0.0,0.0,0.0,0.0,0.0,0.0,0.0,0.0,0.0,0.0,0.0,0.0,0.0,0.0,0.0,0.0,0.0,0.0,0.0,0.0,0.0,0.0,0.0,1.1265,1.1757,1.2275,1.2834,1.1318,1.0336,0.9892,0.0,0.0,0.0,0.0,0.0,0.0,0.0,0.0,0.0,0.0,0.0,0.0,0.0,0.0,0.0,0.0,0.0,0.0,0.0,0.0,0.0,0.0,0.0,0.0,0.0,0.0,0.0,0.0,0.0,0.0,0.0,0.0,0.0,0.0,0.0,0.0,0.0,0.0,0.0,0.0,0.0,0.0,0.0,0.0,0.0,0.0,0.0,0.0,0.0,0.0,0.0,0.0,0.0,0.0,0.0,0.0,0.0,0.0,0.0,0.0,0.0,0.0,0.0,0.0,0.0,0.0,0.0,0.0,0.0,0.0,0.0,0.0,0.0,0.0,0.0,0.0,0.0,0.0,0.0,0.0,0.0,0.0,0.0,0.0,0.0,0.0,0.0,0.0,0.0,0.0,0.0,0.0,0.0,0.0,0.0,0.0,0.0,0.0,0.0,0.0,0.0,0.0,0.0,0.0,0.0,0.0,0.0,0.0,1.3318,1.348,1.3277,1.2707,1.1868,1.0541,0.0,0.0,0.0,0.0,0.0,0.0,0.0,0.0,0.0,0.0,0.0,0.0,0.0,0.0,0.0,0.0,0.0,0.0,0.0,0.0,0.0,0.0,0.0,0.0,0.0,0.0,0.0,0.0,0.0,0.0,0.0,0.0,0.0,0.0,0.0,0.0,0.0,0.0,0.0,0.0,0.0,0.0,0.0,0.0,0.0,0.0,0.0,0.0,0.0,0.0,0.0,0.0,0.0,0.0,0.0,0.0,0.0,0.0,0.0,0.0,0.0,0.0,0.0,0.0,0.0,0.0,0.0,0.0,0.0,0.0,0.0,0.0,0.0,0.0,0.0,0.0,0.0,0.0,0.0,0.0,0.0,0.0,0.0,0.0,0.0,0.0,0.0,0.0,0.0,0.0,0.0,0.0,0.0,0.0,0.0,0.0,0.0,0.0,0.0,0.0,0.0,0.0,0.0,0.0,0.0,0.0,0.0,0.0,0.0,1.2811,1.4455,1.5363,1.543,1.2979,1.1585,0.0,0.0,0.0,0.0,0.0,0.0,0.0,0.0,0.0,0.0,0.0,0.0,0.0,0.0,0.0,0.0,0.0,0.0,0.0,0.0,0.0,0.0,0.0,0.0,0.0,0.0,0.0,0.0,0.0,0.0,0.0,0.0,0.0,0.0,0.0,0.0,0.0,0.0,0.0,0.0,0.0,0.0,0.0,0.0,0.0,0.0,0.0,0.0,0.0,0.0,0.0,0.0,0.0,0.0,0.0,0.0,0.0,0.0,0.0,0.0,0.0,0.0,0.0,0.0,0.0,0.0,0.0,0.0,0.0,0.0,0.0,0.0,0.0,0.0,0.0,0.0,0.0,0.0,0.0,0.0,0.0,0.0,0.0,0.0,0.0,0.0,0.0,0.0,0.0,0.0,0.0,0.0,0.0,0.0,0.0,0.0,0.0,0.0,0.0,0.0,0.0,0.0,0.0,0.0,0.0,0.0,0.0,0.0,1.2169,1.4079,1.5691,1.6661,1.6876,1.4506,1.2815,0.0,0.0,0.0,0.0,0.0,0.0,0.0,0.0,0.0,0.0,0.0,0.0,0.0,0.0,0.0,0.0,0.0,0.0,0.0,0.0,0.0,0.0,0.0,0.0,0.0,0.0,0.0,0.0,0.0,0.0,0.0,0.0,0.0,0.0,0.0,0.0,0.0,0.0,0.0,0.0,0.0,0.0,0.0,0.0,0.0,0.0,0.0,0.0,0.0,0.0,0.0,0.0,0.0,0.0,0.0,0.0,0.0,0.0,0.0,0.0,0.0,0.0,0.0,0.0,0.0,0.0,0.0,0.0,0.0,0.0,0.0,0.0,0.0,0.0,0.0,0.0,0.0,0.0,0.0,0.0,0.0,0.0,0.0,0.0,0.0,0.0,0.0,0.0,0.0,0.0,0.0,0.0,0.0,0.0,0.0,0.0,0.0,0.0,0.0,0.0,0.0,0.0,0.0,0.0,0.0,0.0,0.0,0.0,1.3332,1.592,1.6866,1.7309,1.7233,1.596,1.3971,0.0,0.0,0.0,0.0,0.0,0.0,0.0,0.0,0.0,0.0,0.0,0.0,0.0,0.0,0.0,0.0,0.0,0.0,0.0,0.0,0.0,0.0,0.0,0.0,0.0,0.0,0.0,0.0,0.0,0.0,0.0,0.0,0.0,0.0,0.0,0.0,0.0,0.0,0.0,0.0,0.0,0.0,0.0,0.0,0.0,0.0,0.0,0.0,0.0,0.0,0.0,0.0,0.0,0.0,0.0,0.0,0.0,0.0,0.0,0.0,0.0,0.0,0.0,0.0,0.0,0.0,0.0,0.0,0.0,0.0,0.0,0.0,0.0,0.0,0.0,0.0,0.0,0.0,0.0,0.0,0.0,0.0,0.0,0.0,0.0,0.0,0.0,0.0,0.0,0.0,0.0,0.0,0.0,0.0,0.0,0.0,0.0,0.0,0.0,0.0,0.0,0.0,0.0,0.0,0.0,0.0,0.0,0.0,1.3115,1.4611,1.6471,1.7341,1.7135,1.5696,1.394,0.0,0.0,0.0,0.0,0.0,0.0,0.0,0.0,0.0,0.0,0.0,0.0,0.0,0.0,0.0,0.0,0.0,0.0,0.0,0.0,0.0,0.0,0.0,0.0,0.0,0.0,0.0,0.0,0.0,0.0,0.0,0.0,0.0,0.0,0.0,0.0,0.0,0.0,0.0,0.0,0.0,0.0,0.0,0.0,0.0,0.0,0.0,0.0,0.2185,0.0,0.0,0.0,0.0,0.0,0.0,0.0,0.0,0.0,0.0,0.0,0.0,0.0,0.0,0.0,0.0,0.0,0.0,0.0,0.0,0.0,0.0,0.0,0.0,0.0,0.0,0.0,0.0,0.0,0.0,0.0,0.0,0.0,0.0,0.0,0.0,0.0,0.0,0.0,0.0,0.0,0.0,0.0,0.0,0.0,0.0,0.0,0.0,0.0,0.0,0.0,0.0,0.0,0.0,0.0,0.0,0.0,0.0,0.0,1.3348,1.4899,1.6594,1.7249,1.6678,1.5975,1.4499,0.0,0.0,0.0,0.0,0.0,0.0,0.0,0.0,0.0,0.0,0.0,0.0,0.0,0.0,0.0,0.0,0.0,0.0,0.0,0.0,0.0,0.0,0.0,0.0,0.0,0.0,0.0,0.0,0.0,0.0,0.0,0.0,0.0,0.0,0.0,0.0,0.0,0.0,0.0,0.0,0.0,0.0,0.0,0.0,0.0,0.0,0.0,0.0,0.0,0.0,0.0,0.0,0.0,0.0,0.0,0.0,0.0,0.0,0.0,0.0,0.0,0.0,0.0,0.0,0.0,0.0,0.0,0.0,0.0,0.0,0.0,0.0,0.0,0.0,0.0,0.0,0.0,0.0,0.0,0.0,0.0,0.0,0.0,0.0,0.0,0.0,0.0,0.0,0.0,0.0,0.0,0.0,0.0,0.0,0.0,0.0,0.0,0.0,0.0,0.0,0.0,0.0,0.0,0.0,0.0,0.0,0.0,1.1979,1.3657,1.5595,1.6831,1.7056,1.6277,1.634,1.5069,1.2285,0.0,0.0,0.0,0.0,0.0,0.0,0.0,0.0,0.0,0.0,0.0,0.0,0.0,0.0,0.0,0.0,0.0,0.0,0.0,0.0,0.0,0.0,0.0,0.0,0.0,0.0,0.0,0.0,0.0,0.0,0.0,0.0,0.0,0.0,0.0,0.0,0.0,0.0,0.2935,0.326,0.0,0.0,0.0,0.0,0.0,0.0,0.0,0.0,0.234,0.0,0.0,0.0,0.0,0.0,0.0,0.0,0.0,0.0,0.0,0.0,0.0,0.0,0.0,0.0,0.0,0.0,0.0,0.0,0.0,0.0,0.0,0.0,0.0,0.0,0.0,0.0,0.0,0.0,0.0,0.0,0.0,0.0,0.0,0.0,0.0,0.0,0.0,0.0,0.0,0.0,0.0,0.0,0.0,0.0,0.0,0.0,0.0,0.0,0.0,0.0,0.0,0.0,0.0,0.0,0.0,1.1517,1.2329,1.3598,1.5404,1.6631,1.6984,1.6459,1.6159,1.462,1.1843,0.0,0.0,0.0,0.0,0.0,0.0,0.0,0.0,0.0,0.0,0.0,0.0,0.0,0.0,0.0,0.0,0.0,0.0,0.0,0.0,0.0,0.0,0.0,0.0,0.0,0.0,0.0,0.0,0.0,0.0,0.0,0.0,0.0,0.0,0.0,0.0,0.0,0.0,0.0,0.3509,0.3676,0.0,0.0,0.0,0.0,0.0,0.0,0.0,0.0,0.1927,0.0,0.0,0.0,0.0,0.0,0.0,0.0,0.0,0.0,0.0,0.0,0.0,0.0,0.0,0.0,0.0,0.0,0.0,0.0,0.0,0.0,0.0,0.0,0.0,0.0,0.0,0.0,0.0,0.0,0.0,0.0,0.0,0.0,0.0,0.0,0.0,0.0,0.0,0.0,0.0,0.0,0.0,0.0,0.0,0.0,0.0,0.0,0.0,0.0,0.0,0.0,0.0,0.0,0.0,0.0,1.0439,1.198,1.3365,1.4594,1.5701,1.5956,1.5313,1.4686,1.3144,0.0,0.0,0.0,0.0,0.0,0.0,0.0,0.0,0.0,0.0,0.0,0.0,0.0,0.0,0.0,0.0,0.0,0.0,0.0,0.0,0.0,0.0,0.0,0.0,0.0,0.0,0.0,0.0,0.0,0.0,0.0,0.0,0.0,0.0,0.0,0.0,0.0,0.0,0.0,0.0,0.3636,0.3727,0.3313,0.0,0.0,0.0,0.0,0.0,0.0,0.1813,0.1696,0.0,0.0,0.0,0.0,0.0,0.0,0.0,0.0,0.0,0.0,0.0,0.0,0.0,0.0,0.0,0.0,0.0,0.0,0.0,0.0,0.0,0.0,0.0,0.0,0.0,0.0,0.0,0.0,0.0,0.0,0.0,0.0,0.0,0.0,0.0,0.0,0.0,0.0,0.0,0.0,0.0,0.0,0.0,0.0,0.0,0.0,0.0,0.0,0.0,0.0,0.0,0.0,0.0,0.0,0.0,0.9208,1.1448,1.3025,1.3852,1.4861,1.4983,1.4155,1.3383,1.1944,0.0,0.0,0.0,0.0,0.0,0.0,0.0,0.0,0.0,0.0,0.0,0.0,0.0,0.0,0.0,0.0,0.0,0.0,0.0,0.0,0.0,0.0,0.0,0.0,0.0,0.0,0.0,0.0,0.0,0.0,0.0,0.0,0.0,0.0,0.0,0.0,0.0,0.0,0.0,0.0,0.0,0.3802,0.3536,0.3368,0.0,0.0,0.0,0.0,0.1807,0.1789,0.0,0.0,0.0,0.0,0.0,0.0,0.0,0.0,0.0,0.0,0.0,0.0,0.0,0.0,0.0,0.0,0.0,0.0,0.0,0.0,0.0,0.0,0.0,0.0,0.0,0.0,0.0,0.0,0.0,0.0,0.0,0.0,0.0,0.0,0.0,0.0,0.0,0.0,0.0,0.0,0.0,0.0,0.0,0.0,0.0,0.0,0.0,0.0,0.0,0.0,0.0,0.0,0.0,0.0,0.0,0.0,0.9058,1.0998,1.2544,1.3696,1.4775,1.4875,1.3967,1.3552,1.209,0.0,0.0,0.0,0.0,0.0,0.0,0.0,0.0,0.0,0.0,0.0,0.0,0.0,0.0,0.0,0.0,0.0,0.0,0.0,0.0,0.0,0.0,0.0,0.0,0.0,0.0,0.0,0.0,0.0,0.0,0.0,0.0,0.0,0.0,0.0,0.0,0.0,0.0,0.0,0.0,0.0,0.4077,0.3569,0.3099,0.2738,0.0,0.0,0.2299,0.2443,0.2427,0.0,0.0,0.0,0.0,0.0,0.0,0.0,0.0,0.0,0.0,0.0,0.0,0.0,0.0,0.0,0.0,0.0,0.0,0.0,0.0,0.0,0.0,0.0,0.0,0.0,0.0,0.0,0.0,0.0,0.0,0.0,0.0,0.0,0.0,0.0,0.0,0.0,0.0,0.0,0.0,0.0,0.0,0.0,0.0,0.0,0.0,0.0,0.0,0.0,0.0,0.0,0.0,0.0,0.0,0.0,0.808,0.8609,1.0909,1.2362,1.2899,1.3663,1.3729,1.3055,1.1987,1.0577,0.0,0.0,0.0,0.0,0.0,0.0,0.0,0.0,0.0,0.0,0.0,0.0,0.0,0.0,0.0,0.0,0.0,0.0,0.0,0.0,0.0,0.0,0.0,0.0,0.0,0.0,0.0,0.0,0.0,0.0,0.0,0.0,0.0,0.0,0.0,0.0,0.0,0.0,0.0,0.0,0.0,0.0,0.3415,0.3555,0.0,0.0,0.0,0.2715,0.2414,0.0,0.0,0.0,0.0,0.0,0.0,0.0,0.0,0.0,0.0,0.0,0.0,0.0,0.0,0.0,0.0,0.0,0.0,0.0,0.0,0.0,0.0,0.0,0.0,0.0,0.0,0.0,0.0,0.0,0.0,0.0,0.0,0.0,0.0,0.0,0.0,0.0,0.0,0.0,0.0,0.0,0.0,0.0,0.0,0.0,0.0,0.0,0.0,0.0,0.0,0.0,0.0,0.0,0.0,0.0,0.0,0.0,0.8174,1.0887,1.2297,1.2318,1.2799,1.2832,1.2372,1.0827,0.0,0.0,0.0,0.0,0.0,0.0,0.0,0.0,0.0,0.0,0.0,0.0,0.0,0.0,0.0,0.0,0.0,0.0,0.0,0.0,0.0,0.0,0.0,0.0,0.0,0.0,0.0,0.2633,0.0,0.0,0.0,0.0,0.0,0.0,0.0,0.0,0.0,0.0,0.0,0.0,0.0,0.0,0.3548,0.3527,0.3932,0.3998,0.0,0.0,0.2985,0.2418,0.2433,0.2334,0.0,0.0,0.0,0.0,0.0,0.0,0.0,0.0,0.0,0.0,0.0,0.0,0.0,0.0,0.0,0.0,0.0,0.0,0.0,0.0,0.0,0.0,0.0,0.0,0.0,0.0,0.0,0.0,0.0,0.0,0.0,0.0,0.0,0.0,0.0,0.0,0.0,0.0,0.0,0.0,0.0,0.0,0.0,0.0,0.0,0.0,0.0,0.0,0.0,0.0,0.0,0.0,0.0,0.0,0.0,0.8028,1.0802,1.2297,1.2318,1.271,1.2721,1.2297,1.0984,0.9651,0.0,0.0,0.0,0.0,0.0,0.0,0.0,0.0,0.0,0.0,0.0,0.0,0.0,0.0,0.0,0.0,0.0,0.0,0.0,0.0,0.0,0.0,0.0,0.0,0.0,0.0,0.0,0.0,0.0,0.0,0.0,0.0,0.0,0.0,0.0,0.0,0.0,0.0,0.0,0.0,0.0,0.4005,0.4125,0.3968,0.3728,0.0,0.0,0.2784,0.268,0.2936,0.2779,0.1691,0.0,0.0,0.0,0.0,0.0,0.0,0.0,0.0,0.0,0.0,0.0,0.0,0.0,0.0,0.0,0.0,0.0,0.0,0.0,0.0,0.0,0.0,0.0,0.0,0.0,0.0,0.0,0.0,0.0,0.0,0.0,0.0,0.0,0.0,0.0,0.0,0.0,0.0,0.0,0.0,0.0,0.0,0.0,0.0,0.0,0.0,0.0,0.0,0.0,0.0,0.0,0.0,0.0,0.795,0.7874,1.0449,1.1767,1.173,1.1645,1.152,1.1378,1.0186,0.9073,0.0,0.0,0.0,0.0,0.0,0.0,0.0,0.0,0.0,0.0,0.0,0.0,0.0,0.0,0.0,0.0,0.0,0.0,0.0,0.0,0.0,0.0,0.0,0.0,0.0,0.0,0.0,0.0,0.3208,0.3069,0.2808,0.0,0.0,0.0,0.0,0.0,0.0,0.0,0.0,0.0,0.0,0.3772,0.3819,0.4029,0.0,0.0,0.3381,0.3006,0.2744,0.2839,0.2597,0.1606,0.1696,0.0,0.0,0.0,0.0,0.0,0.0,0.0,0.0,0.0,0.0,0.0,0.0,0.0,0.0,0.0,0.0,0.0,0.0,0.0,0.0,0.0,0.0,0.0,0.0,0.0,0.0,0.0,0.0,0.0,0.0,0.0,0.0,0.0,0.0,0.0,0.0,0.0,0.0,0.0,0.0,0.0,0.0,0.0,0.0,0.0,0.0,0.0,0.0,0.0,0.0,0.0,0.0,0.7679,0.7696,1.0051,1.1341,1.1382,1.1132,1.0912,1.0777,0.9773,0.883,0.0,0.0,0.0,0.0,0.0,0.0,0.0,0.0,0.0,0.0,0.0,0.0,0.0,0.0,0.0,0.0,0.0,0.0,0.0,0.0,0.0,0.0,0.0,0.0,0.0,0.0,0.0,0.0,0.3142,0.2919,0.2676,0.0,0.0,0.0,0.0,0.0,0.0,0.0,0.0,0.0,0.0,0.3822,0.3843,0.418,0.4224,0.369,0.3316,0.2942,0.2451,0.2415,0.2145,0.1299,0.0,0.0,0.0,0.0,0.0,0.0,0.0,0.0,0.0,0.0,0.0,0.0,0.0,0.0,0.0,0.0,0.0,0.0,0.0,0.0,0.0,0.0,0.0,0.0,0.0,0.0,0.0,0.0,0.0,0.0,0.5049,0.0,0.0,0.0,0.0,0.0,0.0,0.0,0.0,0.0,0.0,0.0,0.0,0.0,0.0,0.0,0.0,0.0,0.0,0.0,0.0,0.0,0.0,0.7282,0.7443,0.9649,1.0983,1.1379,1.137,1.1158,1.0771,0.9946,0.911,0.8288,0.0,0.0,0.0,0.0,0.0,0.0,0.0,0.0,0.0,0.0,0.0,0.0,0.0,0.0,0.0,0.0,0.0,0.0,0.0,0.0,0.0,0.0,0.0,0.0,0.0,0.0,0.342,0.2939,0.2579,0.0,0.0,0.0,0.0,0.0,0.0,0.0,0.0,0.0,0.0,0.3981,0.4314,0.4369,0.4429,0.4116,0.3095,0.2829,0.2481,0.1765,0.1662,0.1395,0.0,0.0,0.0,0.0,0.0,0.0,0.0,0.0,0.0,0.0,0.0,0.0,0.0,0.0,0.0,0.0,0.0,0.0,0.0,0.0,0.0,0.0,0.0,0.0,0.0,0.0,0.0,0.7045,0.6276,0.0,0.0,0.0,0.0,0.0,0.0,0.0,0.0,0.0,0.0,0.0,0.8895,0.9526,0.0,0.0,0.0,0.0,0.0,0.0,0.0,0.0,0.0,0.0,0.0,0.0,0.7216,0.7729,0.9367,1.0428,1.0781,1.0551,1.0223,0.9879,0.9357,0.8691,0.7787,0.0,0.0,0.0,0.0,0.0,0.0,0.0,0.0,0.0,0.0,0.0,0.0,0.0,0.0,0.0,0.0,0.0,0.0,0.0,0.0,0.0,0.0,0.0,0.0,0.0,0.3718,0.0,0.0,0.0,0.0,0.0,0.0,0.0,0.0,0.0,0.0,0.0,0.3351,0.381,0.4009,0.4115,0.4138,0.4086,0.3866,0.0,0.0,0.0,0.0,0.0,0.0,0.0,0.0,0.0,0.0,0.0,0.0,0.0,0.0,-0.0601,-0.0376,-0.0773,-0.1247,-0.1571,0.0,0.0,0.0,0.0,0.0,0.0,0.0,0.0,0.0,0.0,0.0,0.0,0.0,0.0,0.7826,0.0,0.6945,0.0,0.0,0.0,0.0,0.0,0.0,0.0,0.0,0.9375,0.9922,0.973,1.0357,1.0236,0.0,0.9412,0.8511,0.0,0.0,0.0,0.0,0.0,0.0,0.0,0.0,0.7371,0.8025,0.9283,1.0144,1.0469,1.0252,0.9938,0.9588,0.9124,0.8555,0.7835,0.7058,0.6354,0.0,0.0,0.0,0.0,0.0,0.0,0.0,0.0,0.0,0.0,0.0,0.0,0.0,0.0,0.0,0.0,0.0,0.0,0.0,0.0,0.0,0.0,0.0,0.3448,0.0,0.0,0.0,0.0,0.0,0.0,0.0,0.0,0.0,0.2737,0.3098,0.3482,0.376,0.366,0.3555,0.3564,0.0,0.0,0.0,0.0,0.0,0.0,0.0,0.1268,0.0187,0.0264,0.0351,0.005,0.0,-0.0064,-0.027,0.0,0.0,-0.0627,-0.1198,-0.1773,-0.1999,-0.2518,-0.2959,-0.3069,-0.3147,-0.3236,0.0,0.0,0.0,0.0,0.0,0.0,0.0,0.0,0.8273,0.8103,0.0,0.7767,0.0,0.0,0.0,0.0,0.0,0.8539,0.0,0.0,1.1085,1.1765,1.1369,1.1282,1.1058,1.0689,1.0519,0.9779,0.8472,0.7613,0.0,0.0,0.0,0.0,0.0,0.0,0.7699,0.8433,0.9394,1.0085,1.048,1.0488,1.03,0.9878,0.9232,0.8738,0.8391,0.769,0.6998,0.6355,0.5257,0.0,0.0,0.0,0.0,0.0,0.0,0.0,0.0,0.0,0.0,0.0,0.0,0.0,0.0,0.0,0.0,0.0,0.0,0.0,0.0,0.335,0.0,0.0,0.0,0.0,0.0,0.0,0.0,0.0,0.0,0.0,0.3271,0.3274,0.3305,0.3374,0.0,0.0,0.0,0.0,0.2018,0.1461,0.1125,0.0765,0.0162,0.0069,0.007,0.0013,0.0,0.0,0.0,0.0,-0.0236,-0.0781,-0.0966,-0.0957,-0.0982,-0.1714,-0.2319,-0.2467,-0.2774,-0.3092,-0.3341,-0.3402,-0.3459,1.2055,0.0,0.0,0.0,0.0,1.0525,1.0702,1.121,1.0896,1.0105,0.9055,0.8955,0.0,0.0,0.0,0.0,0.0,0.0,0.9626,1.0184,1.0953,1.124,1.111,1.1091,1.09,1.0559,1.0529,1.0289,0.9875,0.9351,0.8145,0.6347,0.0,0.0,0.0,0.0,0.8415,0.9088,0.9632,1.0043,1.0347,1.0355,1.0106,0.9633,0.9054,0.866,0.8473,0.7806,0.7233,0.6814,0.5998,0.0,0.0,0.0,0.0,0.0,0.0,0.0,0.0,0.0,0.0,0.0,0.0,0.0,0.0,0.0,0.0,0.0,0.0,0.0,0.3818,0.3371,0.319,0.0,0.0,0.0,0.0,0.0,0.0,0.0,0.0,0.0,0.358,0.3123,0.2879,0.0,0.0,0.2671,0.2561,0.2358,0.2145,0.2034,0.1876,0.0,0.0,0.085,0.0673,0.0104,0.0,0.0,0.0,-0.0432,-0.0836,-0.1036,-0.1803,-0.2398,-0.2405,-0.2489,-0.2594,-0.2675,-0.3064,-0.3423,-0.3526,-0.3545,-0.3583,1.3169,1.2645,1.1818,1.1521,1.1562,1.1169,1.1251,1.1678,1.142,1.0775,0.9959,1.0014,0.9404,0.8364,0.829,0.0,0.0,0.0,1.0335,1.0897,1.1103,1.1207,1.1193,1.1193,1.1096,1.0894,1.0601,1.0467,1.0465,0.9906,0.8776,0.7121,0.0,0.0,0.7425,0.8178,0.8692,0.8947,0.9296,0.9467,0.9516,0.9725,0.9708,0.9399,0.8859,0.8543,0.8449,0.7829,0.7216,0.6711,0.6257,0.5522,0.0,0.0,0.0,0.0,0.0,0.0,0.0,0.0,0.0,0.0,0.0,0.296,0.2471,0.0,0.0,0.0,0.3607,0.3798,0.3912,0.3774,0.0,0.0,0.0,0.0,0.0,0.0,0.0,0.4318,0.4438,0.4287,0.3704,0.2884,0.2357,0.237,0.2188,0.1984,0.1918,0.0,0.1657,0.1708,0.1573,0.1326,0.0909,0.0848,0.0554,-0.0308,-0.0284,-0.0384,-0.0794,-0.1112,-0.1405,-0.1765,-0.2414,-0.3,-0.3234,-0.3221,-0.3179,-0.3194,-0.3459,-0.371,-0.371,-0.371,-0.3724,1.3579,1.3851,1.2544,1.1693,1.1183,1.0878,1.0751,1.0743,1.0772,1.0669,1.0595,1.0891,1.0532,0.9668,0.9655,0.0,1.09,1.0879,1.1066,1.1403,1.1434,1.1412,1.1389,1.1392,1.1398,1.1352,1.0702,1.0346,1.0276,0.9574,0.8891,0.8268,0.867,0.8684,0.8338,0.8641,0.8678,0.8358,0.8644,0.8639,0.8317,0.883,0.9119,0.9086,0.859,0.8308,0.8264,0.7642,0.6973,0.6252,0.6187,0.5728,0.4752,0.0,0.0,0.0,0.0,0.0,0.0,0.0,0.0,0.0,0.0,0.0,0.0,0.0,0.0,0.0,0.3857,0.0,0.4175,0.4439,0.0,0.0,0.0,0.4271,0.4494,0.4783,0.5016,0.5165,0.0,0.0,0.3623,0.2608,0.1891,0.1843,0.1372,0.1018,0.1013,0.093,0.079,0.0889,0.067,0.0513,0.0454,0.0328,-0.0016,-0.0796,-0.0792,-0.0963,-0.1774,-0.1906,-0.2029,-0.2653,-0.2882,-0.3089,-0.365,-0.3835,-0.3948,-0.3904,-0.3908,-0.3895,-0.3902,-0.3884,-0.3894,1.2856,1.2906,1.2272,1.2384,1.2957,1.2893,1.2853,1.2853,1.2853,1.2233,1.1204,1.1272,1.0572,0.9329,0.9316,0.9579,0.9996,1.0002,1.021,1.0573,1.0748,1.0675,1.0458,1.0638,1.0609,1.0351,1.0187,0.9952,0.971,0.9514,0.914,0.861,0.8699,0.8571,0.8252,0.882,0.8971,0.8684,0.8751,0.858,0.8164,0.829,0.8309,0.8217,0.7777,0.7516,0.7414,0.6865,0.6476,0.6276,0.6088,0.5663,0.4953,0.4355,0.0,0.0,0.0,0.0,0.0,0.0,0.0,0.0,0.0,0.3851,0.2798,0.0,0.4381,0.0,0.44,0.4624,0.4775,0.471,0.0,0.0,0.4538,0.428,0.4664,0.4235,0.3941,0.413,0.4067,0.3708,0.3017,0.2819,0.2395,0.158,0.1332,0.1167,0.1017,0.0899,0.0869,0.0967,0.0856,0.0727,0.0626,0.0099,-0.0379,-0.0609,-0.1036,-0.1479,-0.1889,-0.2372,-0.2786,-0.3078,-0.3584,-0.3951,-0.4112,-0.4181,-0.4208,-0.42,-0.4051,-0.3903,-0.3903,-0.3905,-0.3921,1.3011,1.2927,1.253,1.2579,1.292,1.2907,1.2743,1.2544,1.2683,1.2144,1.1129,1.1087,1.0786,1.034,1.0003,1.0027,1.0275,1.0142,1.0172,1.0308,1.0405,1.0362,1.02,1.0288,1.0216,1.0038,0.9684,0.9411,0.9218,0.8885,0.8562,0.8267,0.8267,0.813,0.7888,0.8306,0.8316,0.7858,0.7737,0.753,0.727,0.7511,0.7573,0.7405,0.7202,0.6946,0.666,0.6321,0.5989,0.5622,0.5628,0.5353,0.476,0.4365,0.3982,0.0,0.0,0.0,0.0,0.0,0.0,0.0,0.0,0.0,0.0,0.0,0.4672,0.4545,0.4793,0.5072,0.5369,0.5469,0.5617,0.5904,0.5467,0.506,0.4897,0.4479,0.4132,0.3924,0.3743,0.3468,0.2999,0.2762,0.2386,0.1664,0.1476,0.1347,0.1102,0.0986,0.0975,0.1073,0.1009,0.0758,0.0387,-0.0101,-0.0655,-0.1344,-0.1696,-0.2031,-0.2633,-0.2932,-0.3132,-0.3322,-0.3677,-0.3949,-0.3949,-0.403,-0.4164,-0.4544,-0.4546,-0.4359,-0.4144,-0.4316,-0.4532,1.3513,1.3332,1.2902,1.2444,1.2018,1.1987,1.1745,1.1335,1.1623,1.1396,1.0774,1.0568,1.0853,1.1445,1.0843,1.0649,1.0787,1.0573,1.0372,1.0196,1.0155,1.0119,1.009,0.9948,0.9861,0.9793,0.9135,0.8786,0.8724,0.8083,0.7691,0.7644,0.7629,0.7519,0.7337,0.7466,0.7268,0.6693,0.6359,0.6187,0.6205,0.6712,0.6903,0.6726,0.667,0.6469,0.605,0.5961,0.5564,0.4845,0.5132,0.5086,0.4552,0.4257,0.413,0.0,0.3905,0.0,0.0,0.0,0.0,0.0,0.0,0.0,0.0,0.4808,0.4845,0.4845,0.5214,0.5604,0.5983,0.6341,0.6556,0.6596,0.6406,0.594,0.5054,0.4892,0.458,0.3854,0.3349,0.3084,0.3015,0.2537,0.2136,0.1901,0.1747,0.1525,0.1226,0.1124,0.109,0.1092,0.1008,0.0605,-0.005,-0.0403,-0.1075,-0.2266,-0.2453,-0.2674,-0.3525,-0.3453,-0.3305,-0.3477,-0.3531,-0.3548,-0.3531,-0.3792,-0.4223,-0.4858,-0.5074,-0.5064,-0.4803,-0.5058,-0.5408,1.3461,1.3187,1.2582,1.1998,1.1558,1.1874,1.1976,1.1943,1.2,1.1564,1.0751,1.0044,0.9784,0.9914,0.98,0.9745,0.9782,0.9733,0.9677,0.9653,0.9426,0.922,0.9008,0.8765,0.8539,0.831,0.8314,0.8182,0.7923,0.7932,0.7722,0.7314,0.7283,0.7161,0.6923,0.0,0.0,0.0,0.6377,0.6187,0.6187,0.6296,0.6344,0.6296,0.5993,0.0,0.57,0.5523,0.5353,0.5206,0.5405,0.0,0.0,0.0,0.0,0.0,0.0,0.0,0.0,0.0,0.0,0.0,0.5013,0.4971,0.4964,0.5382,0.5675,0.5697,0.604,0.637,0.6619,0.6698,0.669,0.6579,0.6091,0.5405,0.4531,0.3939,0.3292,0.2618,0.2445,0.2404,0.2392,0.227,0.2122,0.1957,0.1884,0.1748,0.1532,0.128,0.1109,0.1076,0.0622,0.0202,-0.0034,-0.1074,-0.1829,-0.2315,-0.2736,-0.311,-0.3445,-0.3546,-0.356,-0.3694,-0.3663,-0.3629,-0.3744,-0.4342,-0.4788,-0.4744,-0.5266,-0.5791,-0.5972,-0.6084,-0.6182,1.2479,0.0,1.1578,1.1049,0.0,1.0783,1.0818,1.0795,1.1408,1.1251,1.0545,1.024,1.0094,1.0094,1.0094,1.0021,0.9878,0.9554,0.9322,0.9193,0.8854,0.8623,0.8497,0.8127,0.7892,0.7735,0.7583,0.7491,0.746,0.7569,0.7522,0.7358,0.7337,0.7237,0.7002,0.6657,0.6487,0.644,0.6296,0.6187,0.6187,0.6187,0.614,0.6036,0.0,0.0,0.0,0.0,0.0,0.0,0.0,0.0,0.0,0.0,0.0,0.5131,0.5143,0.5106,0.501,0.5268,0.5481,0.5585,0.5796,0.5774,0.5467,0.5903,0.6205,0.6196,0.6478,0.6731,0.6964,0.7002,0.687,0.6542,0.6213,0.5551,0.4491,0.397,0.3406,0.2652,0.2487,0.245,0.2275,0.2244,0.2209,0.2121,0.2033,0.196,0.1834,0.1471,0.1092,0.0638,0.0286,-0.0269,-0.099,-0.1627,-0.2351,-0.2636,-0.2989,-0.3228,-0.3345,-0.3362,-0.3429,-0.351,-0.3727,-0.3944,-0.3942,-0.4486,-0.5037,-0.5299,-0.5679,-0.6235,-0.6748,-0.6671,-0.647,1.1602,1.1118,1.0754,1.0261,0.9762,0.9767,0.9648,0.9508,0.0,0.0,0.0,1.032,1.0474,1.0438,1.0456,1.0361,1.0125,0.9611,0.9254,0.9058,0.8629,0.8411,0.8335,0.7883,0.76,0.7508,0.7075,0.6959,0.7133,0.7191,0.7275,0.7443,0.7491,0.7384,0.718,0.6833,0.6511,0.6309,0.6256,0.6187,0.6187,0.6187,0.6134,0.5968,0.6087,0.5989,0.5679,0.5808,0.5738,0.5431,0.5453,0.5446,0.5401,0.5434,0.5519,0.5643,0.5841,0.5892,0.5724,0.6012,0.6144,0.6016,0.6304,0.6356,0.6025,0.6341,0.6572,0.661,0.6759,0.6993,0.7218,0.7258,0.7006,0.647,0.6428,0.5876,0.459,0.4341,0.3973,0.3155,0.2872,0.2736,0.2468,0.2366,0.2279,0.2279,0.2179,0.2061,0.1887,0.1371,0.0788,0.0189,-0.0309,-0.0939,-0.1875,-0.2374,-0.2642,-0.3118,-0.3237,-0.3238,-0.3264,-0.3231,-0.3202,-0.3275,-0.3823,-0.4125,-0.4078,-0.4645,-0.5256,-0.5901,-0.6188,-0.6473,-0.704,-0.6839,-0.6576,1.2046,1.1711,1.112,1.0534,1.0048,1.0034,0.9891,0.9657,0.9537,0.9323,0.9112,0.9384,0.9494,0.9506,0.9488,0.9564,0.9683,0.9614,0.9623,0.0,0.9221,0.8878,0.8625,0.8117,0.7644,0.7278,0.7177,0.7036,0.6886,0.7094,0.722,0.7267,0.7403,0.7389,0.7215,0.7128,0.6965,0.6722,0.6384,0.6187,0.6187,0.6187,0.6191,0.6144,0.6007,0.5917,0.5873,0.5897,0.5883,0.5818,0.597,0.6002,0.5853,0.5974,0.6003,0.5879,0.6054,0.6144,0.6129,0.6172,0.6252,0.6403,0.6483,0.6473,0.6431,0.6638,0.685,0.706,0.7123,0.7228,0.7434,0.7462,0.7172,0.6527,0.6483,0.6021,0.4651,0.4511,0.4273,0.3577,0.3168,0.2973,0.2852,0.2544,0.231,0.2303,0.2224,0.2029,0.139,0.0743,0.027,-0.018,-0.1224,-0.2033,-0.2415,-0.2932,-0.3265,-0.3445,-0.3399,-0.3378,-0.3437,-0.3398,-0.3357,-0.3366,-0.4024,-0.4305,-0.4163,-0.5221,-0.5867,-0.5955,-0.6415,-0.6916,-0.6784,-0.6552,-0.6717,1.0984,1.0841,1.0527,1.0267,1.0036,0.988,0.9701,0.9468,0.9194,0.9067,0.9019,0.9175,0.9188,0.9091,0.9227,0.9336,0.9426,0.9334,0.9327,0.9379,0.9057,0.882,0.8675,0.8217,0.7902,0.7683,0.7472,0.7304,0.7191,0.7199,0.7201,0.721,0.7301,0.7332,0.7362,0.7262,0.7147,0.7012,0.6591,0.6365,0.6351,0.6248,0.6187,0.6187,0.6106,0.6073,0.6068,0.6054,0.6059,0.6054,0.6149,0.6144,0.6069,0.614,0.6163,0.6082,0.6149,0.6187,0.6187,0.6304,0.6393,0.6501,0.6743,0.687,0.689,0.6945,0.7059,0.7196,0.7301,0.74,0.75,0.7593,0.7263,0.6335,0.6385,0.5958,0.4873,0.4649,0.446,0.3981,0.3567,0.325,0.307,0.2677,0.2393,0.2374,0.2183,0.1726,0.1214,0.0284,-0.0525,-0.1007,-0.182,-0.2511,-0.2896,-0.3243,-0.3481,-0.3517,-0.3485,-0.3467,-0.3552,-0.3716,-0.3997,-0.4064,-0.4912,-0.5545,-0.5276,-0.5992,-0.6456,-0.6524,-0.667,-0.6912,-0.6794,-0.685,-0.7103,1.0016,1.0016,1.0016,1.0016,0.998,0.9786,0.962,0.9445,0.9231,0.9145,0.9127,0.9064,0.8913,0.8742,0.8892,0.8962,0.8948,0.8804,0.873,0.8795,0.8687,0.8633,0.8609,0.8353,0.8216,0.8135,0.7807,0.7629,0.7562,0.7377,0.7237,0.719,0.7147,0.7223,0.7413,0.7286,0.7224,0.7228,0.6876,0.6615,0.6501,0.6351,0.6252,0.6191,0.62,0.6187,0.6187,0.6187,0.6187,0.6187,0.6187,0.6187,0.6187,0.6187,0.6187,0.6191,0.6234,0.629,0.6332,0.6473,0.6591,0.6662,0.6969,0.7209,0.7251,0.7272,0.7209,0.7137,0.7223,0.7301,0.7179,0.7315,0.703,0.61,0.6115,0.5796,0.4913,0.4753,0.4673,0.4388,0.4019,0.3666,0.3297,0.2904,0.2564,0.2248,0.1881,0.149,0.0923,-0.0157,-0.1059,-0.169,-0.2165,-0.2654,-0.3281,-0.338,-0.3439,-0.3524,-0.3538,-0.3634,-0.3807,-0.435,-0.4699,-0.4739,-0.5791,-0.6399,-0.6291,-0.664,-0.6927,-0.6922,-0.6996,-0.7033,-0.7003,-0.7119,-0.7364,1.0016,1.0016,1.0016,1.0016,0.999,0.9971,0.9937,0.9873,0.9656,0.945,0.9268,0.8736,0.8391,0.8152,0.8046,0.8001,0.7991,0.7932,0.803,0.8211,0.8367,0.8429,0.8458,0.8585,0.8548,0.8363,0.815,0.7951,0.778,0.7558,0.738,0.719,0.6959,0.6973,0.721,0.7199,0.727,0.7472,0.7247,0.6917,0.6539,0.6483,0.6389,0.6196,0.6191,0.6187,0.6191,0.6187,0.6187,0.6187,0.6187,0.6205,0.6205,0.6191,0.6191,0.6219,0.6379,0.6543,0.6722,0.6769,0.6883,0.7109,0.7161,0.7286,0.7432,0.7444,0.7253,0.6888,0.6869,0.6788,0.63,0.6355,0.6222,0.5661,0.5655,0.5424,0.4937,0.4898,0.4952,0.4957,0.4496,0.4161,0.3739,0.3256,0.2648,0.1861,0.1607,0.1118,0.0177,-0.049,-0.1116,-0.1731,-0.2216,-0.2603,-0.3027,-0.3156,-0.3332,-0.3641,-0.3665,-0.388,-0.4303,-0.4512,-0.4619,-0.5427,-0.5915,-0.6411,-0.6509,-0.6717,-0.7121,-0.7096,-0.7121,-0.7155,-0.7045,-0.7074,-0.7255,1.0162,1.0175,1.0047,1.0016,1.0016,1.0016,1.0016,1.0007,0.9883,0.9776,0.9679,0.9274,0.8802,0.8264,0.8069,0.793,0.7816,0.7811,0.7837,0.7936,0.8135,0.8278,0.8406,0.8477,0.8533,0.8557,0.8491,0.8344,0.8099,0.7719,0.7403,0.719,0.694,0.693,0.7146,0.7036,0.7078,0.732,0.7248,0.71,0.6923,0.6766,0.6576,0.6393,0.6365,0.6318,0.6214,0.6187,0.6187,0.6187,0.6187,0.6243,0.636,0.6365,0.6421,0.6543,0.6643,0.6712,0.6802,0.6945,0.7084,0.7201,0.7299,0.7424,0.7468,0.7292,0.6924,0.6507,0.6673,0.6699,0.6229,0.6331,0.6192,0.5676,0.567,0.5545,0.5002,0.4985,0.4998,0.4979,0.4643,0.4248,0.3802,0.3176,0.247,0.1705,0.1294,0.0628,-0.0196,-0.0785,-0.1197,-0.1471,-0.1688,-0.2159,-0.2865,-0.3119,-0.3315,-0.37,-0.4068,-0.4455,-0.4622,-0.5243,-0.5642,-0.6066,-0.6551,-0.6887,-0.7038,-0.7114,-0.7346,-0.7291,-0.7304,-0.735,-0.7314,-0.7287,-0.7451,1.038,1.0369,1.017,1.0073,1.0016,1.0016,1.0016,1.0016,1.0016,1.0016,0.998,0.979,0.9349,0.8736,0.8406,0.8131,0.7899,0.7823,0.7761,0.7738,0.7922,0.8102,0.8231,0.8363,0.8477,0.8609,0.8666,0.859,0.8359,0.7861,0.7468,0.7266,0.6953,0.692,0.7152,0.6987,0.702,0.7256,0.7275,0.7286,0.7251,0.7092,0.6849,0.6609,0.6576,0.6444,0.6183,0.6169,0.6174,0.6159,0.6033,0.6091,0.637,0.6253,0.6254,0.6434,0.6461,0.6502,0.6535,0.6735,0.6906,0.7046,0.7094,0.714,0.7229,0.6946,0.6496,0.6068,0.6314,0.631,0.5923,0.6018,0.5915,0.5509,0.5579,0.544,0.5051,0.4998,0.4998,0.4979,0.4759,0.4367,0.3802,0.302,0.2157,0.1412,0.0746,0.0138,-0.0452,-0.1002,-0.1317,-0.1317,-0.1317,-0.1749,-0.2689,-0.2904,-0.3159,-0.3745,-0.4248,-0.4693,-0.4915,-0.5706,-0.6447,-0.664,-0.7199,-0.7433,-0.7335,-0.7428,-0.7495,-0.7499,-0.7495,-0.7491,-0.7454,-0.7491,-0.7491,1.0584,1.0573,1.0366,1.0162,0.9999,1.0016,1.0016,1.0016,1.0016,1.0016,1.0016,0.998,0.9804,0.9475,0.8925,0.8458,0.8089,0.7903,0.7709,0.7574,0.7723,0.7818,0.7868,0.8207,0.8401,0.8429,0.8595,0.8585,0.8382,0.8003,0.7676,0.7479,0.7047,0.6959,0.7175,0.7177,0.7266,0.7429,0.7427,0.746,0.7486,0.7455,0.7236,0.6864,0.6782,0.6594,0.6194,0.6117,0.6113,0.6098,0.5671,0.5626,0.6018,0.5661,0.5513,0.5684,0.5691,0.5758,0.5956,0.6023,0.6211,0.656,0.633,0.6276,0.6818,0.6455,0.6033,0.5649,0.5692,0.5495,0.509,0.5187,0.5204,0.511,0.5065,0.5054,0.5018,0.4998,0.4998,0.4998,0.4918,0.4584,0.388,0.286,0.1883,0.0961,0.0177,-0.0432,-0.0983,-0.1258,-0.1297,-0.1317,-0.1356,-0.1591,-0.2314,-0.2529,-0.2902,-0.3432,-0.4016,-0.4815,-0.5392,-0.597,-0.661,-0.7096,-0.7346,-0.7499,-0.7499,-0.7499,-0.7499,-0.7499,-0.7499,-0.7499,-0.7499,-0.7499,-0.7499,1.0721,1.0579,1.038,1.0247,1.0189,1.0056,1.0016,1.0016,1.0016,1.0016,1.0016,1.0016,0.9935,0.9845,0.9448,0.8981,0.8491,0.8145,0.788,0.7707,0.7641,0.7679,0.7809,0.7965,0.8097,0.823,0.8406,0.8477,0.8401,0.8245,0.807,0.7842,0.7442,0.7318,0.7337,0.7077,0.7064,0.728,0.7299,0.7377,0.7479,0.751,0.7397,0.7259,0.7127,0.6897,0.6566,0.6547,0.6411,0.6117,0.5891,0.5792,0.5775,0.5717,0.5719,0.5775,0.5799,0.5825,0.5894,0.5892,0.5975,0.6127,0.6103,0.6077,0.6253,0.6026,0.574,0.5597,0.5344,0.5117,0.4997,0.4974,0.4998,0.4998,0.4998,0.4998,0.4998,0.4998,0.4998,0.4979,0.4801,0.4465,0.3995,0.3017,0.1941,0.1137,0.0255,-0.055,-0.112,-0.1317,-0.1317,-0.1317,-0.1317,-0.1492,-0.1999,-0.2117,-0.2332,-0.2862,-0.3468,-0.4268,-0.4927,-0.6337,-0.7192,-0.7269,-0.748,-0.7499,-0.7499,-0.7499,-0.7499,-0.7499,-0.7499,-0.7499,-0.7499,-0.7499,-0.7499,1.0868,1.0692,1.0555,1.0413,1.028,1.0165,1.0056,0.9999,1.0016,1.0016,1.0016,1.0016,1.0016,0.9975,0.9804,0.9472,0.8973,0.8448,0.8093,0.7875,0.7626,0.7565,0.7698,0.7766,0.7883,0.8049,0.8274,0.8401,0.8401,0.8401,0.8321,0.8183,0.7864,0.7698,0.7638,0.7369,0.7316,0.7389,0.7389,0.7425,0.751,0.751,0.751,0.7491,0.7351,0.7039,0.656,0.6509,0.6272,0.5845,0.5627,0.5413,0.5219,0.5317,0.5379,0.5375,0.5375,0.5395,0.5392,0.5392,0.5462,0.5665,0.5617,0.5651,0.5849,0.5576,0.5392,0.5329,0.5186,0.4998,0.4998,0.4998,0.4998,0.4998,0.4998,0.4998,0.4998,0.4998,0.4998,0.4959,0.4801,0.4465,0.3915,0.2838,0.1821,0.1,0.0,-0.0805,-0.1199,-0.1317,-0.1317,-0.1317,-0.1317,-0.1394,-0.1649,-0.1706,-0.202,-0.2529,-0.3271,-0.3973,-0.4888,-0.6398,-0.7365,-0.7461,-0.7499,-0.7499,-0.7499,-0.7499,-0.7499,-0.7499,-0.7499,-0.7499,-0.7499,-0.7499,-0.7499,1.1075,1.0901,1.0891,1.065,1.037,1.029,1.0184,1.0037,1.0021,1.0016,1.0016,1.0016,1.0016,0.999,0.9966,0.9831,0.9467,0.8788,0.8377,0.814,0.774,0.755,0.7584,0.7632,0.7661,0.7683,0.8117,0.8309,0.8231,0.8217,0.8226,0.8267,0.8085,0.7941,0.8075,0.7968,0.7941,0.7813,0.7761,0.7702,0.7543,0.7534,0.7512,0.751,0.7491,0.7021,0.6027,0.6043,0.5844,0.5209,0.4753,0.4361,0.4431,0.4431,0.4367,0.4434,0.4367,0.4331,0.4367,0.4442,0.4772,0.511,0.4862,0.4944,0.5374,0.5162,0.4947,0.5052,0.5046,0.4998,0.4998,0.4998,0.4998,0.4998,0.4998,0.4998,0.4998,0.4998,0.4998,0.4979,0.4879,0.4409,0.3366,0.2367,0.1429,0.0392,-0.053,-0.1159,-0.1258,-0.1317,-0.1317,-0.1317,-0.1317,-0.1375,-0.1356,-0.1375,-0.1825,-0.2333,-0.3171,-0.3969,-0.4807,-0.6067,-0.7015,-0.7288,-0.7499,-0.7499,-0.7499,-0.7499,-0.7499,-0.7499,-0.7499,-0.7499,-0.7499,-0.7499,-0.7499,1.1156,1.109,1.0953,1.0825,1.0688,1.0423,1.0247,1.0181,1.0066,1.0016,1.0016,1.0016,1.0016,1.0016,1.0016,0.9956,0.9809,0.9285,0.8906,0.8647,0.8146,0.7921,0.7814,0.7311,0.6928,0.674,0.6816,0.7012,0.7222,0.7259,0.7265,0.7375,0.7604,0.7669,0.7706,0.7941,0.8055,0.8012,0.8003,0.7921,0.7719,0.7695,0.7629,0.7524,0.751,0.7162,0.6531,0.6806,0.6371,0.517,0.5292,0.508,0.4467,0.4303,0.4303,0.4303,0.4303,0.4303,0.4314,0.4393,0.4517,0.4723,0.4708,0.4811,0.5015,0.5007,0.495,0.4996,0.4998,0.4998,0.4998,0.4998,0.4998,0.4998,0.4998,0.4998,0.4998,0.4998,0.4998,0.492,0.4523,0.401,0.3404,0.2347,0.1057,0.0411,-0.0451,-0.1081,-0.1258,-0.1317,-0.1317,-0.1317,-0.1317,-0.1317,-0.1317,-0.1317,-0.1532,-0.2021,-0.2781,-0.3772,-0.4686,-0.5657,-0.6568,-0.7226,-0.7422,-0.7499,-0.7499,-0.7499,-0.7499,-0.7499,-0.7499,-0.7499,-0.7499,-0.7499,-0.7499,1.1194,1.1179,1.1061,1.0957,1.0877,1.0626,1.0437,1.0295,1.018,1.007,1.003,1.0016,1.0016,1.0016,1.0016,1.0016,0.9961,0.9663,0.9342,0.8957,0.8567,0.8306,0.8102,0.7266,0.6534,0.6177,0.6169,0.6297,0.6515,0.6594,0.6704,0.6874,0.7078,0.723,0.7278,0.7513,0.7625,0.755,0.7515,0.7419,0.7233,0.7194,0.7155,0.703,0.7013,0.6742,0.6305,0.6725,0.6441,0.5376,0.5256,0.4947,0.435,0.4303,0.4303,0.4308,0.4355,0.4365,0.4393,0.4509,0.4597,0.4642,0.473,0.482,0.4863,0.4966,0.4996,0.4998,0.4998,0.4998,0.4998,0.4998,0.4998,0.4998,0.4998,0.4998,0.4998,0.4998,0.4998,0.4859,0.4326,0.3752,0.303,0.2034,0.0724,0.0215,-0.0451,-0.1002,-0.1218,-0.1317,-0.1318,-0.1318,-0.1317,-0.1317,-0.1317,-0.1317,-0.1317,-0.1747,-0.2313,-0.3363,-0.4373,-0.5442,-0.6433,-0.713,-0.7499,-0.7499,-0.7499,-0.7499,-0.7499,-0.7499,-0.7499,-0.7499,-0.7499,-0.7499,-0.7499,1.1194,1.1194,1.1194,1.108,1.091,1.0801,1.0566,1.0362,1.0173,1.0087,1.0029,1.0009,1.0016,0.999,0.9903,0.9886,0.9963,0.9657,0.9373,0.893,0.8615,0.8327,0.7835,0.7072,0.6366,0.5865,0.594,0.6039,0.6004,0.6147,0.6469,0.6434,0.6519,0.6693,0.6783,0.685,0.6908,0.6816,0.673,0.6625,0.6381,0.633,0.6294,0.6289,0.6296,0.6097,0.5827,0.6015,0.5874,0.5158,0.4734,0.449,0.435,0.4322,0.4346,0.4355,0.4445,0.4506,0.4539,0.4629,0.4718,0.4768,0.4795,0.4852,0.4966,0.4988,0.4998,0.4998,0.4998,0.4998,0.4998,0.4998,0.5004,0.5009,0.5006,0.5004,0.5009,0.5017,0.4977,0.4759,0.4208,0.3417,0.2529,0.1446,0.0496,-0.0258,-0.0735,-0.0975,-0.1214,-0.1318,-0.1307,-0.131,-0.132,-0.1303,-0.131,-0.1319,-0.1343,-0.1653,-0.2282,-0.341,-0.4377,-0.5431,-0.6298,-0.6996,-0.7489,-0.75,-0.7484,-0.7469,-0.7484,-0.7499,-0.7499,-0.7499,-0.7503,-0.7503,-0.7519,1.1194,1.1194,1.1194,1.1161,1.1022,1.0353,1.0308,1.0571,0.9771,0.9714,1.0043,1.0061,0.9934,0.9946,0.9419,0.9489,0.9641,0.889,0.8671,0.8777,0.827,0.7426,0.6619,0.6167,0.5699,0.5201,0.5173,0.5084,0.5104,0.5245,0.5252,0.5237,0.5729,0.5972,0.6114,0.6479,0.6772,0.6828,0.6794,0.6663,0.6478,0.643,0.6386,0.6201,0.6165,0.6097,0.5946,0.5731,0.5565,0.5334,0.4859,0.4597,0.458,0.458,0.4572,0.4583,0.4613,0.4658,0.4662,0.4737,0.48,0.4817,0.4876,0.4963,0.499,0.4998,0.4998,0.4998,0.4998,0.4998,0.4998,0.5001,0.5053,0.5116,0.5083,0.5047,0.5124,0.5123,0.4929,0.4263,0.3502,0.2688,0.1783,0.0891,0.0062,-0.0475,-0.0741,-0.0885,-0.1168,-0.1313,-0.1309,-0.132,-0.1307,-0.1306,-0.1316,-0.1319,-0.1398,-0.1629,-0.2469,-0.3732,-0.4708,-0.5691,-0.6393,-0.7019,-0.7344,-0.7442,-0.7421,-0.7385,-0.7434,-0.7581,-0.756,-0.7589,-0.7532,-0.7515,-0.7544,1.1194,1.1194,1.1194,1.1194,1.1082,1.0212,1.0053,1.0135,0.9324,0.9011,0.9272,0.9224,0.9297,0.9445,0.8781,0.8868,0.931,0.8339,0.7921,0.7793,0.7226,0.66,0.6106,0.5892,0.5466,0.4846,0.4768,0.4757,0.4731,0.4708,0.4717,0.4826,0.5071,0.5277,0.5383,0.5642,0.5929,0.5989,0.6022,0.5961,0.5936,0.5917,0.5846,0.5706,0.569,0.5693,0.5622,0.5383,0.5193,0.5065,0.4849,0.4708,0.4708,0.4708,0.4708,0.4692,0.4713,0.4748,0.4767,0.4841,0.4887,0.4901,0.4969,0.499,0.4998,0.4998,0.4998,0.4998,0.4998,0.4998,0.5006,0.5036,0.514,0.5253,0.5223,0.5192,0.5301,0.5283,0.4838,0.4026,0.3183,0.2341,0.1409,0.0533,-0.0064,-0.0444,-0.0629,-0.0839,-0.1112,-0.1223,-0.1309,-0.1313,-0.1313,-0.1306,-0.1304,-0.1318,-0.1451,-0.1681,-0.2553,-0.3867,-0.5144,-0.6036,-0.6552,-0.7062,-0.7268,-0.7399,-0.7415,-0.7494,-0.7684,-0.7772,-0.7731,-0.7711,-0.7679,-0.7626,-0.7638,1.1194,1.1194,1.1194,1.1194,1.1047,1.0256,0.982,0.9614,0.8749,0.8282,0.8214,0.8056,0.8442,0.8766,0.8072,0.8093,0.8715,0.779,0.7195,0.6738,0.6223,0.5941,0.6176,0.5981,0.5562,0.5013,0.4876,0.4828,0.4805,0.4753,0.4748,0.4767,0.4759,0.4761,0.4909,0.4869,0.4786,0.4992,0.5085,0.5141,0.5192,0.5187,0.5195,0.517,0.5145,0.5129,0.5101,0.5024,0.495,0.4739,0.4746,0.4753,0.4744,0.4736,0.4742,0.4766,0.4806,0.4836,0.4828,0.4928,0.4988,0.4988,0.499,0.4998,0.4998,0.4998,0.4998,0.4998,0.5006,0.5059,0.5097,0.5176,0.5254,0.5355,0.5403,0.5408,0.5401,0.5333,0.4885,0.3905,0.306,0.2182,0.1302,0.0,-0.0086,-0.0389,-0.0581,-0.0818,-0.1076,-0.125,-0.1313,-0.1331,-0.1327,-0.1321,-0.132,-0.1317,-0.1508,-0.1777,-0.2724,-0.3983,-0.5594,-0.6488,-0.6881,-0.7192,-0.7173,-0.7331,-0.7532,-0.7686,-0.7877,-0.7931,-0.787,-0.7923,-0.7951,-0.7886,-0.7858,1.1194,1.1194,1.1194,1.1194,1.0973,0.9686,0.9399,0.9747,0.8223,0.7815,0.8179,0.8087,0.8046,0.8125,0.7428,0.7371,0.7812,0.6871,0.6041,0.5972,0.5822,0.5739,0.5842,0.5732,0.5547,0.5308,0.5284,0.516,0.5007,0.4925,0.4849,0.4755,0.4745,0.475,0.479,0.4798,0.4836,0.4936,0.495,0.4933,0.4982,0.4998,0.4998,0.4998,0.4998,0.4998,0.4998,0.4998,0.4971,0.4931,0.4928,0.4909,0.4912,0.4917,0.4915,0.4917,0.4942,0.4955,0.4944,0.4977,0.4998,0.4998,0.4998,0.4998,0.4998,0.5004,0.5001,0.5015,0.5094,0.5204,0.5332,0.5353,0.5432,0.5498,0.5513,0.5524,0.5477,0.4913,0.412,0.3247,0.232,0.1354,0.0,0.0,0.0,0.0,-0.0552,-0.0796,-0.0993,-0.1188,-0.1273,-0.1288,-0.1354,-0.1351,-0.1351,-0.1372,-0.1525,-0.183,-0.2702,-0.3488,-0.5139,-0.6492,-0.6715,-0.6881,-0.6974,-0.7217,-0.759,-0.7711,-0.7877,-0.7928,-0.8028,-0.8068,-0.8113,-0.8052,-0.8085,1.0634,1.0679,1.1047,1.0998,1.0458,0.932,0.8825,0.8633,0.7482,0.7091,0.7337,0.7206,0.7267,0.744,0.6742,0.6672,0.6978,0.6257,0.5713,0.5733,0.571,0.571,0.5686,0.5626,0.5572,0.551,0.5464,0.5347,0.5224,0.5167,0.5091,0.4947,0.4871,0.4825,0.4795,0.4798,0.479,0.4879,0.4914,0.4936,0.4988,0.4998,0.4998,0.4998,0.4998,0.4998,0.4998,0.4998,0.4998,0.4998,0.4998,0.4998,0.4998,0.4998,0.4998,0.4998,0.4998,0.4998,0.4998,0.4998,0.4998,0.5001,0.4998,0.4998,0.5037,0.5061,0.5097,0.5121,0.5226,0.5381,0.5605,0.5643,0.5684,0.5773,0.5785,0.5775,0.5551,0.4811,0.3842,0.2994,0.2057,0.1098,0.0,0.0,0.0,0.0,0.0,-0.0624,-0.0713,-0.0912,-0.1136,-0.1224,-0.1339,-0.1407,-0.1385,-0.145,-0.1536,-0.1889,-0.246,-0.3037,-0.396,-0.5227,-0.6359,-0.6601,-0.6882,-0.7343,-0.768,-0.7787,-0.7951,-0.8198,-0.8321,-0.8284,-0.8255,-0.8291,-0.8333,0.9817,0.9871,1.0556,1.0429,0.9747,0.892,0.8226,0.7602,0.6734,0.6476,0.6333,0.6165,0.6579,0.6651,0.6196,0.6185,0.6329,0.6102,0.571,0.571,0.571,0.571,0.5686,0.5692,0.5656,0.554,0.5537,0.548,0.5417,0.5385,0.5301,0.5226,0.5141,0.5045,0.4906,0.4857,0.492,0.4985,0.4979,0.4998,0.5053,0.5055,0.505,0.4998,0.4998,0.4998,0.4998,0.4998,0.4998,0.4998,0.4998,0.5009,0.504,0.5001,0.4998,0.4998,0.4998,0.4998,0.4998,0.5001,0.5001,0.5012,0.5045,0.5064,0.5099,0.5185,0.5226,0.5275,0.5366,0.5508,0.5815,0.5813,0.5883,0.5957,0.6013,0.593,0.5574,0.477,0.3667,0.2955,0.1749,0.0606,0.0,0.0,0.0,0.0,0.0,-0.0404,-0.0516,-0.0718,-0.0987,-0.1189,-0.1301,-0.1391,-0.1413,-0.1413,-0.1525,-0.1704,-0.2194,-0.2597,-0.3023,-0.3933,-0.517,-0.6436,-0.6932,-0.7321,-0.7625,-0.7734,-0.7988,-0.841,-0.8426,-0.8204,-0.8275,-0.849,-0.847,0.8998,0.8998,0.9147,0.9122,0.8874,0.8152,0.773,0.7481,0.6709,0.6404,0.6366,0.6312,0.6313,0.6356,0.6193,0.6088,0.604,0.5837,0.5696,0.5713,0.571,0.571,0.571,0.571,0.5672,0.5667,0.5645,0.558,0.5505,0.547,0.5432,0.5358,0.5314,0.5297,0.5269,0.5292,0.5232,0.5223,0.5237,0.5246,0.5249,0.52,0.5124,0.5064,0.5042,0.5053,0.5017,0.5009,0.4998,0.4998,0.4998,0.5055,0.5124,0.5083,0.5031,0.5028,0.5034,0.5044,0.5059,0.5017,0.5075,0.5129,0.5159,0.5231,0.5291,0.5343,0.5365,0.5382,0.5458,0.557,0.5709,0.5791,0.5766,0.5797,0.5822,0.5799,0.5441,0.4366,0.3291,0.2844,0.1502,0.0,0.0,0.0,0.0,0.0,0.0,-0.0292,-0.0359,-0.065,-0.0987,-0.1144,-0.1279,-0.1346,-0.1413,-0.1413,-0.1436,-0.1458,-0.1792,-0.2105,-0.251,-0.2893,-0.3875,-0.5164,-0.634,-0.7015,-0.7309,-0.7544,-0.7834,-0.8098,-0.8098,-0.8054,-0.8142,-0.823,-0.827,0.8177,0.823,0.8623,0.8549,0.8152,0.7804,0.7357,0.6933,0.6559,0.6412,0.6379,0.6323,0.629,0.626,0.6164,0.6018,0.5915,0.5855,0.5765,0.5729,0.571,0.571,0.571,0.571,0.571,0.571,0.5683,0.5664,0.5629,0.5602,0.5532,0.5469,0.5442,0.5436,0.5403,0.5394,0.5418,0.5418,0.5418,0.5398,0.5395,0.5344,0.5267,0.5237,0.5195,0.522,0.522,0.52,0.5203,0.5226,0.5203,0.5253,0.5267,0.5256,0.52,0.52,0.5192,0.5195,0.5197,0.52,0.5233,0.5288,0.5302,0.5324,0.5389,0.5438,0.5483,0.5529,0.5589,0.5711,0.5899,0.5888,0.5911,0.5908,0.5886,0.5822,0.5327,0.3941,0.3224,0.2688,0.1256,0.0,0.0,0.0,0.0,0.0,0.0,0.0,0.0,-0.0516,-0.0852,-0.1054,-0.1211,-0.1346,-0.1413,-0.1413,-0.1413,-0.1413,-0.1458,-0.1771,-0.204,-0.2445,-0.2983,-0.3872,-0.5028,-0.6207,-0.6852,-0.7029,-0.7408,-0.7786,-0.7852,-0.7896,-0.794,-0.7984,-0.8003,0.7357,0.7431,0.8053,0.7953,0.7406,0.7357,0.7008,0.6487,0.6412,0.6412,0.6401,0.635,0.6306,0.6295,0.6208,0.6096,0.5972,0.5942,0.5847,0.5767,0.5721,0.571,0.571,0.571,0.571,0.571,0.571,0.571,0.5697,0.5697,0.5629,0.557,0.5543,0.5505,0.5477,0.5504,0.5466,0.5463,0.5463,0.5436,0.5412,0.5425,0.5408,0.5392,0.5392,0.5376,0.5362,0.5359,0.5362,0.5365,0.5376,0.5395,0.5422,0.5428,0.5438,0.5452,0.5419,0.5395,0.5384,0.5376,0.537,0.5398,0.5428,0.5441,0.5488,0.5532,0.558,0.5689,0.5705,0.5744,0.5908,0.5994,0.5997,0.5997,0.5952,0.5774,0.5037,0.3985,0.2889,0.2039,0.083,0.0,0.0,0.0,0.0,0.0,0.0,0.0,0.0,0.0,-0.0628,-0.0897,-0.1122,-0.1323,-0.1413,-0.1413,-0.1413,-0.1413,-0.1413,-0.1547,-0.1772,-0.2019,-0.251,-0.2911,-0.3848,-0.4959,-0.5716,-0.6539,-0.6918,-0.7253,-0.7562,-0.7694,-0.7606,-0.7698,-0.779,0.6534,0.6562,0.6661,0.6609,0.6587,0.6584,0.6512,0.6437,0.6412,0.6412,0.6412,0.6396,0.6382,0.6355,0.6298,0.6263,0.6183,0.6029,0.5918,0.5858,0.5765,0.5724,0.571,0.571,0.571,0.571,0.571,0.571,0.571,0.571,0.5708,0.5678,0.5645,0.567,0.5624,0.5632,0.5667,0.5662,0.5656,0.5586,0.5505,0.5507,0.5456,0.5438,0.5417,0.5425,0.5438,0.5441,0.5451,0.5419,0.5406,0.5428,0.5483,0.5489,0.5548,0.557,0.5537,0.5392,0.5417,0.5433,0.5468,0.5491,0.5507,0.5543,0.5605,0.564,0.5659,0.5702,0.571,0.5733,0.5777,0.5777,0.5755,0.5797,0.5863,0.5371,0.4634,0.3851,0.2777,0.1771,0.0673,0.0,0.0,0.0,0.0,0.0,0.0,0.0,0.0,0.0,-0.0493,-0.0807,-0.1122,-0.1346,-0.1413,-0.1413,-0.1414,-0.1414,-0.1413,-0.1413,-0.1548,-0.1705,-0.1592,-0.2129,-0.2977,-0.3892,-0.4872,-0.565,-0.6251,-0.683,-0.7319,-0.7319,-0.7183,-0.7345,-0.7547,0.6412,0.6412,0.6412,0.6412,0.6412,0.6412,0.6412,0.6412,0.6412,0.6412,0.6412,0.6412,0.6412,0.6396,0.638,0.6325,0.6282,0.6175,0.6047,0.5926,0.5852,0.5775,0.5724,0.571,0.571,0.571,0.571,0.571,0.571,0.571,0.571,0.571,0.571,0.5705,0.571,0.571,0.5708,0.5705,0.5702,0.5683,0.5623,0.5629,0.5608,0.5553,0.557,0.5564,0.5564,0.5575,0.5575,0.5575,0.5575,0.5572,0.5618,0.5613,0.5637,0.5683,0.5624,0.5564,0.5562,0.5572,0.5575,0.5608,0.561,0.5634,0.5705,0.571,0.571,0.571,0.571,0.571,0.5755,0.5844,0.5886,0.5933,0.5941,0.5226,0.4484,0.3472,0.2555,0.1547,0.0,0.0,0.0,0.0,0.0,0.0,0.0,0.0,0.0,0.0,-0.0561,-0.0762,-0.1099,-0.1391,-0.1413,-0.1413,-0.1415,-0.1414,-0.1413,-0.1413,-0.1413,-0.1436,-0.1413,-0.1413,-0.1973,-0.2955,-0.4048,-0.505,-0.5919,-0.6542,-0.7117,-0.7117,-0.7117,-0.7139,-0.7345,0.6412,0.6412,0.6412,0.6412,0.6412,0.6412,0.6412,0.6412,0.6412,0.6412,0.6412,0.6412,0.6412,0.6412,0.6404,0.636,0.6314,0.6309,0.6189,0.604,0.595,0.5885,0.58,0.5762,0.5743,0.5716,0.571,0.571,0.571,0.571,0.571,0.571,0.571,0.571,0.571,0.571,0.571,0.571,0.571,0.5708,0.5702,0.5702,0.5705,0.5702,0.571,0.571,0.571,0.57,0.5677,0.5694,0.5686,0.5683,0.5697,0.5672,0.5675,0.571,0.5678,0.5681,0.5678,0.5681,0.571,0.571,0.571,0.57,0.5708,0.571,0.5777,0.5822,0.5735,0.5777,0.5886,0.6038,0.6083,0.6167,0.621,0.5399,0.4559,0.3591,0.2335,0.1013,0.0,0.0,0.0,0.0,0.0,0.0,0.0,0.0,0.0,0.0,-0.0588,-0.077,-0.1022,-0.1337,-0.1442,-0.1418,-0.1418,-0.142,-0.1418,-0.1416,-0.1418,-0.1415,-0.1413,-0.1413,-0.1418,-0.2173,-0.3357,-0.4516,-0.5608,-0.6163,-0.6675,-0.7007,-0.7117,-0.7127,-0.7156,0.6412,0.6412,0.6412,0.6412,0.6412,0.6412,0.6412,0.6412,0.6412,0.6412,0.6412,0.6412,0.6412,0.6412,0.6412,0.6404,0.639,0.6342,0.6276,0.6219,0.6151,0.601,0.5931,0.588,0.5847,0.5754,0.5765,0.5757,0.5721,0.5748,0.5729,0.5713,0.5696,0.5716,0.571,0.571,0.571,0.571,0.571,0.571,0.571,0.571,0.571,0.571,0.571,0.571,0.571,0.571,0.571,0.571,0.571,0.571,0.571,0.571,0.571,0.571,0.571,0.571,0.571,0.571,0.571,0.571,0.571,0.571,0.571,0.571,0.5822,0.5961,0.5841,0.5955,0.6122,0.6266,0.6367,0.6442,0.6309,0.5418,0.4572,0.3758,0.2444,0.071,0.0,0.0,0.0,0.0,0.0,0.0,0.0,0.0,0.0,-0.0274,-0.0527,-0.0758,-0.0969,-0.1218,-0.1454,-0.1481,-0.1456,-0.1449,-0.1461,-0.1454,-0.1425,-0.1422,-0.1418,-0.1408,-0.1483,-0.2079,-0.2653,-0.3695,-0.4702,-0.5635,-0.6263,-0.671,-0.7103,-0.7242,-0.7222,0.6412,0.6412,0.6412,0.6412,0.6412,0.6412,0.6412,0.6412,0.6412,0.6412,0.6412,0.6412,0.6412,0.6412,0.6412,0.6412,0.6406,0.6377,0.6336,0.6301,0.623,0.6151,0.6053,0.601,0.5991,0.5947,0.5942,0.5947,0.5953,0.5874,0.5819,0.5803,0.5739,0.5719,0.571,0.571,0.571,0.571,0.571,0.571,0.571,0.571,0.571,0.571,0.571,0.571,0.571,0.571,0.571,0.571,0.571,0.571,0.571,0.571,0.571,0.5716,0.5716,0.5724,0.5719,0.5716,0.571,0.571,0.571,0.5716,0.5721,0.5716,0.5733,0.5838,0.6009,0.6198,0.6272,0.661,0.6865,0.6905,0.6475,0.5595,0.4503,0.3669,0.242,0.0673,0.0,0.0,0.0,0.0,0.0,0.0,0.0,0.0,0.0,-0.0185,-0.0419,-0.0679,-0.0894,-0.1163,-0.1389,-0.1466,-0.15,-0.1505,-0.1509,-0.1483,-0.1459,-0.1461,-0.1472,-0.1455,-0.144,-0.1788,-0.2276,-0.2929,-0.3924,-0.5182,-0.5981,-0.6531,-0.6901,-0.7338,-0.7347,0.6412,0.6412,0.6412,0.6412,0.6412,0.6412,0.6412,0.6412,0.6412,0.6412,0.6412,0.6412,0.6412,0.6412,0.6412,0.6412,0.6412,0.6401,0.636,0.6322,0.6312,0.6244,0.6202,0.6156,0.6137,0.6126,0.611,0.6096,0.6056,0.5991,0.5966,0.5934,0.5857,0.5811,0.571,0.571,0.571,0.571,0.571,0.571,0.571,0.571,0.571,0.571,0.571,0.571,0.571,0.571,0.571,0.571,0.571,0.571,0.571,0.571,0.5713,0.5699,0.5721,0.5759,0.5759,0.5704,0.5716,0.571,0.571,0.5729,0.5751,0.5765,0.5831,0.6116,0.6293,0.6446,0.6565,0.6994,0.6836,0.6727,0.7257,0.6507,0.459,0.3344,0.2043,0.0,0.0,0.0,0.0,0.0,0.0,0.0,0.0,0.0,0.0,-0.0142,-0.0309,-0.055,-0.0817,-0.1093,-0.1349,-0.1445,-0.1539,-0.1545,-0.1553,-0.1525,-0.1508,-0.1508,-0.1506,-0.1475,-0.1491,-0.1527,-0.1833,-0.2314,-0.3567,-0.4984,-0.5849,-0.6794,-0.7082,-0.7502,-0.7529,0.6412,0.6412,0.6412,0.6412,0.6412,0.6412,0.6412,0.6412,0.6412,0.6412,0.6412,0.6412,0.6412,0.6412,0.6412,0.6412,0.6412,0.6412,0.6398,0.6387,0.6374,0.6325,0.6301,0.6276,0.6227,0.614,0.6127,0.6149,0.6119,0.6121,0.6086,0.6072,0.6029,0.5937,0.5735,0.571,0.571,0.5713,0.5713,0.5727,0.5716,0.5735,0.5767,0.574,0.5767,0.5781,0.5784,0.5784,0.5786,0.5784,0.5778,0.5775,0.577,0.5765,0.5762,0.5759,0.5858,0.5893,0.5893,0.5798,0.5757,0.579,0.584,0.5873,0.5905,0.5955,0.6092,0.64,0.6623,0.6905,0.7147,0.7328,0.6946,0.6864,0.743,0.6713,0.473,0.3297,0.2074,0.0866,0.0525,0.0,0.0,0.0,0.0,0.0,0.0,0.0,0.0,-0.0072,-0.0219,-0.0463,-0.0736,-0.0987,-0.1269,-0.148,-0.1576,-0.1583,-0.1571,-0.1566,-0.1543,-0.1556,-0.1544,-0.1516,-0.1522,-0.1562,-0.1547,-0.1648,-0.3045,-0.4492,-0.6244,-0.72,-0.7466,-0.7641,-0.7692,0.6412,0.6412,0.6412,0.6412,0.6412,0.6412,0.6412,0.6412,0.6412,0.6412,0.6412,0.6412,0.6412,0.6412,0.6412,0.6412,0.6412,0.6412,0.6412,0.6412,0.6412,0.6396,0.6358,0.6361,0.6322,0.6306,0.6293,0.6274,0.6301,0.6246,0.6233,0.6222,0.6153,0.5999,0.5866,0.5767,0.571,0.5727,0.5767,0.58,0.5746,0.5846,0.592,0.5855,0.5912,0.5945,0.5942,0.5937,0.5937,0.5937,0.5914,0.5939,0.5942,0.5945,0.5953,0.5958,0.6041,0.6047,0.6044,0.5983,0.5972,0.6013,0.6089,0.6123,0.6068,0.6421,0.657,0.6712,0.6986,0.7248,0.7435,0.7702,0.7522,0.7364,0.7313,0.6094,0.4564,0.3525,0.2406,0.1254,0.0555,0.0328,0.0,0.0,0.0,0.0,0.0,0.0,0.0,0.0,-0.0125,-0.0399,-0.0651,-0.0903,-0.1159,-0.1414,-0.1566,-0.1577,-0.1598,-0.1575,-0.1579,-0.1579,-0.1574,-0.1554,-0.1562,-0.1594,-0.1629,-0.1839,-0.2664,-0.3997,-0.5463,-0.6786,-0.7237,-0.7545,-0.7891,0.6412,0.6412,0.6412,0.6412,0.6412,0.6412,0.6412,0.6412,0.6412,0.6412,0.6412,0.6412,0.6412,0.6412,0.6412,0.6412,0.6412,0.6412,0.6412,0.6412,0.6412,0.6406,0.6406,0.6412,0.6393,0.6412,0.6412,0.6404,0.6387,0.6358,0.6331,0.6298,0.6235,0.6153,0.6024,0.5945,0.5874,0.5899,0.5939,0.5942,0.5931,0.5977,0.6061,0.6007,0.6026,0.6099,0.6107,0.6112,0.6115,0.6118,0.6118,0.6115,0.6115,0.6112,0.6112,0.611,0.6248,0.6351,0.6462,0.6524,0.6546,0.6546,0.6548,0.6487,0.6465,0.6765,0.69,0.7072,0.7328,0.7527,0.7686,0.795,0.7673,0.7481,0.6703,0.5495,0.3919,0.282,0.2519,0.1388,0.0758,0.048,0.0,0.0,0.0,0.0,0.0,0.0,0.0,0.0,0.0,-0.0278,-0.0555,-0.0832,-0.111,-0.1388,-0.1516,-0.1566,-0.1592,-0.1592,-0.1591,-0.1586,-0.159,-0.1592,-0.1586,-0.1632,-0.1737,-0.2089,-0.2558,-0.3199,-0.4175,-0.5451,-0.6675,-0.7058,-0.7207,0.6412,0.6412,0.6412,0.6412,0.6412,0.6412,0.6412,0.6412,0.6412,0.6412,0.6412,0.6412,0.6412,0.6412,0.6412,0.6412,0.6412,0.6412,0.6412,0.6412,0.6412,0.6412,0.6412,0.6412,0.6412,0.6412,0.6412,0.6412,0.6412,0.639,0.6387,0.6379,0.6317,0.6263,0.6208,0.6157,0.6075,0.6048,0.6088,0.6056,0.6045,0.61,0.6151,0.6119,0.6132,0.6154,0.6157,0.6151,0.6164,0.6183,0.6151,0.6163,0.6155,0.6123,0.6123,0.6254,0.6563,0.6798,0.6989,0.7023,0.7109,0.7014,0.6807,0.6852,0.6949,0.7118,0.7274,0.738,0.7585,0.7756,0.7939,0.7587,0.7257,0.6758,0.6157,0.4651,0.2873,0.2144,0.2144,0.1641,0.1187,0.0808,0.0379,0.0,0.0,0.0,0.0,0.0,0.0,0.0,0.0,-0.0126,-0.0404,-0.0732,-0.101,-0.1313,-0.1491,-0.1592,-0.1592,-0.1592,-0.1592,-0.1592,-0.1592,-0.1592,-0.1592,-0.1617,-0.1692,-0.1818,-0.2068,-0.2715,-0.3234,-0.4259,-0.5502,-0.5577,-0.5752,0.6412,0.6412,0.6412,0.6412,0.6412,0.6412,0.6412,0.6412,0.6412,0.6412,0.6412,0.6412,0.6412,0.6412,0.6412,0.6412,0.6412,0.6412,0.6412,0.6412,0.6412,0.6412,0.6412,0.6412,0.6412,0.6412,0.6412,0.6412,0.6412,0.6412,0.6412,0.6398,0.6368,0.6355,0.6341,0.6325,0.6209,0.6165,0.6211,0.6194,0.6179,0.6238,0.6244,0.6241,0.6249,0.6293,0.6279,0.6284,0.6361,0.6543,0.638,0.6432,0.688,0.6732,0.6637,0.688,0.702,0.7099,0.7179,0.721,0.7288,0.7441,0.7319,0.7205,0.7322,0.7473,0.7662,0.7698,0.7768,0.7917,0.7967,0.7711,0.7185,0.6559,0.5807,0.445,0.2797,0.2019,0.1994,0.1716,0.1288,0.0884,0.048,0.0,0.0,0.0,0.0,0.0,0.0,0.0,0.0,0.0,-0.0328,-0.0682,-0.096,-0.1237,-0.144,-0.1592,-0.1592,-0.1592,-0.1592,-0.1592,-0.1592,-0.1592,-0.1592,-0.1592,-0.1592,-0.1742,-0.1868,-0.1768,-0.2241,-0.3246,-0.4074,-0.42,-0.4676,0.6412,0.6412,0.6412,0.6412,0.6412,0.6412,0.6412,0.6412,0.6412,0.6412,0.6412,0.6412,0.6412,0.6412,0.6412,0.6412,0.6412,0.6412,0.6412,0.6412,0.6412,0.6412,0.6412,0.6412,0.6412,0.6412,0.6412,0.6412,0.6412,0.6412,0.6412,0.6412,0.6412,0.6412,0.6404,0.6382,0.6333,0.6304,0.6282,0.6276,0.6309,0.6331,0.6358,0.6363,0.6387,0.6404,0.6412,0.6412,0.6564,0.677,0.6592,0.6736,0.711,0.7036,0.7089,0.7273,0.735,0.7453,0.754,0.7565,0.7615,0.769,0.7743,0.7683,0.7677,0.7773,0.7826,0.7842,0.7914,0.7988,0.7988,0.7889,0.721,0.6509,0.5454,0.4398,0.3298,0.222,0.1843,0.1591,0.1237,0.0859,0.0505,0.0202,0.0,0.0,0.0,0.0,0.0,0.0,0.0,0.0,0.0,-0.0657,-0.0909,-0.1136,-0.1364,-0.1516,-0.1592,-0.1592,-0.1592,-0.1592,-0.1592,-0.1592,-0.1592,-0.1592,-0.1592,-0.1592,-0.1641,-0.1592,-0.1592,-0.2296,-0.2873,-0.2923,-0.3601,0.6412,0.6412,0.6412,0.6412,0.6412,0.6412,0.6412,0.6412,0.6412,0.6412,0.6412,0.6412,0.6412,0.6412,0.6412,0.6412,0.6412,0.6412,0.6412,0.6412,0.6412,0.6412,0.6412,0.6412,0.6412,0.6412,0.6412,0.6412,0.6412,0.6412,0.6412,0.6412,0.6412,0.6412,0.6412,0.6412,0.6382,0.6371,0.6363,0.6368,0.6382,0.6406,0.6412,0.6406,0.6437,0.6464,0.6464,0.6512,0.6562,0.6767,0.6895,0.6989,0.7163,0.7313,0.7469,0.7543,0.7615,0.7718,0.7814,0.7864,0.7889,0.7939,0.7988,0.7939,0.7914,0.7914,0.7914,0.7939,0.7988,0.7988,0.7988,0.7914,0.7437,0.6509,0.5429,0.4375,0.3298,0.2345,0.1717,0.1491,0.1263,0.0909,0.0682,0.0379,0.0076,0.0,0.0,0.0,0.0,0.0,0.0,0.0,0.0,-0.0556,-0.0732,-0.0985,-0.1263,-0.144,-0.1491,-0.1592,-0.1592,-0.1592,-0.1592,-0.1592,-0.1592,-0.1592,-0.1592,-0.1592,-0.1592,-0.1592,-0.1592,-0.1592,-0.1742,-0.1969,-0.2672,0.6412,0.6412,0.6412,0.6412,0.6412,0.6412,0.6412,0.6412,0.6412,0.6412,0.6412,0.6412,0.6412,0.6412,0.6412,0.6412,0.6412,0.6412,0.6412,0.6412,0.6412,0.6412,0.6412,0.6412,0.6412,0.6412,0.6412,0.6412,0.6412,0.6412,0.6412,0.6412,0.6412,0.6412,0.6412,0.6412,0.6412,0.6412,0.6412,0.6412,0.6412,0.6412,0.6412,0.6464,0.6539,0.6667,0.6742,0.6889,0.7116,0.7347,0.7191,0.7291,0.749,0.769,0.7814,0.7892,0.7864,0.7917,0.7967,0.7988,0.7988,0.7988,0.7988,0.7988,0.7988,0.7988,0.7988,0.7988,0.7988,0.7988,0.7963,0.7864,0.7637,0.6584,0.5507,0.4452,0.3348,0.2496,0.1692,0.144,0.1237,0.1035,0.0808,0.053,0.0252,0.0,0.0,0.0,0.0,0.0,0.0,0.0,0.0,-0.0455,-0.0606,-0.0783,-0.1035,-0.1212,-0.1263,-0.1389,-0.1541,-0.1541,-0.1491,-0.1566,-0.1592,-0.1592,-0.1592,-0.1592,-0.1592,-0.1592,-0.1592,-0.1592,-0.1592,-0.1768,-0.2346,0.6412,0.6412,0.6412,0.6412,0.6412,0.6412,0.6412,0.6412,0.6412,0.6412,0.6412,0.6412,0.6412,0.6412,0.6412,0.6412,0.6412,0.6412,0.6412,0.6412,0.6412,0.6412,0.6412,0.6412,0.6412,0.6412,0.6412,0.6412,0.6412,0.6412,0.6412,0.6412,0.6412,0.6412,0.6412,0.6412,0.6412,0.6412,0.6412,0.6412,0.6412,0.6412,0.6412,0.6489,0.6642,0.677,0.6895,0.7064,0.7316,0.7543,0.7543,0.7615,0.7793,0.7892,0.7963,0.7988,0.7988,0.7988,0.7988,0.7988,0.7988,0.7988,0.7988,0.7988,0.7988,0.7988,0.7988,0.7988,0.7988,0.7988,0.7988,0.7914,0.7864,0.7213,0.6159,0.5106,0.3676,0.2345,0.1818,0.1541,0.1313,0.1061,0.0833,0.0556,0.0303,0.0,0.0,0.0,0.0,0.0,0.0,0.0,0.0,0.0,-0.0455,-0.0606,-0.0783,-0.0909,-0.1035,-0.1136,-0.1237,-0.1338,-0.1414,-0.1389,-0.144,-0.1592,-0.1592,-0.1541,-0.1566,-0.1592,-0.1592,-0.1592,-0.1592,-0.1592,-0.1969,0.6412,0.6412,0.6412,0.6412,0.6412,0.6412,0.6412,0.6412,0.6412,0.6412,0.6412,0.6412,0.6412,0.6412,0.6412,0.6412,0.6412,0.6412,0.6412,0.6412,0.6412,0.6412,0.6412,0.6412,0.6412,0.6412,0.6412,0.6412,0.6412,0.6412,0.6412,0.6412,0.6412,0.6412,0.6412,0.6412,0.6412,0.6412,0.6412,0.6412,0.6412,0.6412,0.6437,0.6539,0.6692,0.6867,0.6967,0.7166,0.7441,0.759,0.7817,0.7889,0.7939,0.7992,0.7988,0.7988,0.7988,0.7988,0.7988,0.7988,0.7988,0.7988,0.7988,0.7988,0.7988,0.7988,0.7988,0.7988,0.7988,0.7988,0.7988,0.7988,0.7939,0.764,0.6612,0.5457,0.3827,0.232,0.1918,0.1617,0.1389,0.1136,0.0909,0.0631,0.0379,0.0151,0.0,0.0,0.0,0.0,0.0,0.0,0.0,0.0,0.0,-0.0455,-0.0606,-0.0657,-0.0783,-0.0859,-0.0934,-0.1035,-0.1086,-0.1061,-0.1162,-0.1338,-0.1465,-0.1465,-0.1491,-0.1566,-0.1592,-0.1592,-0.1592,-0.1592,-0.1592,0.6412,0.6412,0.6412,0.6412,0.6412,0.6412,0.6412,0.6412,0.6412,0.6412,0.6412,0.6412,0.6412,0.6412,0.6412,0.6412,0.6412,0.6412,0.6412,0.6412,0.6412,0.6412,0.6412,0.6412,0.6412,0.6412,0.6412,0.6412,0.6412,0.6412,0.6412,0.6412,0.6412,0.6412,0.6412,0.6412,0.6412,0.6412,0.6412,0.6412,0.6412,0.6439,0.6564,0.6742,0.6992,0.7219,0.7444,0.7718,0.7839,0.7939,0.7967,0.7988,0.7988,0.7988,0.7988,0.7988,0.7988,0.7988,0.7988,0.7988,0.7988,0.7988,0.7988,0.7988,0.7988,0.7988,0.7988,0.7988,0.7988,0.7988,0.7988,0.7988,0.7939,0.7388,0.6584,0.5154,0.3624,0.2572,0.1843,0.1667,0.1541,0.1313,0.1111,0.0859,0.0606,0.0353,0.0101,0.0,0.0,0.0,0.0,0.0,0.0,0.0,0.0,0.0,-0.0429,-0.048,-0.048,-0.0505,-0.0581,-0.0707,-0.0732,-0.0783,-0.0859,-0.1035,-0.1136,-0.1313,-0.1415,-0.1491,-0.1566,-0.1592,-0.1592,-0.1592,-0.1592]},{"header":{"parameterUnit":"m.s-1","parameterCategory":1,"la1":31.0,"la2":29.5877,"lo1":-88.7671,"lo2":-86.6584,"dy":0.0162,"dx":0.0185,"nx":115,"ny":88,"refTime":"2024-08-31T06:00:00:Z","depth":0,"parameterNumber":3,"parameterNumberName":"V-component_of_WINDS"},"data":[0.0,0.0,0.0,0.0,0.0,0.0,0.0,0.0,0.0,0.0,0.0,0.0,0.0,0.0,0.0,0.0,0.0,0.0,0.0,0.0,0.0,0.0,0.0,0.0,0.0,0.0,0.0,0.0,0.0,0.0,0.0,0.0,0.0,0.0,0.0,0.0,0.0,0.0,0.0,0.0,0.0,0.0,0.0,0.0,0.0,0.0,0.0,0.0,0.0,0.0,0.0,0.0,0.0,0.0,0.0,0.0,0.0,0.0,0.0,0.0,0.0,0.0,0.0,0.0,0.0,0.0,0.0,0.0,0.0,0.0,0.0,0.0,0.0,0.0,0.0,0.0,0.0,0.0,0.0,0.0,0.0,0.0,0.0,0.0,0.0,0.0,0.0,0.0,0.0,0.0,0.0,0.0,0.0,0.0,0.0,0.0,0.0,0.0,0.0,0.0,0.0,0.0,0.0,0.0,0.0,0.0,0.0,0.0,0.0,0.0,0.0,0.0,0.0,0.0,0.0,0.0,0.0,0.0,0.0,0.0,0.0,0.0,0.0,0.0,0.0,0.0,0.0,0.0,0.0,0.0,0.0,0.0,0.0,0.0,0.0,0.0,0.0,0.0,0.0,0.0,0.0,0.0,0.0,0.0,0.0,0.0,0.0,0.0,0.0,0.0,0.0,0.0,0.0,0.0,0.0,0.0,0.0,0.0,0.0,0.0,0.0,0.0,0.0,0.0,0.0,0.0,0.0,0.0,0.0,0.0,0.0,0.0,0.0,0.0,0.0,0.0,0.0,0.0,0.0,0.0,0.0,0.0,0.0,0.0,0.0,0.0,0.0,0.0,0.0,0.0,0.0,0.0,0.0,0.0,0.0,0.0,0.0,0.0,0.0,0.0,0.0,0.0,0.0,0.0,0.0,0.0,0.0,0.0,0.0,0.0,0.0,0.0,0.0,0.0,0.0,0.0,0.0,0.0,0.0,0.0,0.0,0.0,0.0,0.0,0.0,0.0,0.0,0.0,0.0,0.0,0.0,0.0,0.0,0.0,0.0,0.0,0.0,0.0,0.0,0.0,0.0,0.0,0.0,0.0,0.0,0.0,0.0,0.0,0.0,0.0,0.0,0.0,0.0,0.0,0.0,0.0,0.0,0.0,0.0,0.0,0.0,0.0,0.0,0.0,0.0,0.0,0.0,0.0,0.0,0.0,0.0,0.0,0.0,0.0,0.0,0.0,0.0,0.0,0.0,0.0,0.0,0.0,0.0,0.0,0.0,0.0,0.0,0.0,0.0,0.0,0.0,0.0,0.0,0.0,0.0,0.0,0.0,0.0,0.0,0.0,0.0,0.0,0.0,0.0,0.0,0.0,0.0,0.0,0.0,0.0,0.0,0.0,0.0,0.0,0.0,0.0,0.0,0.0,0.0,0.0,0.0,0.0,0.0,0.0,0.0,0.0,0.0,0.0,0.0,0.0,0.0,0.0,0.0,0.0,0.0,0.0,0.0,0.0,0.0,0.0,0.0,0.0,0.0,0.0,0.0,0.0,0.0,0.0,0.0,0.0,0.0,0.0,0.0,0.0,0.0,0.0,0.0,0.0,0.0,0.0,0.0,0.0,0.0,0.0,0.0,0.0,0.0,0.0,0.0,0.0,0.0,0.0,0.0,0.0,0.0,0.0,0.0,0.0,0.0,0.0,0.0,0.0,0.0,0.0,0.0,0.0,0.0,0.0,0.0,0.0,0.0,0.0,0.0,0.0,0.0,0.0,0.0,0.0,0.0,0.0,0.0,0.0,0.0,0.0,0.0,0.0,0.0,0.0,0.0,0.0,0.0,0.0,0.0,0.0,0.0,0.0,0.0,0.0,0.0,0.0,0.0,0.0,0.0,0.0,0.0,0.0,0.0,0.0,0.0,0.0,0.0,0.0,0.0,0.0,0.0,0.0,0.0,0.0,0.0,0.0,0.0,0.0,0.0,0.0,0.0,0.0,0.0,0.0,0.0,0.0,0.0,0.0,0.0,0.0,0.0,0.0,0.0,0.0,0.0,0.0,0.0,0.0,0.0,0.0,0.0,0.0,0.0,0.0,0.0,0.0,0.0,0.0,0.0,0.0,0.0,0.0,0.0,0.0,0.0,0.0,0.0,0.0,0.0,0.0,0.0,0.0,0.0,0.0,0.0,0.0,0.0,0.0,0.0,0.0,0.0,0.0,0.0,0.0,0.0,0.0,0.0,0.0,0.0,0.0,0.0,0.0,0.0,0.0,0.0,0.0,0.0,0.0,0.0,0.0,0.0,0.0,0.0,0.0,0.0,0.0,0.0,0.0,0.0,0.0,0.0,0.0,0.0,0.0,0.0,0.0,0.0,0.0,0.0,0.0,0.0,0.0,0.0,0.0,0.0,0.0,0.0,0.0,0.0,0.0,0.0,0.0,0.0,0.0,0.0,0.0,0.0,0.0,0.0,0.0,0.0,0.0,0.0,0.0,0.0,0.0,0.0,0.0,0.0,0.0,0.0,0.0,0.0,0.0,0.0,0.0,0.0,0.0,0.0,0.0,0.0,0.0,0.0,0.0,0.0,0.0,0.0,0.0,0.0,0.0,0.0,0.0,0.0,0.0,0.0,0.0,0.0,0.0,0.0,0.0,0.0,0.0,0.0,0.0,0.0,0.0,0.0,0.0,0.0,0.0,0.0,0.0,0.0,0.0,0.0,0.0,0.0,0.0,0.0,0.0,0.0,0.0,0.0,0.0,0.0,0.0,0.0,0.0,0.0,0.0,0.0,0.0,0.0,0.0,0.0,0.0,0.0,0.0,0.0,0.0,0.0,0.0,0.0,0.0,0.0,0.0,0.0,0.0,0.0,0.0,0.0,0.0,0.0,0.0,0.0,0.0,0.0,0.0,0.0,0.0,0.0,0.0,0.0,0.0,0.0,0.0,0.0,0.0,0.0,0.0,0.0,0.0,0.0,0.0,0.0,0.0,0.0,0.0,0.0,0.0,0.0,0.0,0.0,0.0,0.0,0.0,0.0,0.0,0.0,0.0,0.0,0.0,0.0,0.0,0.0,0.0,0.0,0.0,0.0,0.0,0.0,0.0,0.0,0.0,0.0,0.0,0.0,0.0,0.0,0.0,0.0,0.0,0.0,0.0,0.0,0.0,0.0,0.0,0.0,0.0,0.0,0.0,0.0,0.0,0.0,0.0,0.0,0.0,0.0,0.0,0.0,0.0,0.0,0.0,0.0,0.0,0.0,0.0,0.0,0.0,0.0,0.0,0.0,0.0,0.0,0.0,0.0,0.0,0.0,0.0,0.0,0.0,0.0,0.0,0.0,0.0,0.0,0.0,0.0,0.0,0.0,0.0,0.0,0.0,0.0,0.0,0.0,0.0,0.0,0.0,0.0,0.0,0.0,0.0,0.0,0.0,0.0,0.0,0.0,0.0,0.0,0.0,0.0,0.0,0.0,0.0,0.0,0.0,0.0,0.0,0.0,0.0,0.0,0.0,0.0,0.0,0.0,0.0,0.0,0.0,0.0,0.0,0.0,0.0,0.0,0.0,0.0,0.0,0.0,0.0,0.0,0.0,0.0,0.0,0.0,0.0,0.0,0.0,0.0,0.0,0.0,0.0,0.0,0.0,0.0,0.0,0.0,0.0,0.0,0.0,0.0,0.0,0.0,0.0,0.0,0.0,0.0,0.0,0.0,0.0,0.0,0.0,0.0,0.0,0.0,0.0,0.0,0.0,0.0,0.0,0.0,0.0,0.0,0.0,0.0,0.0,0.0,0.0,0.0,0.0,0.0,0.0,0.0,0.0,0.0,0.0,0.0,0.0,0.0,0.0,0.0,0.0,0.0,0.0,0.0,0.0,0.0,0.0,0.0,0.0,0.0,0.0,0.0,0.0,0.0,0.0,0.0,0.0,0.0,0.0,0.0,0.0,0.0,0.0,0.0,0.0,0.0,0.0,0.0,0.0,0.0,0.0,0.0,0.0,0.0,0.0,0.0,0.0,0.0,0.0,0.0,0.0,0.0,0.0,0.0,0.0,0.0,0.0,0.0,0.0,0.0,0.0,0.0,0.0,0.0,0.0,0.0,0.0,0.0,0.0,0.0,0.0,0.0,0.0,0.0,0.0,0.0,0.0,0.0,0.0,0.0,0.0,0.0,0.0,0.0,0.0,0.0,0.0,0.0,0.0,0.0,0.0,0.0,0.0,0.0,0.0,0.0,0.0,0.0,0.0,0.0,0.0,0.0,0.0,0.0,0.0,0.0,0.0,0.0,0.0,0.0,0.0,0.0309,0.0,0.0,0.0,0.0,0.0,0.0,0.0,0.0,0.0,0.0,0.0,0.0,0.0,0.0,0.0,0.0,0.0,0.0,0.0,0.0,0.0,0.0,0.0,0.0,0.0,0.0,0.0,0.0,0.0,0.0,0.0,0.0,0.0,0.0,0.0,0.0,0.0,0.0,0.0,0.0,0.0,0.0,0.0,0.0,0.0,0.0,0.0,0.0,0.0,0.0,0.0,0.0,0.0,0.0,0.0,0.0,0.0,0.0,0.0,0.0,0.0,0.0,0.0,0.0,0.0,0.0,0.0,0.0,0.0,0.0,0.0,0.0,0.0,0.0,0.0,0.0,0.0,0.0,0.0,0.0,0.0,0.0,0.0,0.0,0.0,0.0,0.0,0.0,0.0,0.0,0.0,0.0,0.0,0.0,0.0,0.0,0.0,0.0,0.0,0.0,0.0,0.0,0.0,0.0,0.0,0.0,0.0,0.0,0.0,0.0,0.1114,0.0975,0.1275,0.1355,0.1172,0.0,0.0,0.0,0.0,0.0,0.0,0.0,0.0,0.0,0.0,0.0,0.0,0.0,0.0,0.0,0.0,0.0,0.0,0.0,0.0,0.0,0.0,0.0,0.0,0.0,0.0,0.0,0.0,0.0,0.0,0.0,0.0,0.0,0.0,0.0,0.0,0.0,0.0,0.0,0.0,0.0,0.0,0.0,0.0,0.0,0.0,0.0,0.0,0.0,0.0,0.0,0.0,0.0,0.0,0.0,0.0,0.0,0.0,0.0,0.0,0.0,0.0,0.0,0.0,0.0,0.0,0.0,0.0,0.0,0.0,0.0,0.0,0.0,0.0,0.0,0.0,0.0,0.0,0.0,0.0,0.0,0.0,0.0,0.0,0.0,0.0,0.0,0.0,0.0,0.0,0.0,0.0,0.0,0.0,0.0,0.0,0.0,0.0,0.0,0.0,0.0,0.0,0.0,0.0,0.0,0.0,0.0,0.0,0.0,0.0,0.0,0.0,0.1964,0.2146,0.2039,0.0,0.0,0.0,0.0,0.0,0.0,0.0,0.0,0.0,0.0,0.0,0.0,0.0,0.0,0.0,0.0,0.0,0.0,0.0,0.0,0.0,0.0,0.0,0.0,0.0,0.0,0.0,0.0,0.0,0.0,0.0,0.0,0.0,0.0,0.0,0.0,0.0,0.0,0.0,0.0,0.0,0.0,0.0,0.0,0.0,0.0,0.0,0.0,0.0,0.0,0.0,0.0,0.0,0.0,0.0,0.0,0.0,0.0,0.0,0.0,0.0,0.0,0.0,0.0,0.0,0.0,0.0,0.0,0.0,0.0,0.0,0.0,0.0,0.0,0.0,0.0,0.0,0.0,0.0,0.0,0.0,0.0,0.0,0.0,0.0,0.0,0.0,0.0,0.0,0.0,0.0,0.0,0.0,0.0,0.0,0.0,0.0,0.0,0.0,0.0,0.0,0.0,0.0,0.0,0.0,0.0,0.0,0.0,0.0,0.0,0.1879,0.2203,0.2599,0.0,0.2722,0.0,0.0,0.0,0.0,0.0,0.0,0.0,0.0,0.0,0.0,0.0,0.0,0.0,0.0,0.0,0.0,0.0,0.0,0.0,0.0,0.0,0.0,0.0,0.0,0.0,0.0,0.0,0.0,0.0,0.0,0.0,0.0,0.0,0.0,0.0,0.0,0.0,0.0,0.0,0.0,0.0,0.0,0.0,0.0,0.0,0.0,0.0,0.0,0.0,0.0,0.0,0.0,0.0,0.0,0.0,0.0,0.0,0.0,0.0,0.0,0.0,0.0,0.0,0.0,0.0,0.0,0.0,0.0,0.0,0.0,0.0,0.0,0.0,0.0,0.0,0.0,0.0,0.0,0.0,0.0,0.0,0.0,0.0,0.0,0.0,0.0,0.0,0.0,0.0,0.0,0.0,0.0,0.0,0.0,0.0,0.0,0.0,0.0,0.0,0.0,0.0,0.0,0.0,0.0,0.0,0.0,0.0,0.0,0.0,0.0,0.0,0.3073,0.3417,0.3603,0.0,0.0,0.0,0.0,0.0,0.0,0.0,0.0,0.0,0.0,0.0,0.0,0.0,0.0,0.0,0.0,0.0,0.0,0.0,0.0,0.0,0.0,0.0,0.0,0.0,0.0,0.0,0.0,0.0,0.0,0.0,0.0,0.0,0.0,0.0,0.0,0.0,0.0,0.0,0.0,0.0,0.0,0.0,0.0,0.0,0.0,0.0,0.0,0.0,0.0,0.0,0.0,0.0,0.0,0.0,0.0,0.0,0.0,0.0,0.0,0.0,0.0,0.0,0.0,0.0,0.0,0.0,0.0,0.0,0.0,0.0,0.0,0.0,0.0,0.0,0.0,0.0,0.0,0.0,0.0,0.0,0.0,0.0,0.0,0.0,0.0,0.0,0.0,0.0,0.0,0.0,0.0,0.0,0.0,0.0,0.0,0.0,0.0,0.0,0.0,0.0,0.0,0.0,0.0,0.0,0.0,0.0,0.0,0.0,0.0,0.3223,0.0,0.3867,0.4129,0.4192,0.4029,0.0,0.0,0.0,0.0,0.0,0.0,0.0,0.0,0.0,0.0,0.0,0.0,0.0,0.0,0.0,0.0,0.0,0.0,0.0,0.0,0.0,0.0,0.0,0.0,0.0,0.0,0.0,0.0,0.0,0.0,0.0,0.0,0.0,0.0,0.0,0.0,0.0,0.0,0.0,0.0,0.0,0.0,0.0,0.0,0.0,0.0,0.0,0.0,0.0,0.0,0.0,0.0,0.0,0.0,0.0,0.0,0.0,0.0,0.0,0.0,0.0,0.0,0.0,0.0,0.0,0.0,0.0,0.0,0.0,0.0,0.0,0.0,0.0,0.0,0.0,0.0,0.0,0.0,0.0,0.0,0.0,0.0,0.0,0.0,0.0,0.0,0.0,0.0,0.0,0.0,0.0,0.0,0.0,0.0,0.0,0.0,0.0,0.0,0.0,0.0,0.0,0.0,0.0,0.0,0.0,0.0,0.0,0.0,0.0,0.3873,0.4014,0.4539,0.4642,0.4405,0.0,0.0,0.0,0.0,0.0,0.0,0.0,0.0,0.0,0.0,0.0,0.0,0.0,0.0,0.0,0.0,0.0,0.0,0.0,0.0,0.0,0.0,0.0,0.0,0.0,0.0,0.0,0.0,0.0,0.0,0.0,0.0,0.0,0.0,0.0,0.0,0.0,0.0,0.0,0.0,0.0,0.0,0.0,0.0,0.0,0.0,0.0,0.0,0.0,0.0,0.0,0.0,0.0,0.0,0.0,0.0,0.0,0.0,0.0,0.0,0.0,0.0,0.0,0.0,0.0,0.0,0.0,0.0,0.0,0.0,0.0,0.0,0.0,0.0,0.0,0.0,0.0,0.0,0.0,0.0,0.0,0.0,0.0,0.0,0.0,0.0,0.0,0.0,0.0,0.0,0.0,0.0,0.0,0.0,0.0,0.0,0.0,0.0,0.0,0.0,0.0,0.0,0.0,0.0,0.0,0.0,0.0,0.0,0.0,0.3624,0.386,0.4412,0.0,0.5039,0.4913,0.0,0.0,0.0,0.0,0.0,0.0,0.0,0.0,0.0,0.0,0.0,0.0,0.0,0.0,0.0,0.0,0.0,0.0,0.0,0.0,0.0,0.0,0.0,0.0,0.0,0.0,0.0,0.0,0.0,0.0,0.0,0.0,0.0,0.0,0.0,0.0,0.0,0.0,0.0,0.0,0.0,0.0,0.0,0.0,0.0,0.0,0.0,0.0,0.0,0.0,0.0,0.0,0.0,0.0,0.0,0.0,0.0,0.0,0.0,0.0,0.0,0.0,0.0,0.0,0.0,0.0,0.0,0.0,0.0,0.0,0.0,0.0,0.0,0.0,0.0,0.0,0.0,0.0,0.0,0.0,0.0,0.0,0.0,0.0,0.0,0.0,0.0,0.0,0.0,0.0,0.0,0.0,0.0,0.0,0.0,0.0,0.0,0.0,0.0,0.0,0.0,0.0,0.0,0.0,0.0,0.0,0.0,0.0,0.0,0.4052,0.0,0.5281,0.0,0.5665,0.5377,0.0,0.0,0.0,0.0,0.0,0.0,0.0,0.0,0.0,0.0,0.0,0.0,0.0,0.0,0.0,0.0,0.0,0.0,0.0,0.0,0.0,0.0,0.0,0.0,0.0,0.0,0.0,0.0,0.0,0.0,0.0,0.0,0.0,0.0,0.0,0.0,0.0,0.0,0.0,0.0,0.0,0.0,0.0,0.0,0.0,0.0,0.0,0.0,0.0,0.0,0.0,0.0,0.0,0.0,0.0,0.0,0.0,0.0,0.0,0.0,0.0,0.0,0.0,0.0,0.0,0.0,0.0,0.0,0.0,0.0,0.0,0.0,0.0,0.0,0.0,0.0,0.0,0.0,0.0,0.0,0.0,0.0,0.0,0.0,0.0,0.0,0.0,0.0,0.0,0.0,0.0,0.0,0.0,0.0,0.0,0.0,0.0,0.0,0.0,0.0,0.0,0.0,0.0,0.0,0.0,0.0,0.0,0.0,0.4288,0.5538,0.6381,0.6597,0.6246,0.6483,0.5779,0.0,0.0,0.0,0.0,0.0,0.0,0.0,0.0,0.0,0.0,0.0,0.0,0.0,0.0,0.0,0.0,0.0,0.0,0.0,0.0,0.0,0.0,0.0,0.0,0.0,0.0,0.0,0.0,0.0,0.0,0.0,0.0,0.0,0.0,0.0,0.0,0.0,0.0,0.0,0.0,0.0,0.0,0.0,0.0,0.0,0.0,0.0,0.0,0.0,0.0,0.0,0.0,0.0,0.0,0.0,0.0,0.0,0.0,0.0,0.0,0.0,0.0,0.0,0.0,0.0,0.0,0.0,0.0,0.0,0.0,0.0,0.0,0.0,0.0,0.0,0.0,0.0,0.0,0.0,0.0,0.0,0.0,0.0,0.0,0.0,0.0,0.0,0.0,0.0,0.0,0.0,0.0,0.0,0.0,0.0,0.0,0.0,0.0,0.0,0.0,0.0,0.0,0.0,0.0,0.0,0.0,0.0,0.0,0.0,0.5679,0.6156,0.6778,0.7434,0.6531,0.6009,0.0,0.0,0.0,0.0,0.0,0.0,0.0,0.0,0.0,0.0,0.0,0.0,0.0,0.0,0.0,0.0,0.0,0.0,0.0,0.0,0.0,0.0,0.0,0.0,0.0,0.0,0.0,0.0,0.0,0.0,0.0,0.0,0.0,0.0,0.0,0.0,0.0,0.0,0.0,0.0,0.0,0.0,0.0,0.0,0.0,0.0,0.0,0.0,0.0,0.0,0.0,0.0,0.0,0.0,0.0,0.0,0.0,0.0,0.0,0.0,0.0,0.0,0.0,0.0,0.0,0.0,0.0,0.0,0.0,0.0,0.0,0.0,0.0,0.0,0.0,0.0,0.0,0.0,0.0,0.0,0.0,0.0,0.0,0.0,0.0,0.0,0.0,0.0,0.0,0.0,0.0,0.0,0.0,0.0,0.0,0.0,0.0,0.0,0.0,0.0,0.0,0.0,0.0,0.0,0.0,0.0,0.0,0.0,0.0,0.729,0.7463,0.7886,0.8495,0.7315,0.664,0.657,0.0,0.0,0.0,0.0,0.0,0.0,0.0,0.0,0.0,0.0,0.0,0.0,0.0,0.0,0.0,0.0,0.0,0.0,0.0,0.0,0.0,0.0,0.0,0.0,0.0,0.0,0.0,0.0,0.0,0.0,0.0,0.0,0.0,0.0,0.0,0.0,0.0,0.0,0.0,0.0,0.0,0.0,0.0,0.0,0.0,0.0,0.0,0.0,0.0,0.0,0.0,0.0,0.0,0.0,0.0,0.0,0.0,0.0,0.0,0.0,0.0,0.0,0.0,0.0,0.0,0.0,0.0,0.0,0.0,0.0,0.0,0.0,0.0,0.0,0.0,0.0,0.0,0.0,0.0,0.0,0.0,0.0,0.0,0.0,0.0,0.0,0.0,0.0,0.0,0.0,0.0,0.0,0.0,0.0,0.0,0.0,0.0,0.0,0.0,0.0,0.0,0.0,0.0,0.0,0.0,0.0,0.0,0.0,0.9945,1.0021,0.9836,0.9392,0.8653,0.7588,0.0,0.0,0.0,0.0,0.0,0.0,0.0,0.0,0.0,0.0,0.0,0.0,0.0,0.0,0.0,0.0,0.0,0.0,0.0,0.0,0.0,0.0,0.0,0.0,0.0,0.0,0.0,0.0,0.0,0.0,0.0,0.0,0.0,0.0,0.0,0.0,0.0,0.0,0.0,0.0,0.0,0.0,0.0,0.0,0.0,0.0,0.0,0.0,0.0,0.0,0.0,0.0,0.0,0.0,0.0,0.0,0.0,0.0,0.0,0.0,0.0,0.0,0.0,0.0,0.0,0.0,0.0,0.0,0.0,0.0,0.0,0.0,0.0,0.0,0.0,0.0,0.0,0.0,0.0,0.0,0.0,0.0,0.0,0.0,0.0,0.0,0.0,0.0,0.0,0.0,0.0,0.0,0.0,0.0,0.0,0.0,0.0,0.0,0.0,0.0,0.0,0.0,0.0,0.0,0.0,0.0,0.0,0.0,0.0,1.062,1.1602,1.1869,1.1326,0.9215,0.8074,0.0,0.0,0.0,0.0,0.0,0.0,0.0,0.0,0.0,0.0,0.0,0.0,0.0,0.0,0.0,0.0,0.0,0.0,0.0,0.0,0.0,0.0,0.0,0.0,0.0,0.0,0.0,0.0,0.0,0.0,0.0,0.0,0.0,0.0,0.0,0.0,0.0,0.0,0.0,0.0,0.0,0.0,0.0,0.0,0.0,0.0,0.0,0.0,0.0,0.0,0.0,0.0,0.0,0.0,0.0,0.0,0.0,0.0,0.0,0.0,0.0,0.0,0.0,0.0,0.0,0.0,0.0,0.0,0.0,0.0,0.0,0.0,0.0,0.0,0.0,0.0,0.0,0.0,0.0,0.0,0.0,0.0,0.0,0.0,0.0,0.0,0.0,0.0,0.0,0.0,0.0,0.0,0.0,0.0,0.0,0.0,0.0,0.0,0.0,0.0,0.0,0.0,0.0,0.0,0.0,0.0,0.0,0.0,1.0945,1.2442,1.3416,1.3749,1.3454,1.0931,0.9343,0.0,0.0,0.0,0.0,0.0,0.0,0.0,0.0,0.0,0.0,0.0,0.0,0.0,0.0,0.0,0.0,0.0,0.0,0.0,0.0,0.0,0.0,0.0,0.0,0.0,0.0,0.0,0.0,0.0,0.0,0.0,0.0,0.0,0.0,0.0,0.0,0.0,0.0,0.0,0.0,0.0,0.0,0.0,0.0,0.0,0.0,0.0,0.0,0.0,0.0,0.0,0.0,0.0,0.0,0.0,0.0,0.0,0.0,0.0,0.0,0.0,0.0,0.0,0.0,0.0,0.0,0.0,0.0,0.0,0.0,0.0,0.0,0.0,0.0,0.0,0.0,0.0,0.0,0.0,0.0,0.0,0.0,0.0,0.0,0.0,0.0,0.0,0.0,0.0,0.0,0.0,0.0,0.0,0.0,0.0,0.0,0.0,0.0,0.0,0.0,0.0,0.0,0.0,0.0,0.0,0.0,0.0,0.0,1.2679,1.4572,1.5186,1.5482,1.5449,1.3156,1.0891,0.0,0.0,0.0,0.0,0.0,0.0,0.0,0.0,0.0,0.0,0.0,0.0,0.0,0.0,0.0,0.0,0.0,0.0,0.0,0.0,0.0,0.0,0.0,0.0,0.0,0.0,0.0,0.0,0.0,0.0,0.0,0.0,0.0,0.0,0.0,0.0,0.0,0.0,0.0,0.0,0.0,0.0,0.0,0.0,0.0,0.0,0.0,0.0,0.0,0.0,0.0,0.0,0.0,0.0,0.0,0.0,0.0,0.0,0.0,0.0,0.0,0.0,0.0,0.0,0.0,0.0,0.0,0.0,0.0,0.0,0.0,0.0,0.0,0.0,0.0,0.0,0.0,0.0,0.0,0.0,0.0,0.0,0.0,0.0,0.0,0.0,0.0,0.0,0.0,0.0,0.0,0.0,0.0,0.0,0.0,0.0,0.0,0.0,0.0,0.0,0.0,0.0,0.0,0.0,0.0,0.0,0.0,0.0,1.3317,1.4723,1.5924,1.671,1.7005,1.3887,1.1339,0.0,0.0,0.0,0.0,0.0,0.0,0.0,0.0,0.0,0.0,0.0,0.0,0.0,0.0,0.0,0.0,0.0,0.0,0.0,0.0,0.0,0.0,0.0,0.0,0.0,0.0,0.0,0.0,0.0,0.0,0.0,0.0,0.0,0.0,0.0,0.0,0.0,0.0,0.0,0.0,0.0,0.0,0.0,0.0,0.0,0.0,0.0,0.0,1.1016,0.0,0.0,0.0,0.0,0.0,0.0,0.0,0.0,0.0,0.0,0.0,0.0,0.0,0.0,0.0,0.0,0.0,0.0,0.0,0.0,0.0,0.0,0.0,0.0,0.0,0.0,0.0,0.0,0.0,0.0,0.0,0.0,0.0,0.0,0.0,0.0,0.0,0.0,0.0,0.0,0.0,0.0,0.0,0.0,0.0,0.0,0.0,0.0,0.0,0.0,0.0,0.0,0.0,0.0,0.0,0.0,0.0,0.0,0.0,1.4392,1.5856,1.7127,1.7553,1.6991,1.5143,1.2969,0.0,0.0,0.0,0.0,0.0,0.0,0.0,0.0,0.0,0.0,0.0,0.0,0.0,0.0,0.0,0.0,0.0,0.0,0.0,0.0,0.0,0.0,0.0,0.0,0.0,0.0,0.0,0.0,0.0,0.0,0.0,0.0,0.0,0.0,0.0,0.0,0.0,0.0,0.0,0.0,0.0,0.0,0.0,0.0,0.0,0.0,0.0,0.0,0.0,0.0,0.0,0.0,0.0,0.0,0.0,0.0,0.0,0.0,0.0,0.0,0.0,0.0,0.0,0.0,0.0,0.0,0.0,0.0,0.0,0.0,0.0,0.0,0.0,0.0,0.0,0.0,0.0,0.0,0.0,0.0,0.0,0.0,0.0,0.0,0.0,0.0,0.0,0.0,0.0,0.0,0.0,0.0,0.0,0.0,0.0,0.0,0.0,0.0,0.0,0.0,0.0,0.0,0.0,0.0,0.0,0.0,0.0,1.3524,1.5351,1.7075,1.8247,1.8171,1.6782,1.6447,1.476,1.1569,0.0,0.0,0.0,0.0,0.0,0.0,0.0,0.0,0.0,0.0,0.0,0.0,0.0,0.0,0.0,0.0,0.0,0.0,0.0,0.0,0.0,0.0,0.0,0.0,0.0,0.0,0.0,0.0,0.0,0.0,0.0,0.0,0.0,0.0,0.0,0.0,0.0,0.0,1.0069,1.0726,0.0,0.0,0.0,0.0,0.0,0.0,0.0,0.0,1.1503,0.0,0.0,0.0,0.0,0.0,0.0,0.0,0.0,0.0,0.0,0.0,0.0,0.0,0.0,0.0,0.0,0.0,0.0,0.0,0.0,0.0,0.0,0.0,0.0,0.0,0.0,0.0,0.0,0.0,0.0,0.0,0.0,0.0,0.0,0.0,0.0,0.0,0.0,0.0,0.0,0.0,0.0,0.0,0.0,0.0,0.0,0.0,0.0,0.0,0.0,0.0,0.0,0.0,0.0,0.0,0.0,1.3176,1.4074,1.5404,1.7221,1.843,1.8637,1.7766,1.7084,1.5205,1.2158,0.0,0.0,0.0,0.0,0.0,0.0,0.0,0.0,0.0,0.0,0.0,0.0,0.0,0.0,0.0,0.0,0.0,0.0,0.0,0.0,0.0,0.0,0.0,0.0,0.0,0.0,0.0,0.0,0.0,0.0,0.0,0.0,0.0,0.0,0.0,0.0,0.0,0.0,0.0,1.1569,1.207,0.0,0.0,0.0,0.0,0.0,0.0,0.0,0.0,1.1876,0.0,0.0,0.0,0.0,0.0,0.0,0.0,0.0,0.0,0.0,0.0,0.0,0.0,0.0,0.0,0.0,0.0,0.0,0.0,0.0,0.0,0.0,0.0,0.0,0.0,0.0,0.0,0.0,0.0,0.0,0.0,0.0,0.0,0.0,0.0,0.0,0.0,0.0,0.0,0.0,0.0,0.0,0.0,0.0,0.0,0.0,0.0,0.0,0.0,0.0,0.0,0.0,0.0,0.0,0.0,1.2934,1.5028,1.6671,1.7862,1.9153,1.9271,1.8129,1.6969,1.4971,0.0,0.0,0.0,0.0,0.0,0.0,0.0,0.0,0.0,0.0,0.0,0.0,0.0,0.0,0.0,0.0,0.0,0.0,0.0,0.0,0.0,0.0,0.0,0.0,0.0,0.0,0.0,0.0,0.0,0.0,0.0,0.0,0.0,0.0,0.0,0.0,0.0,0.0,0.0,0.0,1.2449,1.2971,1.3103,0.0,0.0,0.0,0.0,0.0,0.0,1.2901,1.2365,0.0,0.0,0.0,0.0,0.0,0.0,0.0,0.0,0.0,0.0,0.0,0.0,0.0,0.0,0.0,0.0,0.0,0.0,0.0,0.0,0.0,0.0,0.0,0.0,0.0,0.0,0.0,0.0,0.0,0.0,0.0,0.0,0.0,0.0,0.0,0.0,0.0,0.0,0.0,0.0,0.0,0.0,0.0,0.0,0.0,0.0,0.0,0.0,0.0,0.0,0.0,0.0,0.0,0.0,0.0,1.243,1.5703,1.7744,1.8444,1.9811,1.9793,1.8261,1.6882,1.4832,0.0,0.0,0.0,0.0,0.0,0.0,0.0,0.0,0.0,0.0,0.0,0.0,0.0,0.0,0.0,0.0,0.0,0.0,0.0,0.0,0.0,0.0,0.0,0.0,0.0,0.0,0.0,0.0,0.0,0.0,0.0,0.0,0.0,0.0,0.0,0.0,0.0,0.0,0.0,0.0,0.0,1.4126,1.4215,1.4697,0.0,0.0,0.0,0.0,1.4714,1.4184,0.0,0.0,0.0,0.0,0.0,0.0,0.0,0.0,0.0,0.0,0.0,0.0,0.0,0.0,0.0,0.0,0.0,0.0,0.0,0.0,0.0,0.0,0.0,0.0,0.0,0.0,0.0,0.0,0.0,0.0,0.0,0.0,0.0,0.0,0.0,0.0,0.0,0.0,0.0,0.0,0.0,0.0,0.0,0.0,0.0,0.0,0.0,0.0,0.0,0.0,0.0,0.0,0.0,0.0,0.0,0.0,1.2539,1.533,1.7345,1.8487,1.9876,1.9874,1.843,1.7444,1.5439,0.0,0.0,0.0,0.0,0.0,0.0,0.0,0.0,0.0,0.0,0.0,0.0,0.0,0.0,0.0,0.0,0.0,0.0,0.0,0.0,0.0,0.0,0.0,0.0,0.0,0.0,0.0,0.0,0.0,0.0,0.0,0.0,0.0,0.0,0.0,0.0,0.0,0.0,0.0,0.0,0.0,1.5871,1.5973,1.5534,1.5383,0.0,0.0,1.5613,1.7112,1.7272,0.0,0.0,0.0,0.0,0.0,0.0,0.0,0.0,0.0,0.0,0.0,0.0,0.0,0.0,0.0,0.0,0.0,0.0,0.0,0.0,0.0,0.0,0.0,0.0,0.0,0.0,0.0,0.0,0.0,0.0,0.0,0.0,0.0,0.0,0.0,0.0,0.0,0.0,0.0,0.0,0.0,0.0,0.0,0.0,0.0,0.0,0.0,0.0,0.0,0.0,0.0,0.0,0.0,0.0,0.0,1.2265,1.2946,1.6482,1.8589,1.9123,2.0091,2.0093,1.904,1.7,1.4863,0.0,0.0,0.0,0.0,0.0,0.0,0.0,0.0,0.0,0.0,0.0,0.0,0.0,0.0,0.0,0.0,0.0,0.0,0.0,0.0,0.0,0.0,0.0,0.0,0.0,0.0,0.0,0.0,0.0,0.0,0.0,0.0,0.0,0.0,0.0,0.0,0.0,0.0,0.0,0.0,0.0,0.0,1.7024,1.7574,0.0,0.0,0.0,1.8375,1.9145,0.0,0.0,0.0,0.0,0.0,0.0,0.0,0.0,0.0,0.0,0.0,0.0,0.0,0.0,0.0,0.0,0.0,0.0,0.0,0.0,0.0,0.0,0.0,0.0,0.0,0.0,0.0,0.0,0.0,0.0,0.0,0.0,0.0,0.0,0.0,0.0,0.0,0.0,0.0,0.0,0.0,0.0,0.0,0.0,0.0,0.0,0.0,0.0,0.0,0.0,0.0,0.0,0.0,0.0,0.0,0.0,0.0,1.3225,1.7402,1.9584,1.9617,2.0261,2.0263,1.9514,1.6793,0.0,0.0,0.0,0.0,0.0,0.0,0.0,0.0,0.0,0.0,0.0,0.0,0.0,0.0,0.0,0.0,0.0,0.0,0.0,0.0,0.0,0.0,0.0,0.0,0.0,0.0,0.0,0.5711,0.0,0.0,0.0,0.0,0.0,0.0,0.0,0.0,0.0,0.0,0.0,0.0,0.0,0.0,1.7993,1.8196,1.949,2.0333,0.0,0.0,2.0664,2.0719,2.0363,1.9273,0.0,0.0,0.0,0.0,0.0,0.0,0.0,0.0,0.0,0.0,0.0,0.0,0.0,0.0,0.0,0.0,0.0,0.0,0.0,0.0,0.0,0.0,0.0,0.0,0.0,0.0,0.0,0.0,0.0,0.0,0.0,0.0,0.0,0.0,0.0,0.0,0.0,0.0,0.0,0.0,0.0,0.0,0.0,0.0,0.0,0.0,0.0,0.0,0.0,0.0,0.0,0.0,0.0,0.0,0.0,1.3427,1.7455,1.9608,1.9617,2.0316,2.0333,1.9584,1.7388,1.5203,0.0,0.0,0.0,0.0,0.0,0.0,0.0,0.0,0.0,0.0,0.0,0.0,0.0,0.0,0.0,0.0,0.0,0.0,0.0,0.0,0.0,0.0,0.0,0.0,0.0,0.0,0.0,0.0,0.0,0.0,0.0,0.0,0.0,0.0,0.0,0.0,0.0,0.0,0.0,0.0,0.0,1.9096,1.9829,2.0777,2.1694,0.0,0.0,2.1599,2.1631,2.2209,2.1284,1.7261,0.0,0.0,0.0,0.0,0.0,0.0,0.0,0.0,0.0,0.0,0.0,0.0,0.0,0.0,0.0,0.0,0.0,0.0,0.0,0.0,0.0,0.0,0.0,0.0,0.0,0.0,0.0,0.0,0.0,0.0,0.0,0.0,0.0,0.0,0.0,0.0,0.0,0.0,0.0,0.0,0.0,0.0,0.0,0.0,0.0,0.0,0.0,0.0,0.0,0.0,0.0,0.0,0.0,1.3564,1.426,1.7963,2.0202,2.0786,2.0609,2.0388,2.011,1.7889,1.5916,0.0,0.0,0.0,0.0,0.0,0.0,0.0,0.0,0.0,0.0,0.0,0.0,0.0,0.0,0.0,0.0,0.0,0.0,0.0,0.0,0.0,0.0,0.0,0.0,0.0,0.0,0.0,0.0,0.8183,0.8651,0.9292,0.0,0.0,0.0,0.0,0.0,0.0,0.0,0.0,0.0,0.0,2.0793,2.1658,2.2493,0.0,0.0,2.3409,2.3421,2.3964,2.3442,2.2251,2.0131,1.8908,0.0,0.0,0.0,0.0,0.0,0.0,0.0,0.0,0.0,0.0,0.0,0.0,0.0,0.0,0.0,0.0,0.0,0.0,0.0,0.0,0.0,0.0,0.0,0.0,0.0,0.0,0.0,0.0,0.0,0.0,0.0,0.0,0.0,0.0,0.0,0.0,0.0,0.0,0.0,0.0,0.0,0.0,0.0,0.0,0.0,0.0,0.0,0.0,0.0,0.0,0.0,0.0,1.3854,1.4842,1.8367,2.0645,2.1576,2.1046,2.0632,2.035,1.8428,1.6651,0.0,0.0,0.0,0.0,0.0,0.0,0.0,0.0,0.0,0.0,0.0,0.0,0.0,0.0,0.0,0.0,0.0,0.0,0.0,0.0,0.0,0.0,0.0,0.0,0.0,0.0,0.0,0.0,0.8812,0.9135,0.9858,0.0,0.0,0.0,0.0,0.0,0.0,0.0,0.0,0.0,0.0,2.2173,2.3041,2.3855,2.4423,2.4509,2.4562,2.463,2.4742,2.398,2.2927,2.1621,0.0,0.0,0.0,0.0,0.0,0.0,0.0,0.0,0.0,0.0,0.0,0.0,0.0,0.0,0.0,0.0,0.0,0.0,0.0,0.0,0.0,0.0,0.0,0.0,0.0,0.0,0.0,0.0,0.0,0.0,0.897,0.0,0.0,0.0,0.0,0.0,0.0,0.0,0.0,0.0,0.0,0.0,0.0,0.0,0.0,0.0,0.0,0.0,0.0,0.0,0.0,0.0,0.0,1.4045,1.4949,1.856,2.0793,2.16,2.1583,2.1209,2.0419,1.8955,1.7453,1.5899,0.0,0.0,0.0,0.0,0.0,0.0,0.0,0.0,0.0,0.0,0.0,0.0,0.0,0.0,0.0,0.0,0.0,0.0,0.0,0.0,0.0,0.0,0.0,0.0,0.0,0.0,0.9625,0.9783,0.9884,0.0,0.0,0.0,0.0,0.0,0.0,0.0,0.0,0.0,0.0,2.1092,2.2997,2.3861,2.4724,2.5272,2.5437,2.5449,2.4916,2.341,2.377,2.3435,0.0,0.0,0.0,0.0,0.0,0.0,0.0,0.0,0.0,0.0,0.0,0.0,0.0,0.0,0.0,0.0,0.0,0.0,0.0,0.0,0.0,0.0,0.0,0.0,0.0,0.0,0.0,1.1945,1.1192,0.0,0.0,0.0,0.0,0.0,0.0,0.0,0.0,0.0,0.0,0.0,1.615,1.7386,0.0,0.0,0.0,0.0,0.0,0.0,0.0,0.0,0.0,0.0,0.0,0.0,1.4713,1.6718,1.9313,2.1381,2.2794,2.2341,2.1675,2.0887,1.9924,1.8402,1.6302,0.0,0.0,0.0,0.0,0.0,0.0,0.0,0.0,0.0,0.0,0.0,0.0,0.0,0.0,0.0,0.0,0.0,0.0,0.0,0.0,0.0,0.0,0.0,0.0,0.0,0.9577,0.0,0.0,0.0,0.0,0.0,0.0,0.0,0.0,0.0,0.0,0.0,1.9004,2.1203,2.2735,2.3946,2.4813,2.5178,2.5391,0.0,0.0,0.0,0.0,0.0,0.0,0.0,0.0,0.0,0.0,0.0,0.0,0.0,0.0,2.2043,1.8629,1.7483,1.7162,1.741,0.0,0.0,0.0,0.0,0.0,0.0,0.0,0.0,0.0,0.0,0.0,0.0,0.0,0.0,1.4508,0.0,1.3778,0.0,0.0,0.0,0.0,0.0,0.0,0.0,0.0,1.7843,1.8858,1.8716,1.9975,1.9927,0.0,1.9139,1.7449,0.0,0.0,0.0,0.0,0.0,0.0,0.0,0.0,1.5786,1.7999,2.0195,2.2035,2.341,2.2994,2.2321,2.1536,2.0524,1.9131,1.7292,1.5736,1.4168,0.0,0.0,0.0,0.0,0.0,0.0,0.0,0.0,0.0,0.0,0.0,0.0,0.0,0.0,0.0,0.0,0.0,0.0,0.0,0.0,0.0,0.0,0.0,0.9636,0.0,0.0,0.0,0.0,0.0,0.0,0.0,0.0,0.0,1.7403,1.9086,2.1161,2.3411,2.4217,2.4904,2.577,0.0,0.0,0.0,0.0,0.0,0.0,0.0,2.4714,2.4433,2.4198,2.3806,2.3125,2.3281,2.3515,2.3592,0.0,0.0,2.128,2.0121,1.9764,2.0076,2.0057,2.0175,2.077,2.1292,2.1733,0.0,0.0,0.0,0.0,0.0,0.0,0.0,0.0,1.6346,1.6387,0.0,1.6376,0.0,0.0,0.0,0.0,0.0,1.7435,0.0,0.0,2.1379,2.239,2.1782,2.2659,2.2704,2.2037,2.2916,2.1836,1.889,1.6513,0.0,0.0,0.0,0.0,0.0,0.0,1.7267,1.8886,2.1131,2.2684,2.347,2.3487,2.3101,2.2284,2.0797,1.9627,1.8819,1.7272,1.5741,1.4232,1.1983,0.0,0.0,0.0,0.0,0.0,0.0,0.0,0.0,0.0,0.0,0.0,0.0,0.0,0.0,0.0,0.0,0.0,0.0,0.0,0.0,0.9712,0.0,0.0,0.0,0.0,0.0,0.0,0.0,0.0,0.0,0.0,1.9414,2.1352,2.3519,2.5205,0.0,0.0,0.0,0.0,2.5643,2.572,2.5757,2.5496,2.4687,2.5254,2.5508,2.4687,0.0,0.0,2.4668,2.5215,2.5487,2.4695,2.5294,2.5783,2.5704,2.4138,2.3283,2.3975,2.2899,2.2444,2.377,2.4018,2.4326,2.1253,0.0,0.0,0.0,0.0,2.0218,2.1005,2.2608,2.2065,2.1039,1.9698,1.9679,0.0,0.0,0.0,0.0,0.0,0.0,2.094,2.2059,2.349,2.4002,2.3826,2.4093,2.3815,2.3069,2.334,2.3041,2.2114,2.085,1.816,1.4192,0.0,0.0,0.0,0.0,1.8873,2.0412,2.1666,2.2723,2.355,2.3568,2.3208,2.2455,2.0854,1.9917,1.9722,1.8223,1.6938,1.5907,1.4195,0.0,0.0,0.0,0.0,0.0,0.0,0.0,0.0,0.0,0.0,0.0,0.0,0.0,0.0,0.0,0.0,0.0,0.0,0.0,1.0437,1.0631,1.1479,0.0,0.0,0.0,0.0,0.0,0.0,0.0,0.0,0.0,2.3518,2.4233,2.5148,0.0,0.0,2.6526,2.6753,2.6614,2.6691,2.7366,2.7475,0.0,0.0,2.733,2.7414,2.7207,2.6367,2.6016,2.7012,2.7321,2.735,2.7109,2.7284,2.7415,2.7316,2.5994,2.4944,2.5053,2.4733,2.4548,2.4987,2.5122,2.5196,2.5535,2.4684,2.2671,2.2429,2.3349,2.2649,2.3197,2.4552,2.4112,2.3206,2.2076,2.2394,2.134,1.9322,1.9354,0.0,0.0,0.0,2.3213,2.4438,2.4902,2.5134,2.514,2.514,2.4884,2.4397,2.4164,2.4073,2.4031,2.3336,2.0993,1.7218,0.0,0.0,1.7281,1.8977,2.0478,2.1768,2.2617,2.3286,2.3814,2.3771,2.3546,2.3082,2.1487,2.0625,2.0621,1.9166,1.8002,1.7257,1.5987,1.4387,0.0,0.0,0.0,0.0,0.0,0.0,0.0,0.0,0.0,0.0,0.0,0.8627,0.7883,0.0,0.0,0.0,1.0821,1.156,1.2406,1.3161,0.0,0.0,0.0,0.0,0.0,0.0,0.0,2.2022,2.4166,2.5878,2.6776,2.7014,2.7281,2.779,2.7609,2.7507,2.7864,0.0,2.7587,2.8171,2.8237,2.825,2.8247,2.8249,2.8237,2.826,2.744,2.7048,2.7996,2.8689,2.8911,2.8343,2.8119,2.8102,2.8115,2.7212,2.649,2.6488,2.6494,2.6499,2.6499,2.6499,2.6497,2.8751,2.9789,2.5934,2.4653,2.5081,2.4361,2.4076,2.4058,2.4088,2.3963,2.3867,2.4569,2.4513,2.3816,2.3821,0.0,2.4736,2.4724,2.5111,2.5838,2.5909,2.5898,2.5844,2.5928,2.5904,2.5839,2.529,2.5015,2.5002,2.4463,2.3428,2.1931,2.0932,2.0396,2.035,2.1155,2.2066,2.3001,2.3708,2.4145,2.4196,2.4097,2.4031,2.4023,2.2414,2.1539,2.1493,2.0038,1.8933,1.8318,1.741,1.6288,1.4844,0.0,0.0,0.0,0.0,0.0,0.0,0.0,0.0,0.0,0.0,0.0,0.0,0.0,0.0,0.0,1.2892,0.0,1.5118,1.6604,0.0,0.0,0.0,1.9519,2.0589,2.2745,2.4452,2.5318,0.0,0.0,2.9111,2.9435,2.9588,2.9611,2.8893,2.8693,2.9475,2.8891,2.8407,2.858,2.8547,2.8511,2.8688,2.865,2.8633,2.8602,2.8465,2.846,2.8499,2.9567,2.9951,2.8706,2.8311,2.8348,2.832,2.8296,2.8202,2.8227,2.803,2.7933,2.7873,2.7855,2.7815,2.8333,2.8567,2.6968,2.7411,2.9101,2.8916,2.8827,2.8827,2.8827,2.7926,2.6435,2.6596,2.5682,2.395,2.3955,2.4356,2.5094,2.5071,2.5471,2.621,2.6855,2.6842,2.6297,2.6877,2.6847,2.6277,2.6111,2.6096,2.6187,2.6051,2.5501,2.4612,2.4311,2.3194,2.1393,2.2681,2.3523,2.3818,2.4001,2.4146,2.4269,2.4247,2.4261,2.4293,2.2668,2.1828,2.1842,2.0296,1.9355,1.9175,1.8394,1.7526,1.6621,1.4272,0.0,0.0,0.0,0.0,0.0,0.0,0.0,0.0,0.0,1.3403,1.0796,0.0,1.5059,0.0,1.5866,1.6817,1.7626,1.8129,0.0,0.0,2.1998,2.2884,2.5634,2.6005,2.6367,2.7228,2.8264,2.9022,2.9318,2.9965,3.0433,3.0467,2.9755,2.9293,2.9572,2.9439,2.9499,3.0043,3.0183,3.0284,3.0208,3.0234,3.0173,3.017,3.0138,3.01,3.0077,3.0357,3.0498,3.0077,3.0001,3.0014,2.9973,2.9983,2.994,2.9882,2.8937,2.7991,2.7991,2.801,2.8008,2.9483,2.9819,2.9033,2.95,3.0671,2.9465,2.9004,2.9154,2.9477,2.9005,2.8028,2.8464,2.8099,2.7203,2.6933,2.6819,2.6767,2.6421,2.6284,2.6336,2.6801,2.6776,2.6399,2.7243,2.7416,2.6982,2.7111,2.7187,2.7253,2.6993,2.6647,2.6269,2.6269,2.5349,2.3661,2.3994,2.4279,2.4411,2.4491,2.4534,2.4592,2.452,2.4296,2.3939,2.3062,2.2241,2.1532,2.0636,1.9859,1.9173,1.8662,1.8071,1.7347,1.5673,1.4543,0.0,0.0,0.0,0.0,0.0,0.0,0.0,0.0,0.0,0.0,0.0,1.7209,1.7263,1.8369,1.9568,2.0762,2.1583,2.2955,2.5196,2.5115,2.5658,2.7596,2.7786,2.7958,2.8481,2.9293,2.9858,2.9948,3.0422,3.0747,3.0795,3.0374,3.0087,3.0136,3.0121,3.0297,3.0723,3.0823,3.087,3.0857,3.084,3.0794,3.0771,3.0754,3.0734,3.0668,3.0622,3.0602,3.0641,3.0639,3.0645,3.0645,3.0615,3.0597,3.0404,2.9752,2.9168,2.914,2.9096,2.9023,3.131,3.1939,3.1292,3.0994,3.0805,2.8499,2.7669,2.7924,2.8544,2.893,2.9105,2.9844,3.0489,3.0918,3.041,2.9712,2.885,2.8138,2.742,2.6693,2.6584,2.6534,2.6587,2.7286,2.7608,2.7653,2.7959,2.8133,2.8152,2.7733,2.7499,2.7391,2.7395,2.7,2.6179,2.5206,2.4735,2.4816,2.4924,2.4988,2.5003,2.4832,2.4373,2.3652,2.3404,2.2608,2.1184,2.1047,2.0407,1.9122,1.9027,1.8695,1.8008,1.7155,1.6644,0.0,1.5774,0.0,0.0,0.0,0.0,0.0,0.0,0.0,0.0,1.9152,1.9344,1.9344,2.0862,2.2476,2.4052,2.5493,2.6727,2.7541,2.7747,2.787,2.8124,2.8846,2.9332,2.9397,3.0127,3.0626,3.0614,3.0735,3.0785,3.0801,3.0771,3.0704,3.0776,3.0741,3.0742,3.0801,3.0784,3.0814,3.0801,3.0798,3.0782,3.0717,3.0742,3.0763,3.0638,3.0607,3.0643,3.0663,3.0696,3.0694,3.0696,3.0606,3.053,3.0455,3.0321,3.0263,3.0325,3.0224,3.0283,3.2498,3.2083,3.2095,3.1357,3.0208,3.0337,3.0402,3.0415,3.0561,3.0373,2.9945,2.9695,2.9617,2.9738,2.9612,2.9445,2.9288,2.914,2.8974,2.8796,2.8069,2.7808,2.7878,2.7381,2.7186,2.7339,2.8011,2.8416,2.8509,2.9033,2.9009,2.8409,2.8417,2.8005,2.7199,0.0,0.0,0.0,2.494,2.4988,2.4988,2.496,2.4867,2.4678,2.3385,0.0,2.219,2.155,2.1029,2.0784,2.1378,0.0,0.0,0.0,0.0,0.0,0.0,0.0,0.0,0.0,0.0,0.0,2.0107,1.9936,1.9817,2.1585,2.276,2.2795,2.428,2.5667,2.6671,2.7054,2.7599,2.8428,2.8657,2.9072,2.9873,3.0174,3.0369,3.0493,3.0645,3.0765,3.0825,3.0776,3.0825,3.0895,3.0802,3.079,3.0841,3.0852,3.08,3.0801,3.0794,3.08,3.0801,3.0762,3.0727,3.0694,3.0699,3.0722,3.0686,3.0675,3.0653,3.0637,3.0661,3.0665,3.0631,3.0533,3.0446,3.0492,3.0347,3.0232,3.0196,3.0154,3.0134,3.4055,0.0,3.3505,3.2963,0.0,3.2701,3.2628,3.2204,3.1556,3.1176,3.101,3.1112,3.118,3.118,3.118,3.0957,3.0573,3.0245,2.9848,2.9438,2.9072,2.8938,2.8975,2.8167,2.7808,2.7893,2.7934,2.8202,2.8654,2.907,2.9284,2.9305,2.929,2.8892,2.8085,2.6823,2.5778,2.4903,2.496,2.4988,2.4988,2.4988,2.4798,2.4381,0.0,0.0,0.0,0.0,0.0,0.0,0.0,0.0,0.0,0.0,0.0,2.0581,2.0578,2.0386,2.0047,2.113,2.1983,2.24,2.3193,2.3158,2.1926,2.373,2.4943,2.4965,2.6103,2.7187,2.7994,2.8085,2.848,2.9358,2.9549,2.9859,3.0393,3.0544,3.0789,3.1294,3.1386,3.1565,3.2029,3.209,3.2092,3.2098,3.2084,3.2049,3.1998,3.1333,3.0801,3.0794,3.0799,3.08,3.0746,3.0719,3.073,3.0707,3.0695,3.071,3.0697,3.0695,3.0688,3.0659,3.0633,3.0606,3.0587,3.0472,3.0406,3.0341,3.0273,3.0143,3.0052,3.009,3.0114,3.5906,3.5875,3.5313,3.4991,3.483,3.4849,3.4354,3.3501,0.0,0.0,0.0,3.2482,3.2843,3.2854,3.2849,3.2551,3.2052,3.1496,3.093,3.0398,3.0218,3.0137,3.0118,2.9229,2.8739,2.8581,2.7987,2.7976,2.8476,2.8642,2.9044,2.9646,2.9836,2.948,2.8665,2.7343,2.6235,2.5481,2.5151,2.4988,2.4988,2.4988,2.4659,2.3935,2.4469,2.4131,2.2779,2.3351,2.3067,2.1734,2.1769,2.1791,2.1661,2.1794,2.2135,2.2687,2.3484,2.3632,2.301,2.4226,2.4757,2.4185,2.5401,2.561,2.4223,2.5553,2.6482,2.6633,2.7301,2.8048,2.8817,2.8907,2.9251,3.0114,3.0322,3.0494,3.0714,3.0888,3.137,3.2032,3.2216,3.2502,3.3209,3.3314,3.3379,3.3379,3.3249,3.3393,3.3228,3.2217,3.1416,3.1425,3.1483,3.1294,3.1213,3.1258,3.1177,3.131,3.0964,3.0807,3.1059,3.0906,3.0791,3.0999,3.072,3.0563,3.0589,3.0626,3.0488,3.027,3.0332,3.0293,3.0046,3.0072,3.013,3.8204,3.7572,3.7691,3.6966,3.5703,3.5727,3.5219,3.4311,3.272,3.1664,3.1074,3.187,3.2245,3.2221,3.2226,3.255,3.3085,3.2983,3.3285,0.0,3.2425,3.1812,3.1841,3.0359,2.9292,2.8721,2.8585,2.8218,2.7812,2.8385,2.8756,2.8945,2.9556,2.9499,2.8737,2.8457,2.7934,2.7149,2.5724,2.4988,2.4988,2.4988,2.4946,2.4817,2.4207,2.3787,2.3556,2.3651,2.3594,2.3389,2.4055,2.4128,2.342,2.4014,2.4188,2.3635,2.4336,2.4757,2.464,2.4871,2.5253,2.5799,2.6061,2.6084,2.5913,2.6747,2.76,2.8252,2.8438,2.8855,2.9608,2.9722,2.9874,3.0221,3.083,3.1341,3.1593,3.2225,3.273,3.299,3.3091,3.3148,3.3433,3.3497,3.3553,3.3456,3.3657,3.3474,3.3526,3.3214,3.3046,3.3027,3.2985,3.2945,3.2743,3.2897,3.2787,3.2945,3.1674,3.1322,3.2534,3.1831,3.1285,3.1697,3.1226,3.0755,3.0715,3.0989,3.0993,3.0637,3.0844,3.0956,3.0445,3.0336,3.0219,3.9355,3.901,3.9116,3.8741,3.8034,3.7611,3.6931,3.6043,3.4843,3.3259,3.165,3.1931,3.1846,3.1508,3.1916,3.2291,3.2671,3.3165,3.3633,3.3963,3.3727,3.3648,3.3545,3.1989,3.1041,3.0673,2.976,2.9158,2.8843,2.8741,2.868,2.8718,2.9078,2.9271,2.9324,2.8926,2.8532,2.8123,2.6497,2.5648,2.5651,2.5234,2.4988,2.4988,2.4605,2.4412,2.4393,2.4397,2.4416,2.4397,2.4776,2.4817,2.4453,2.4798,2.4833,2.445,2.4776,2.4988,2.4988,2.5401,2.5822,2.6197,2.7043,2.7555,2.757,2.7919,2.8313,2.8661,2.9078,2.9476,2.9874,3.0313,3.0695,3.088,3.1647,3.2247,3.2488,3.2817,3.3316,3.379,3.3934,3.4142,3.4649,3.4741,3.4761,3.4763,3.4756,3.4742,3.4764,3.4745,3.4371,3.3559,3.3329,3.3304,3.3312,3.3299,3.3295,3.3291,3.2646,3.2472,3.3268,3.2935,3.3001,3.2658,3.2265,3.2063,3.1851,3.1943,3.1912,3.1799,3.1808,3.1836,3.1622,3.155,3.1154,3.9895,3.9895,3.9895,3.9895,3.9843,3.9248,3.8584,3.7883,3.7111,3.5441,3.3404,3.2753,3.2005,3.1322,3.1727,3.191,3.1995,3.2642,3.3086,3.3332,3.4207,3.4624,3.4529,3.3425,3.2876,3.2553,3.1166,3.0385,3.012,2.9381,2.8892,2.8703,2.8532,2.8836,2.9593,2.9021,2.8775,2.8855,2.7513,2.6592,2.6197,2.5591,2.5193,2.5007,2.4984,2.4988,2.4988,2.4988,2.4988,2.4988,2.4988,2.4988,2.4988,2.4988,2.4988,2.5007,2.5177,2.5344,2.5575,2.6144,2.6558,2.6781,2.7953,2.8779,2.8949,2.8964,2.898,2.9098,2.9801,3.0265,3.0414,3.1064,3.163,3.1843,3.2595,3.3189,3.3371,3.3552,3.3918,3.4645,3.4768,3.5063,3.5668,3.5898,3.5826,3.5789,3.5888,3.5926,3.5984,3.5937,3.5277,3.4392,3.3876,3.3959,3.3884,3.3934,3.3967,3.388,3.3662,3.3691,3.3908,3.4492,3.4387,3.3455,3.3269,3.3018,3.284,3.2911,3.2852,3.2653,3.2737,3.2909,3.2596,3.2531,3.2216,3.9895,3.9895,3.9895,3.9895,3.9881,3.9805,3.9673,3.9508,3.8817,3.7902,3.6659,3.4557,3.3114,3.2247,3.1609,3.1359,3.1321,3.1376,3.1835,3.2555,3.3402,3.3809,3.3922,3.4354,3.4282,3.3543,3.261,3.1814,3.1132,3.0242,2.9461,2.8703,2.7976,2.8032,2.8718,2.8741,2.9025,2.976,2.893,2.7744,2.6289,2.6122,2.5743,2.5026,2.5007,2.4988,2.5007,2.4988,2.4988,2.4988,2.4988,2.5003,2.5003,2.5007,2.5007,2.506,2.5705,2.6428,2.7149,2.7339,2.7672,2.8381,2.8589,2.9021,2.9669,2.9787,2.9854,3.0061,3.0746,3.1184,3.1405,3.2131,3.2675,3.2836,3.357,3.4122,3.4315,3.4991,3.5516,3.5554,3.5498,3.5656,3.5762,3.5868,3.5898,3.5889,3.5901,3.594,3.5976,3.5954,3.5881,3.5622,3.5595,3.5549,3.5496,3.5622,3.541,3.538,3.4866,3.4725,3.4892,3.4274,3.3393,3.4142,3.3545,3.3175,3.3196,3.3294,3.3589,3.3295,3.341,3.3662,3.2967,3.284,3.2641,4.0663,4.062,4.0108,3.9895,3.9895,3.9895,3.9895,3.9857,3.9545,3.921,3.8731,3.7282,3.5386,3.3145,3.2288,3.1659,3.1204,3.1185,3.136,3.1758,3.2553,3.3202,3.3714,3.3998,3.4226,3.4401,3.4055,3.3468,3.2482,3.0886,2.9556,2.8703,2.79,2.7922,2.8593,2.8218,2.8389,2.9154,2.887,2.8343,2.7703,2.7198,2.6561,2.5822,2.5708,2.5458,2.5041,2.4988,2.4988,2.4988,2.4988,2.5215,2.5689,2.5708,2.5936,2.6428,2.6766,2.7111,2.7471,2.7919,2.8347,2.868,2.9139,2.957,2.9882,3.0447,3.0834,3.0944,3.1228,3.1602,3.2236,3.3051,3.3614,3.3804,3.4458,3.5013,3.5173,3.5472,3.5706,3.5709,3.5715,3.5725,3.5795,3.5856,3.5892,3.5897,3.5934,3.5971,3.5995,3.5968,3.5957,3.5946,3.5956,3.5951,3.5901,3.588,3.5863,3.5766,3.553,3.5483,3.5403,3.5079,3.4522,3.4847,3.4401,3.4136,3.4305,3.4389,3.456,3.4212,3.4269,3.4579,3.4227,3.4193,3.4138,4.1535,4.1397,4.0601,4.0122,3.9895,3.9895,3.9895,3.9895,3.9895,3.9895,3.9843,3.9267,3.7585,3.5121,3.3714,3.2535,3.1606,3.1303,3.1057,3.0962,3.1701,3.2421,3.3013,3.3543,3.3998,3.4529,3.4756,3.4453,3.3524,3.1454,2.9882,2.9006,2.8017,2.7885,2.8551,2.8089,2.8222,2.8968,2.9044,2.9021,2.8949,2.8446,2.7661,2.6694,2.6561,2.6272,2.5753,2.5696,2.5715,2.5718,2.5748,2.5995,2.6531,2.6619,2.702,2.78,2.7914,2.8025,2.8238,2.8813,2.9114,2.9141,2.9692,3.0102,3.0402,3.1009,3.1665,3.2247,3.2199,3.2558,3.3167,3.4023,3.4536,3.4662,3.5225,3.5602,3.566,3.5706,3.5706,3.5709,3.57,3.573,3.5795,3.5869,3.5912,3.5929,3.5969,3.6015,3.6013,3.6002,3.6011,3.6011,3.6011,3.5993,3.5915,3.5898,3.5877,3.582,3.5725,3.5649,3.5679,3.5402,3.5215,3.508,3.5189,3.516,3.4882,3.5042,3.5167,3.5186,3.5167,3.5148,3.4976,3.5148,3.5148,4.235,4.2211,4.1478,4.0663,3.9919,3.9895,3.9895,3.9895,3.9895,3.9895,3.9895,3.9843,3.9323,3.8178,3.5879,3.3922,3.2444,3.1625,3.0848,3.0238,3.0905,3.1284,3.1412,3.2918,3.3695,3.3809,3.4472,3.4434,3.3619,3.2023,3.0715,2.9859,2.8396,2.7976,2.8646,2.8585,2.9006,2.9589,2.965,2.9783,2.9817,2.9764,2.8953,2.7657,2.7456,2.7401,2.7374,2.7452,2.7433,2.7436,2.7488,2.7576,2.7573,2.7669,2.8117,2.882,2.8938,2.9283,2.9941,3.0107,3.0108,3.0054,3.0183,3.0593,3.1157,3.1553,3.2352,3.3868,3.39,3.4091,3.4312,3.4969,3.548,3.5513,3.5618,3.5679,3.5704,3.5706,3.5706,3.5706,3.5698,3.5723,3.5786,3.5843,3.5927,3.5964,3.5996,3.6013,3.6022,3.6013,3.6012,3.6011,3.601,3.598,3.5902,3.5887,3.5879,3.5852,3.5771,3.5672,3.555,3.5438,3.5344,3.527,3.5219,3.5186,3.5186,3.5186,3.5186,3.5186,3.5186,3.5186,3.5186,3.5186,3.5186,4.2899,4.2331,4.1535,4.1004,4.0677,4.0146,3.9895,3.9895,3.9895,3.9895,3.9895,3.9895,3.9754,3.9394,3.7983,3.6107,3.3975,3.2591,3.153,3.0768,3.0503,3.0654,3.1246,3.1871,3.2402,3.2932,3.3714,3.3998,3.3695,3.307,3.2368,3.1379,2.9848,2.9215,2.929,2.8449,2.8332,2.9063,2.9139,2.9381,2.9859,2.9911,2.9598,2.9048,2.8517,2.8051,2.7549,2.7533,2.7565,2.7592,2.7641,2.7921,2.8463,2.9072,2.9509,2.9797,2.9832,2.9966,3.0232,3.0312,3.0295,3.0285,3.0768,3.1171,3.1614,3.2513,3.3516,3.4134,3.4846,3.5157,3.5273,3.5532,3.5706,3.5706,3.5706,3.5706,3.5706,3.5706,3.5706,3.5709,3.5714,3.5718,3.5754,3.583,3.5905,3.5939,3.5976,3.5992,3.6018,3.6011,3.6011,3.6011,3.6011,3.5965,3.5901,3.5895,3.5881,3.5862,3.5809,3.5722,3.5618,3.5374,3.525,3.5235,3.519,3.5186,3.5186,3.5186,3.5186,3.5186,3.5186,3.5186,3.5186,3.5186,3.5186,4.3587,4.2786,4.2236,4.1668,4.1137,4.0582,4.0146,3.9919,3.9895,3.9895,3.9895,3.9895,3.9895,3.9824,3.9323,3.8078,3.5988,3.3884,3.2383,3.1511,3.0446,3.02,3.073,3.1075,3.1469,3.2132,3.3183,3.3695,3.3695,3.3695,3.3373,3.2743,3.1393,3.073,3.0564,2.9625,2.9275,2.9499,2.9499,2.9711,2.9911,2.9911,2.9911,2.9836,2.9347,2.8901,2.8413,2.8404,2.8438,2.8489,2.8532,2.8852,2.9503,3.0061,3.0407,3.0388,3.0388,3.0404,3.0385,3.0385,3.0491,3.0752,3.1257,3.1747,3.2346,3.3544,3.4286,3.475,3.5226,3.5706,3.5706,3.5706,3.5706,3.5706,3.5706,3.5706,3.5706,3.5706,3.5706,3.5712,3.5714,3.5718,3.5743,3.5806,3.5872,3.5924,3.5976,3.6007,3.6015,3.6011,3.6011,3.6011,3.6011,3.5989,3.5958,3.5936,3.592,3.5887,3.5808,3.5737,3.5623,3.5383,3.5215,3.5194,3.5186,3.5186,3.5186,3.5186,3.5186,3.5186,3.5186,3.5186,3.5186,3.5186,3.5186,4.4421,4.372,4.3682,4.2716,4.1497,4.1175,4.0658,4.0071,3.9914,3.9895,3.9895,3.9895,3.9895,3.9881,3.9786,3.9337,3.8059,3.533,3.352,3.2572,3.0901,3.0143,3.0276,3.0827,3.1162,3.1398,3.286,3.3637,3.3717,3.374,3.3698,3.3547,3.2807,3.23,3.2387,3.2032,3.1777,3.1265,3.1057,3.0749,3.0044,3.0006,2.9991,2.9911,2.9836,2.989,3.0126,3.0122,3.0062,3.0218,3.0333,3.055,3.0441,3.0559,3.0588,3.0579,3.0588,3.0574,3.0588,3.0637,3.1002,3.1483,3.1818,3.2596,3.3695,3.4281,3.4787,3.5383,3.5621,3.5706,3.5706,3.5706,3.5706,3.5706,3.5706,3.5706,3.5706,3.5706,3.5706,3.5709,3.5703,3.5745,3.5779,3.582,3.587,3.5935,3.5992,3.6016,3.6013,3.6011,3.6011,3.6011,3.6011,3.6009,3.601,3.6009,3.595,3.5901,3.5797,3.5698,3.5614,3.5422,3.5266,3.5231,3.5186,3.5186,3.5186,3.5186,3.5186,3.5186,3.5186,3.5186,3.5186,3.5186,3.5186,4.4743,4.4478,4.3929,4.3417,4.2767,4.1706,4.1004,4.0739,4.0184,3.9895,3.9895,3.9895,3.9895,3.9895,3.9895,3.9748,3.9342,3.7239,3.5803,3.4761,3.2672,3.1621,3.1486,3.0824,3.0773,3.1374,3.1897,3.2814,3.3707,3.3879,3.4178,3.4514,3.3864,3.3468,3.338,3.2762,3.2231,3.2061,3.2023,3.1621,3.0886,3.0791,3.0526,2.9968,2.9911,2.9977,3.016,3.0079,3.0135,3.0384,3.0402,3.0458,3.0574,3.0617,3.0617,3.0617,3.0617,3.0617,3.0694,3.1137,3.1514,3.1958,3.2848,3.3701,3.4323,3.4936,3.5358,3.5687,3.5706,3.5706,3.5706,3.5706,3.5706,3.5706,3.5706,3.5706,3.5706,3.5706,3.5706,3.5717,3.5711,3.5713,3.5756,3.5802,3.5883,3.5916,3.5974,3.6019,3.6013,3.6011,3.6011,3.6011,3.6011,3.6011,3.6011,3.6011,3.5983,3.5939,3.583,3.57,3.5591,3.547,3.5332,3.5223,3.5202,3.5186,3.5186,3.5186,3.5186,3.5186,3.5186,3.5186,3.5186,3.5186,3.5186,4.4895,4.4838,4.4364,4.3947,4.3625,4.252,4.1762,4.1194,4.0639,4.0203,3.9951,3.9895,3.9895,3.9895,3.9895,3.9895,3.9767,3.8755,3.809,3.7219,3.46,3.3236,3.2723,3.1316,3.0659,3.1052,3.1372,3.2023,3.3036,3.3438,3.3994,3.4557,3.4217,3.4105,3.4335,3.3804,3.3358,3.3115,3.3043,3.2624,3.1965,3.1794,3.1542,3.107,3.0994,3.1054,3.1165,3.1057,3.0798,3.0487,3.0389,3.048,3.0591,3.0617,3.0617,3.0656,3.0866,3.1062,3.1137,3.1831,3.2449,3.2897,3.3792,3.4568,3.4877,3.5474,3.5687,3.5706,3.5706,3.5706,3.5706,3.5706,3.5706,3.5706,3.5706,3.5706,3.5706,3.5706,3.5706,3.5706,3.5715,3.5702,3.5751,3.5821,3.5891,3.5917,3.5974,3.6021,3.6014,3.6011,3.605,3.605,3.6011,3.6011,3.6011,3.6011,3.6011,3.5954,3.5883,3.5741,3.5611,3.5484,3.5357,3.5243,3.5186,3.5186,3.5186,3.5186,3.5186,3.5186,3.5186,3.5186,3.5186,3.5186,3.5186,4.4895,4.4895,4.4895,4.444,4.3859,4.3624,4.2777,4.156,4.1184,4.0742,4.0133,3.9957,3.9895,3.9881,3.9903,3.9927,3.9868,3.9842,3.9709,3.897,3.6858,3.502,3.3771,3.2401,3.1552,3.1172,3.1476,3.1715,3.21,3.2669,3.3184,3.3887,3.393,3.4334,3.4794,3.5139,3.463,3.417,3.4128,3.3691,3.2922,3.2853,3.276,3.2642,3.2581,3.2599,3.2628,3.2554,3.1985,3.0821,3.087,3.0965,3.0827,3.0752,3.0926,3.0984,3.1504,3.1811,3.2043,3.2681,3.3438,3.4062,3.4394,3.48,3.5474,3.5629,3.5706,3.5706,3.5706,3.5706,3.5706,3.5706,3.5745,3.5784,3.5764,3.5745,3.5784,3.5842,3.5985,3.5995,3.5887,3.5892,3.6162,3.6299,3.6383,3.6327,3.6399,3.6491,3.6484,3.6597,3.6285,3.6363,3.6656,3.6735,3.6949,3.607,3.6186,3.6936,3.6648,3.6246,3.5808,3.5544,3.5381,3.527,3.5328,3.5286,3.5209,3.5233,3.5209,3.5186,3.5186,3.5186,3.5205,3.5205,3.5282,4.4895,4.4895,4.4895,4.4762,4.4515,4.4074,4.3563,4.2896,4.1803,4.1254,4.0753,4.0165,3.9935,3.9892,4.0,4.0003,3.9967,4.0101,4.0148,4.0005,3.9435,3.7335,3.5283,3.3996,3.3384,3.3189,3.2778,3.2673,3.269,3.2885,3.3161,3.3302,3.3339,3.3654,3.4343,3.4435,3.4637,3.4925,3.4951,3.4579,3.3918,3.3768,3.3439,3.2857,3.2864,3.2897,3.2885,3.2923,3.2813,3.2416,3.2391,3.2449,3.2333,3.2333,3.2275,3.2353,3.2565,3.2756,3.2914,3.3574,3.4156,3.441,3.4974,3.5455,3.5648,3.5706,3.5706,3.5706,3.5706,3.5706,3.5706,3.5726,3.5955,3.64,3.6168,3.6055,3.6458,3.6596,3.682,3.7414,3.7218,3.7266,3.7555,3.7978,3.8125,3.7868,3.7747,3.7724,3.756,3.7614,3.7477,3.7789,3.8024,3.7985,3.7672,3.6636,3.6594,3.7777,3.7673,3.7059,3.6376,3.5682,3.5463,3.5285,3.5698,3.5777,3.5482,3.531,3.526,3.5568,3.5473,3.5606,3.5339,3.5263,3.5396,4.4895,4.4895,4.4895,4.4895,4.4862,4.4567,4.4203,4.3683,4.2945,4.2053,4.1396,4.0866,4.0369,4.0014,4.0125,4.0105,4.0025,4.0199,4.0283,4.0328,4.0334,3.8917,3.6861,3.5689,3.5005,3.4347,3.3924,3.3452,3.314,3.3104,3.33,3.3541,3.3189,3.3434,3.4228,3.383,3.4058,3.4741,3.4934,3.4806,3.477,3.4774,3.4587,3.4096,3.4,3.4019,3.4051,3.4109,3.3862,3.3269,3.3064,3.3104,3.3104,3.3104,3.3104,3.3126,3.34,3.3651,3.3786,3.4447,3.4913,3.501,3.5494,3.5648,3.5706,3.5706,3.5706,3.5706,3.5706,3.5706,3.5764,3.5977,3.6574,3.7229,3.7016,3.6942,3.7419,3.7442,3.7699,3.8108,3.8305,3.8268,3.8548,3.9059,3.9062,3.8728,3.8432,3.8448,3.846,3.8633,3.8708,3.8825,3.8806,3.8611,3.8552,3.775,3.7452,3.8498,3.8627,3.7987,3.7343,3.6437,3.6348,3.6332,3.6331,3.6265,3.6142,3.6125,3.6445,3.6566,3.6275,3.618,3.6126,3.5878,3.5935,4.4895,4.4895,4.4895,4.4895,4.4931,4.5098,4.4756,4.4161,4.3982,4.3237,4.2136,4.169,4.1035,4.0268,4.0353,4.0229,4.0139,4.0309,4.0419,4.0537,4.058,3.9754,3.8452,3.7495,3.6532,3.5527,3.4974,3.435,3.3919,3.3552,3.3651,3.3786,3.3334,3.361,3.4121,3.3713,3.3784,3.4563,3.4806,3.5055,3.5402,3.5502,3.5422,3.5386,3.535,3.5372,3.5455,3.5466,3.4944,3.3455,3.3375,3.3552,3.3494,3.3436,3.3474,3.3648,3.4195,3.4546,3.4626,3.5204,3.5629,3.5629,3.5648,3.5706,3.5706,3.5706,3.5706,3.5706,3.5764,3.5994,3.6265,3.6687,3.7386,3.8102,3.8292,3.8331,3.8431,3.8401,3.8401,3.8572,3.9158,3.9177,3.9119,3.916,3.9472,3.9646,3.9429,3.9464,3.9458,3.9492,3.9451,3.9352,3.9235,3.906,3.9021,3.8923,3.8916,3.9237,3.9261,3.8918,3.8581,3.8005,3.7816,3.7659,3.7225,3.7175,3.7334,3.7462,3.7562,3.7411,3.7024,3.7273,3.7506,3.7101,3.6967,4.4895,4.4895,4.4895,4.4895,4.4949,4.5204,4.5185,4.4891,4.4501,4.4038,4.3336,4.2221,4.1513,4.1199,4.0695,4.0387,4.0305,4.0515,4.0726,4.0717,4.0778,4.0671,3.9986,3.9232,3.8706,3.8069,3.7599,3.6571,3.5488,3.5046,3.4505,3.3571,3.3632,3.3532,3.4217,3.4137,3.4546,3.5262,3.5358,3.538,3.559,3.5706,3.5706,3.5706,3.5706,3.5706,3.5706,3.5706,3.5513,3.5223,3.5065,3.493,3.4949,3.4988,3.4969,3.4988,3.5162,3.5397,3.5458,3.5552,3.5706,3.5706,3.5706,3.5706,3.5706,3.5745,3.5726,3.5823,3.6245,3.6881,3.7494,3.7787,3.8348,3.8969,3.9224,3.9459,3.9919,3.9658,3.961,4.0142,4.0461,4.0681,4.0547,4.0508,4.0586,4.0547,4.0484,4.0519,4.0437,4.0314,4.0214,4.0018,4.0036,3.9938,3.9938,3.9918,3.9912,3.9919,3.9889,3.9867,3.9531,3.9054,3.8699,3.8293,3.7859,3.8012,3.8378,3.8114,3.808,3.791,3.7869,3.806,3.8171,3.7984,3.8037,4.5051,4.502,4.4931,4.4943,4.5072,4.5301,4.54,4.5338,4.5166,4.4774,4.414,4.2915,4.2152,4.1665,4.0972,4.0548,4.0477,4.0654,4.0813,4.079,4.0794,4.0794,4.0777,4.0352,3.9965,3.952,3.9033,3.8044,3.7174,3.6767,3.6226,3.4925,3.4521,3.4331,3.4256,3.4137,3.4217,3.4855,3.5107,3.5262,3.5629,3.5706,3.5706,3.5706,3.5706,3.5706,3.5706,3.5706,3.5706,3.5706,3.5706,3.5706,3.5706,3.5706,3.5706,3.5706,3.5706,3.5706,3.5706,3.5706,3.5706,3.5726,3.5706,3.5706,3.5839,3.6013,3.6265,3.6439,3.7035,3.7842,3.8658,3.8771,3.9199,3.9818,4.0053,4.0291,4.0619,4.0457,4.0364,4.0887,4.0964,4.1059,4.1152,4.1191,4.1152,4.0859,4.0801,4.0835,4.0853,4.0771,4.0843,4.0802,4.0915,4.0933,4.0934,4.0873,4.0791,4.0718,4.0589,4.057,4.0431,3.9874,3.9313,3.9055,3.8908,3.9141,3.9395,3.9036,3.8863,3.9091,3.9145,3.8973,3.8939,3.9111,3.9202,4.5216,4.5224,4.5049,4.5059,4.5251,4.5362,4.5493,4.5581,4.5737,4.536,4.471,4.3866,4.3055,4.2293,4.1611,4.108,4.0821,4.0678,4.0794,4.0794,4.0794,4.0794,4.0777,4.0658,4.0407,3.9733,3.9713,3.9149,3.8547,3.8315,3.7715,3.7035,3.6436,3.5897,3.5049,3.4425,3.4731,3.5472,3.5571,3.5706,3.6093,3.6113,3.5936,3.5706,3.5706,3.5706,3.5706,3.5706,3.5706,3.5706,3.5706,3.5784,3.5858,3.5726,3.5706,3.5706,3.5706,3.5706,3.5706,3.5726,3.5726,3.5803,3.5897,3.6033,3.6284,3.6745,3.7035,3.7384,3.7883,3.8731,3.9496,3.9634,3.996,4.0462,4.0691,4.0742,4.0793,4.0875,4.089,4.0968,4.1076,4.1148,4.1191,4.1191,4.1191,4.1191,4.1152,4.1111,4.111,4.1107,4.1101,4.1116,4.1112,4.1109,4.1108,4.1108,4.1104,4.1078,4.1015,4.0992,4.0982,4.0611,4.0117,4.0211,4.0208,4.0238,4.0161,3.9902,3.9931,4.0324,4.0181,3.9768,3.9893,4.0267,4.0171,4.5366,4.5366,4.5336,4.5341,4.539,4.5506,4.558,4.5621,4.5741,4.5745,4.5474,4.4733,4.4219,4.3838,4.3211,4.2476,4.1654,4.121,4.0855,4.0813,4.0794,4.0794,4.0794,4.0794,4.0681,4.0642,4.0487,4.0023,3.9481,3.923,3.8801,3.8121,3.7812,3.7538,3.7345,3.7361,3.6936,3.7016,3.7113,3.7328,3.7348,3.7,3.6458,3.6033,3.6016,3.5955,3.5842,3.5784,3.5706,3.5706,3.5706,3.6113,3.6458,3.6168,3.5939,3.5919,3.5958,3.6035,3.5994,3.5842,3.611,3.6497,3.6709,3.7074,3.75,3.7867,3.8022,3.8295,3.8837,3.963,4.0459,4.0407,4.0549,4.0762,4.0778,4.0781,4.0811,4.09,4.0962,4.0995,4.1086,4.1172,4.1191,4.1191,4.1191,4.1191,4.1152,4.1132,4.1131,4.1108,4.1101,4.1117,4.1113,4.1111,4.1108,4.1108,4.1108,4.1107,4.1055,4.102,4.1037,4.105,4.095,4.0768,4.0602,4.0431,4.0419,4.0455,4.042,4.0367,4.0367,4.0376,4.0359,4.0341,4.0313,4.5502,4.5512,4.5419,4.5433,4.5506,4.5567,4.5641,4.5708,4.5763,4.5803,4.5571,4.4987,4.4578,4.4365,4.3688,4.2821,4.2086,4.1661,4.118,4.0929,4.0794,4.0794,4.0794,4.0794,4.0794,4.0794,4.0758,4.0623,4.0213,4.0178,3.9675,3.9072,3.8879,3.8682,3.8292,3.8077,3.8251,3.8251,3.8251,3.8254,3.8234,3.7729,3.7326,3.7113,3.6961,3.6997,3.6997,3.7,3.7019,3.7035,3.7019,3.7229,3.7326,3.7248,3.7,3.7,3.6942,3.6961,3.698,3.7,3.7232,3.748,3.7577,3.7732,3.8196,3.8544,3.9011,3.9498,3.9765,4.032,4.0688,4.0768,4.0765,4.0746,4.0749,4.0778,4.0806,4.0924,4.0967,4.1006,4.1114,4.1172,4.1191,4.1191,4.1191,4.1191,4.1172,4.1152,4.1152,4.1129,4.1104,4.11,4.1115,4.1111,4.1108,4.1108,4.1108,4.1108,4.1107,4.1075,4.1063,4.108,4.1044,4.0911,4.0765,4.0622,4.0538,4.0508,4.046,4.0409,4.0396,4.0388,4.0379,4.037,4.0347,4.5641,4.5629,4.5524,4.5541,4.5633,4.5641,4.5696,4.5793,4.5803,4.5803,4.5726,4.5181,4.4871,4.4617,4.3998,4.3205,4.2492,4.228,4.1603,4.12,4.0871,4.0794,4.0794,4.0794,4.0794,4.0794,4.0794,4.0794,4.0697,4.0697,4.0371,3.9946,3.9752,3.9481,3.8972,3.9008,3.8737,3.8718,3.8718,3.8682,3.8508,3.8447,3.8331,3.8215,3.8215,3.8099,3.8002,3.7983,3.8002,3.8022,3.8099,3.8234,3.8428,3.8467,3.8544,3.8641,3.8409,3.8234,3.8157,3.8099,3.806,3.8411,3.8467,3.8563,3.8892,3.9517,4.0023,4.0639,4.0755,4.071,4.0746,4.0713,4.0733,4.0733,4.0739,4.0765,4.0843,4.092,4.0992,4.1043,4.1144,4.1172,4.1191,4.1191,4.1191,4.1191,4.1191,4.1191,4.1172,4.1133,4.1108,4.1103,4.1117,4.1111,4.1108,4.1108,4.1108,4.1108,4.1108,4.1084,4.1095,4.1103,4.1037,4.099,4.0894,4.0754,4.0674,4.057,4.0527,4.0488,4.0432,4.0407,4.0423,4.0426,4.0428,4.5766,4.5782,4.5768,4.5756,4.5778,4.5759,4.5789,4.58,4.5803,4.5803,4.5803,4.5687,4.5591,4.5397,4.4813,4.4384,4.3824,4.2899,4.2106,4.168,4.118,4.089,4.0794,4.0794,4.0794,4.0794,4.0794,4.0794,4.0794,4.0794,4.0774,4.0561,4.0487,4.0503,4.0175,4.0075,4.0484,4.0445,4.0407,4.0062,3.9481,3.9343,3.8975,3.8544,3.8389,3.8447,3.8544,3.8563,3.8483,3.8409,3.8312,3.8624,3.9169,3.9365,3.9791,3.9788,3.924,3.8215,3.8389,3.8505,3.8757,3.9227,3.9343,3.9752,4.0039,4.0291,4.0584,4.0736,4.0794,4.079,4.0784,4.0784,4.0787,4.0762,4.0752,4.08,4.0871,4.0932,4.1,4.1075,4.1147,4.1172,4.1191,4.1191,4.1191,4.1191,4.1191,4.1191,4.1191,4.1133,4.111,4.1105,4.1117,4.1111,4.1108,4.1108,4.1128,4.1128,4.1108,4.1108,4.1104,4.1117,4.1102,4.1058,4.0966,4.0889,4.0784,4.0684,4.0615,4.0542,4.0476,4.0476,4.0481,4.0491,4.0474,4.5803,4.5803,4.5803,4.5803,4.5803,4.5803,4.5803,4.5803,4.5803,4.5803,4.5803,4.5803,4.5803,4.5687,4.5394,4.5007,4.452,4.3766,4.2857,4.2164,4.1641,4.1258,4.089,4.0794,4.0794,4.0794,4.0794,4.0794,4.0794,4.0794,4.0794,4.0794,4.0794,4.0755,4.0794,4.0794,4.0774,4.0755,4.0736,4.06,4.0332,4.0213,4.0059,3.9672,3.963,3.9591,3.9591,3.9669,3.9669,3.9669,3.9669,3.9807,4.0136,4.0255,4.0429,4.06,4.0175,3.9749,3.973,3.9649,3.9826,4.0059,4.0236,4.041,4.0755,4.0794,4.0794,4.0794,4.0794,4.0794,4.0787,4.0775,4.0749,4.0762,4.082,4.0898,4.0946,4.0966,4.1034,4.1084,4.1211,4.1426,4.1562,4.1523,4.1426,4.1191,4.1191,4.1191,4.1172,4.1152,4.1129,4.1106,4.1099,4.1109,4.1108,4.1108,4.1167,4.1147,4.1108,4.1108,4.1108,4.1108,4.1108,4.1108,4.1066,4.0968,4.0874,4.0762,4.0665,4.0589,4.0492,4.0492,4.0492,4.0489,4.0491,4.5803,4.5803,4.5803,4.5803,4.5803,4.5803,4.5803,4.5803,4.5803,4.5803,4.5803,4.5803,4.5803,4.5803,4.5745,4.5436,4.4929,4.4713,4.3862,4.2976,4.2338,4.1874,4.1432,4.1161,4.1026,4.0832,4.0794,4.0794,4.0794,4.0794,4.0794,4.0794,4.0794,4.0794,4.0794,4.0794,4.0794,4.0794,4.0794,4.0774,4.0736,4.0736,4.0755,4.0736,4.0794,4.0794,4.0794,4.0716,4.0719,4.0678,4.0619,4.06,4.0697,4.0681,4.07,4.0794,4.0561,4.0581,4.0561,4.0581,4.0794,4.0794,4.0794,4.0716,4.0774,4.0794,4.0784,4.0778,4.081,4.0784,4.0749,4.0707,4.07,4.0806,4.0938,4.1013,4.1213,4.1564,4.1927,4.2214,4.2305,4.2148,4.2187,4.2031,4.1738,4.1328,4.1191,4.125,4.1289,4.1328,4.1441,4.1516,4.1628,4.1541,4.1283,4.1265,4.1265,4.1323,4.1265,4.1187,4.1245,4.1167,4.1108,4.1108,4.1245,4.1036,4.0937,4.0825,4.0709,4.0629,4.0568,4.0512,4.0492,4.055,4.0585,4.5803,4.5803,4.5803,4.5803,4.5803,4.5803,4.5803,4.5803,4.5803,4.5803,4.5803,4.5803,4.5803,4.5803,4.5803,4.5745,4.5649,4.4945,4.4481,4.4075,4.3592,4.2763,4.2202,4.1835,4.1603,4.1103,4.118,4.1122,4.0871,4.1064,4.0929,4.0813,4.0855,4.0832,4.0794,4.0794,4.0794,4.0794,4.0794,4.0794,4.0794,4.0794,4.0794,4.0794,4.0794,4.0794,4.0794,4.0794,4.0794,4.0794,4.0794,4.0794,4.0794,4.0794,4.0794,4.0794,4.0794,4.0794,4.0794,4.0794,4.0794,4.0794,4.0794,4.0794,4.0794,4.0794,4.0778,4.0797,4.0913,4.0916,4.0813,4.0712,4.1072,4.1258,4.1594,4.1858,4.2175,4.2686,4.3036,4.3373,4.332,4.2988,4.293,4.2793,4.25,4.2109,4.1933,4.1992,4.1797,4.1835,4.2008,4.2122,4.2293,4.2131,4.1635,4.1771,4.2358,4.2143,4.1849,4.1635,4.146,4.1382,4.191,4.1636,4.181,4.1393,4.1165,4.1457,4.1472,4.0903,4.0693,4.0918,4.107,4.1204,4.1089,4.5803,4.5803,4.5803,4.5803,4.5803,4.5803,4.5803,4.5803,4.5803,4.5803,4.5803,4.5803,4.5803,4.5803,4.5803,4.5803,4.5765,4.5552,4.5084,4.4655,4.4152,4.3592,4.3073,4.2763,4.2628,4.2318,4.228,4.2318,4.2357,4.1796,4.1567,4.1451,4.1164,4.0852,4.0794,4.0794,4.0794,4.0794,4.0794,4.0794,4.0794,4.0794,4.0794,4.0794,4.0794,4.0794,4.0794,4.0794,4.0794,4.0794,4.0794,4.0794,4.0794,4.0794,4.0794,4.0832,4.0832,4.089,4.0852,4.0832,4.0794,4.0794,4.0794,4.0832,4.0871,4.0832,4.079,4.0894,4.1284,4.1473,4.1501,4.1884,4.2298,4.2252,4.2379,4.2682,4.3066,4.3576,4.3879,4.4096,4.3848,4.3516,4.3535,4.3594,4.3262,4.293,4.2812,4.2676,4.25,4.248,4.2713,4.2944,4.3135,4.352,4.3142,4.3334,4.3626,4.3099,4.2551,4.2454,4.2436,4.3198,4.351,4.3022,4.2573,4.254,4.2537,4.2555,4.2201,4.1455,4.1406,4.1679,4.1797,4.1881,4.1801,4.5803,4.5803,4.5803,4.5803,4.5803,4.5803,4.5803,4.5803,4.5803,4.5803,4.5803,4.5803,4.5803,4.5803,4.5803,4.5803,4.5803,4.5726,4.5436,4.5165,4.491,4.4427,4.3959,4.363,4.3495,4.3417,4.3301,4.3205,4.3092,4.2628,4.2454,4.2222,4.1838,4.1509,4.0794,4.0794,4.0794,4.0794,4.0794,4.0794,4.0794,4.0794,4.0794,4.0794,4.0794,4.0794,4.0794,4.0794,4.0794,4.0794,4.0794,4.0794,4.0794,4.0794,4.0813,4.0874,4.1029,4.1142,4.1142,4.0913,4.0832,4.0794,4.0794,4.0929,4.1084,4.118,4.1329,4.1702,4.211,4.2344,4.2346,4.2653,4.2857,4.2775,4.3223,4.354,4.3901,4.4347,4.4562,4.4746,4.459,4.4668,4.4707,4.4746,4.4101,4.3711,4.3281,4.3223,4.3242,4.33,4.3573,4.3825,4.4055,4.4518,4.4941,4.4899,4.4759,4.4231,4.3781,4.3684,4.388,4.4584,4.4506,4.3588,4.3373,4.3723,4.3614,4.3258,4.2644,4.1912,4.2115,4.2448,4.246,4.2547,4.2701,4.5803,4.5803,4.5803,4.5803,4.5803,4.5803,4.5803,4.5803,4.5803,4.5803,4.5803,4.5803,4.5803,4.5803,4.5803,4.5803,4.5803,4.5803,4.5707,4.5629,4.5533,4.5184,4.4833,4.4481,4.4311,4.3514,4.3595,4.375,4.3537,4.3379,4.3305,4.3208,4.2899,4.2241,4.0968,4.0794,4.0794,4.0813,4.0813,4.091,4.0832,4.0968,4.12,4.1006,4.12,4.1296,4.1316,4.1316,4.1335,4.1316,4.1277,4.1258,4.1219,4.118,4.1161,4.1142,4.168,4.1932,4.1932,4.1255,4.1122,4.1197,4.1387,4.1461,4.1851,4.2041,4.2179,4.2509,4.3028,4.3142,4.3142,4.3211,4.3393,4.3643,4.4105,4.4417,4.477,4.5036,4.5245,4.5382,4.5837,4.6172,4.6152,4.5957,4.5137,4.4512,4.3906,4.3789,4.4004,4.4258,4.457,4.4724,4.4974,4.5224,4.5627,4.5972,4.5852,4.5343,4.4992,4.4836,4.4876,4.5266,4.4915,4.4114,4.4271,4.4719,4.4289,4.3758,4.3546,4.3421,4.3065,4.3173,4.3168,4.3335,4.3624,4.5803,4.5803,4.5803,4.5803,4.5803,4.5803,4.5803,4.5803,4.5803,4.5803,4.5803,4.5803,4.5803,4.5803,4.5803,4.5803,4.5803,4.5803,4.5803,4.5803,4.5803,4.5687,4.5416,4.5258,4.5165,4.5049,4.4952,4.4817,4.501,4.4446,4.4172,4.4094,4.3611,4.2686,4.1738,4.12,4.0794,4.091,4.12,4.1432,4.1045,4.1761,4.2125,4.1661,4.2067,4.2299,4.228,4.2241,4.2241,4.2241,4.2244,4.226,4.228,4.2299,4.2357,4.2396,4.2818,4.2857,4.2837,4.257,4.2492,4.2447,4.2318,4.2392,4.2834,4.2802,4.2997,4.3291,4.3802,4.3898,4.3985,4.4534,4.4802,4.4908,4.5213,4.5334,4.5573,4.5743,4.5913,4.5979,4.6286,4.6288,4.6289,4.6289,4.5703,4.5527,4.5039,4.5098,4.5312,4.5469,4.5722,4.574,4.5874,4.6007,4.6196,4.6267,4.6302,4.5871,4.5773,4.5832,4.5949,4.593,4.5793,4.5208,4.5442,4.5636,4.5224,4.4923,4.5175,4.5116,4.449,4.4248,4.4434,4.464,4.4898,4.5803,4.5803,4.5803,4.5803,4.5803,4.5803,4.5803,4.5803,4.5803,4.5803,4.5803,4.5803,4.5803,4.5803,4.5803,4.5803,4.5803,4.5803,4.5803,4.5803,4.5803,4.5765,4.5765,4.5803,4.5668,4.5803,4.5803,4.5745,4.5629,4.5239,4.5045,4.4813,4.4191,4.3611,4.286,4.2299,4.1796,4.197,4.226,4.228,4.2202,4.2531,4.2953,4.2744,4.2879,4.3224,4.3282,4.3321,4.334,4.3359,4.3359,4.334,4.334,4.3321,4.3321,4.3301,4.3597,4.38,4.406,4.4149,4.4126,4.4126,4.3652,4.3405,4.3585,4.3639,4.3875,4.4184,4.4538,4.4683,4.4874,4.5522,4.5549,4.5621,4.5702,4.5785,4.5946,4.6105,4.6142,4.6249,4.6302,4.6306,4.6289,4.6289,4.6113,4.6172,4.6211,4.6289,4.6289,4.6289,4.6289,4.6269,4.6247,4.6242,4.6237,4.6268,4.6303,4.6302,4.6301,4.6301,4.6281,4.6145,4.6242,4.6301,4.6125,4.6026,4.6139,4.6124,4.5925,4.5748,4.5433,4.5416,4.5687,4.5688,4.5665,4.5803,4.5803,4.5803,4.5803,4.5803,4.5803,4.5803,4.5803,4.5803,4.5803,4.5803,4.5803,4.5803,4.5803,4.5803,4.5803,4.5803,4.5803,4.5803,4.5803,4.5803,4.5803,4.5803,4.5803,4.5803,4.5803,4.5803,4.5803,4.5803,4.5649,4.5629,4.5571,4.4949,4.4562,4.4175,4.3808,4.3227,4.3034,4.3147,4.3092,4.3015,4.3401,4.3592,4.3537,4.3634,4.3788,4.3808,4.3769,4.3688,4.3646,4.3592,4.3511,4.3453,4.3398,4.3398,4.3636,4.4242,4.4819,4.5245,4.5299,4.5364,4.5082,4.4225,4.404,4.4183,4.4473,4.4665,4.5004,4.5327,4.5436,4.5603,4.5643,4.5657,4.5734,4.5799,4.5937,4.6141,4.622,4.622,4.626,4.6293,4.6301,4.6287,4.6289,4.6289,4.6289,4.6289,4.6289,4.6289,4.6289,4.6289,4.6289,4.6287,4.6283,4.6297,4.629,4.6304,4.6301,4.6301,4.6301,4.6301,4.6301,4.6301,4.6301,4.6301,4.63,4.6278,4.6273,4.6204,4.6033,4.5882,4.5798,4.5843,4.5834,4.5812,4.5803,4.5803,4.5803,4.5803,4.5803,4.5803,4.5803,4.5803,4.5803,4.5803,4.5803,4.5803,4.5803,4.5803,4.5803,4.5803,4.5803,4.5803,4.5803,4.5803,4.5803,4.5803,4.5803,4.5803,4.5803,4.5803,4.5803,4.5803,4.5803,4.5803,4.5803,4.5707,4.5494,4.5397,4.53,4.5184,4.4353,4.3866,4.4017,4.3901,4.3962,4.4388,4.4427,4.4407,4.4643,4.4775,4.4856,4.4894,4.4903,4.4956,4.5039,4.5051,4.5024,4.5046,4.508,4.5024,4.5279,4.5465,4.565,4.5684,4.5692,4.5687,4.5093,4.5171,4.5271,4.5266,4.5333,4.5545,4.5652,4.5627,4.5618,4.5622,4.5688,4.5763,4.5845,4.5957,4.6146,4.6245,4.6246,4.6257,4.6291,4.63,4.6306,4.6289,4.6289,4.6289,4.6289,4.6289,4.6289,4.6289,4.6289,4.6289,4.6288,4.6303,4.6299,4.6292,4.6306,4.6301,4.6301,4.6301,4.6301,4.6301,4.6301,4.6301,4.6301,4.6301,4.6301,4.6276,4.6251,4.6275,4.6137,4.6058,4.5992,4.598,4.5934,4.5803,4.5803,4.5803,4.5803,4.5803,4.5803,4.5803,4.5803,4.5803,4.5803,4.5803,4.5803,4.5803,4.5803,4.5803,4.5803,4.5803,4.5803,4.5803,4.5803,4.5803,4.5803,4.5803,4.5803,4.5803,4.5803,4.5803,4.5803,4.5803,4.5803,4.5803,4.5803,4.5803,4.5803,4.5745,4.5591,4.5242,4.4852,4.4697,4.4659,4.4891,4.5223,4.5239,4.5278,4.5629,4.5745,4.5803,4.5803,4.5801,4.5811,4.5817,4.5757,4.57,4.5712,4.5723,4.5595,4.5603,4.5606,4.5671,4.5667,4.5658,4.5646,4.5657,4.5607,4.5569,4.5533,4.5543,4.564,4.5607,4.5594,4.5594,4.5612,4.5684,4.577,4.5868,4.5942,4.6073,4.6216,4.6252,4.6281,4.6292,4.6301,4.6306,4.6289,4.6289,4.6289,4.6289,4.6289,4.6289,4.6289,4.6289,4.6289,4.6289,4.6304,4.63,4.6295,4.6288,4.6303,4.6301,4.6301,4.6301,4.6301,4.6301,4.6301,4.6301,4.6301,4.6301,4.6301,4.6279,4.6301,4.6301,4.6212,4.6141,4.6138,4.607,4.5803,4.5803,4.5803,4.5803,4.5803,4.5803,4.5803,4.5803,4.5803,4.5803,4.5803,4.5803,4.5803,4.5803,4.5803,4.5803,4.5803,4.5803,4.5803,4.5803,4.5803,4.5803,4.5803,4.5803,4.5803,4.5803,4.5803,4.5803,4.5803,4.5803,4.5803,4.5803,4.5803,4.5803,4.5803,4.5803,4.5591,4.5513,4.5455,4.5494,4.5591,4.5765,4.5803,4.5765,4.58,4.5816,4.5816,4.5789,4.5782,4.5792,4.5792,4.5739,4.5712,4.5688,4.5702,4.569,4.5658,4.5661,4.5625,4.5616,4.5612,4.5603,4.5594,4.5603,4.5607,4.5607,4.5607,4.5603,4.5594,4.5594,4.5594,4.5607,4.5668,4.577,4.5871,4.5964,4.6073,4.619,4.6277,4.6304,4.6291,4.63,4.6303,4.6287,4.6289,4.6289,4.6289,4.6289,4.6289,4.6289,4.6289,4.6289,4.6289,4.6305,4.6303,4.6298,4.6291,4.6306,4.6304,4.6301,4.6301,4.6301,4.6301,4.6301,4.6301,4.6301,4.6301,4.6301,4.6301,4.6301,4.6301,4.6301,4.6276,4.6247,4.6173,4.5803,4.5803,4.5803,4.5803,4.5803,4.5803,4.5803,4.5803,4.5803,4.5803,4.5803,4.5803,4.5803,4.5803,4.5803,4.5803,4.5803,4.5803,4.5803,4.5803,4.5803,4.5803,4.5803,4.5803,4.5803,4.5803,4.5803,4.5803,4.5803,4.5803,4.5803,4.5803,4.5803,4.5803,4.5803,4.5803,4.5803,4.5803,4.5803,4.5803,4.5803,4.5803,4.5803,4.5816,4.5805,4.5806,4.5795,4.5754,4.5739,4.5742,4.5727,4.5711,4.5679,4.5646,4.5625,4.5631,4.5616,4.5627,4.5618,4.5594,4.5594,4.5594,4.5594,4.5594,4.5594,4.5594,4.5594,4.5594,4.5594,4.5594,4.5599,4.5616,4.5635,4.5759,4.5882,4.5976,4.607,4.6182,4.6278,4.6306,4.6292,4.6297,4.6301,4.6305,4.6288,4.6289,4.6289,4.6289,4.6289,4.6289,4.6289,4.6289,4.6289,4.6306,4.6305,4.6302,4.6297,4.6293,4.6291,4.6288,4.6302,4.6302,4.6304,4.6302,4.6301,4.6301,4.6301,4.6301,4.6301,4.6301,4.6301,4.6301,4.6301,4.6275,4.621,4.5803,4.5803,4.5803,4.5803,4.5803,4.5803,4.5803,4.5803,4.5803,4.5803,4.5803,4.5803,4.5803,4.5803,4.5803,4.5803,4.5803,4.5803,4.5803,4.5803,4.5803,4.5803,4.5803,4.5803,4.5803,4.5803,4.5803,4.5803,4.5803,4.5803,4.5803,4.5803,4.5803,4.5803,4.5803,4.5803,4.5803,4.5803,4.5803,4.5803,4.5803,4.5803,4.5803,4.5812,4.581,4.5811,4.5792,4.5727,4.5707,4.569,4.569,4.5658,4.5648,4.5631,4.5599,4.5594,4.5594,4.5594,4.5594,4.5594,4.5594,4.5594,4.5594,4.5594,4.5594,4.5594,4.5594,4.5594,4.5594,4.5594,4.5594,4.5607,4.5616,4.5704,4.5818,4.5928,4.6064,4.619,4.6273,4.6302,4.629,4.6296,4.6301,4.6305,4.6288,4.6289,4.6289,4.6289,4.6289,4.6289,4.6289,4.6289,4.6289,4.6289,4.6306,4.6305,4.6302,4.63,4.6297,4.6295,4.6292,4.6289,4.6287,4.6288,4.6306,4.6301,4.6301,4.6302,4.6302,4.6301,4.6301,4.6301,4.6301,4.6301,4.6247,4.5803,4.5803,4.5803,4.5803,4.5803,4.5803,4.5803,4.5803,4.5803,4.5803,4.5803,4.5803,4.5803,4.5803,4.5803,4.5803,4.5803,4.5803,4.5803,4.5803,4.5803,4.5803,4.5803,4.5803,4.5803,4.5803,4.5803,4.5803,4.5803,4.5803,4.5803,4.5803,4.5803,4.5803,4.5803,4.5803,4.5803,4.5803,4.5803,4.5803,4.5803,4.5803,4.58,4.5805,4.5803,4.5777,4.5762,4.5731,4.5687,4.5662,4.5644,4.5612,4.5603,4.5614,4.5594,4.5594,4.5594,4.5594,4.5594,4.5594,4.5594,4.5594,4.5594,4.5594,4.5594,4.5594,4.5594,4.5594,4.5594,4.5594,4.5594,4.5594,4.5603,4.5654,4.5775,4.5888,4.6052,4.6192,4.6249,4.63,4.6288,4.6295,4.63,4.6304,4.6287,4.6289,4.6289,4.6289,4.6289,4.6289,4.6289,4.6289,4.6289,4.6289,4.6289,4.6306,4.6305,4.6304,4.6302,4.6301,4.6299,4.6297,4.6296,4.6296,4.6294,4.6289,4.6305,4.6305,4.6304,4.6302,4.6301,4.6301,4.6301,4.6301,4.6301,4.5803,4.5803,4.5803,4.5803,4.5803,4.5803,4.5803,4.5803,4.5803,4.5803,4.5803,4.5803,4.5803,4.5803,4.5803,4.5803,4.5803,4.5803,4.5803,4.5803,4.5803,4.5803,4.5803,4.5803,4.5803,4.5803,4.5803,4.5803,4.5803,4.5803,4.5803,4.5803,4.5803,4.5803,4.5803,4.5803,4.5803,4.5803,4.5803,4.5803,4.5803,4.5819,4.5801,4.5795,4.5758,4.5742,4.5706,4.5661,4.562,4.5603,4.5618,4.5594,4.5594,4.5594,4.5594,4.5594,4.5594,4.5594,4.5594,4.5594,4.5594,4.5594,4.5594,4.5594,4.5594,4.5594,4.5594,4.5594,4.5594,4.5594,4.5594,4.5594,4.5603,4.5676,4.5759,4.5903,4.6049,4.6178,4.6272,4.6278,4.6302,4.629,4.6295,4.6301,4.6305,4.6288,4.6289,4.6289,4.6289,4.6289,4.6289,4.6289,4.6289,4.6289,4.6289,4.6289,4.6306,4.6306,4.6306,4.6306,4.6305,4.6303,4.6303,4.6302,4.6301,4.6297,4.6295,4.629,4.6306,4.6304,4.6302,4.6301,4.6301,4.6301,4.6301]}]]